<?xml version="1.0" encoding="UTF-8" ?>
<gpx version="1.1" xmlns:xsi="http://www.w3.org/2001/XMLSchema-instance" 
    xmlns="http://www.topografix.com/GPX/1/1" 
    xsi:schemaLocation="http://www.topografix.com/GPX/1/1 http://www.topografix.com/GPX/1/1/gpx.xsd" 
    creator="Openrunner - https://www.openrunner.com" >	<trk>
						<name>Chartres- Paris de nuit v20240925T1735-19970748</name>
						<trkseg>
					<trkpt lat="48.447300" lon="1.487050">
						<ele>161</ele>
						<time>2024-09-25T15:35:41Z</time>
					</trkpt>
					<trkpt lat="48.447520" lon="1.486720">
						<ele>160</ele>
						<time>2024-09-25T15:35:47Z</time>
					</trkpt>
					<trkpt lat="48.447710" lon="1.486990">
						<ele>161</ele>
						<time>2024-09-25T15:35:51Z</time>
					</trkpt>
					<trkpt lat="48.447730" lon="1.487010">
						<ele>161</ele>
						<time>2024-09-25T15:35:52Z</time>
					</trkpt>
					<trkpt lat="48.447840" lon="1.486720">
						<ele>160</ele>
						<time>2024-09-25T15:35:56Z</time>
					</trkpt>
					<trkpt lat="48.447840" lon="1.486720">
						<ele>160</ele>
						<time>2024-09-25T15:35:56Z</time>
					</trkpt>
					<trkpt lat="48.447860" lon="1.486690">
						<ele>160</ele>
						<time>2024-09-25T15:35:56Z</time>
					</trkpt>
					<trkpt lat="48.447710" lon="1.486610">
						<ele>160</ele>
						<time>2024-09-25T15:35:59Z</time>
					</trkpt>
					<trkpt lat="48.447590" lon="1.486480">
						<ele>160</ele>
						<time>2024-09-25T15:36:02Z</time>
					</trkpt>
					<trkpt lat="48.447260" lon="1.486080">
						<ele>159</ele>
						<time>2024-09-25T15:36:09Z</time>
					</trkpt>
					<trkpt lat="48.447120" lon="1.485920">
						<ele>159</ele>
						<time>2024-09-25T15:36:12Z</time>
					</trkpt>
					<trkpt lat="48.447000" lon="1.485870">
						<ele>159</ele>
						<time>2024-09-25T15:36:14Z</time>
					</trkpt>
					<trkpt lat="48.446680" lon="1.485450">
						<ele>158</ele>
						<time>2024-09-25T15:36:22Z</time>
					</trkpt>
					<trkpt lat="48.446790" lon="1.485270">
						<ele>157</ele>
						<time>2024-09-25T15:36:25Z</time>
					</trkpt>
					<trkpt lat="48.446960" lon="1.485030">
						<ele>156</ele>
						<time>2024-09-25T15:36:29Z</time>
					</trkpt>
					<trkpt lat="48.447120" lon="1.484990">
						<ele>155</ele>
						<time>2024-09-25T15:36:32Z</time>
					</trkpt>
					<trkpt lat="48.447230" lon="1.484970">
						<ele>155</ele>
						<time>2024-09-25T15:36:34Z</time>
					</trkpt>
					<trkpt lat="48.447570" lon="1.484770">
						<ele>153</ele>
						<time>2024-09-25T15:36:40Z</time>
					</trkpt>
					<trkpt lat="48.447520" lon="1.484610">
						<ele>152</ele>
						<time>2024-09-25T15:36:42Z</time>
					</trkpt>
					<trkpt lat="48.447480" lon="1.484510">
						<ele>151</ele>
						<time>2024-09-25T15:36:44Z</time>
					</trkpt>
					<trkpt lat="48.447370" lon="1.484190">
						<ele>149</ele>
						<time>2024-09-25T15:36:48Z</time>
					</trkpt>
					<trkpt lat="48.447690" lon="1.483910">
						<ele>149</ele>
						<time>2024-09-25T15:36:55Z</time>
					</trkpt>
					<trkpt lat="48.447950" lon="1.483670">
						<ele>149</ele>
						<time>2024-09-25T15:37:00Z</time>
					</trkpt>
					<trkpt lat="48.448090" lon="1.483580">
						<ele>148</ele>
						<time>2024-09-25T15:37:03Z</time>
					</trkpt>
					<trkpt lat="48.448410" lon="1.483480">
						<ele>146</ele>
						<time>2024-09-25T15:37:09Z</time>
					</trkpt>
					<trkpt lat="48.448700" lon="1.483370">
						<ele>144</ele>
						<time>2024-09-25T15:37:14Z</time>
					</trkpt>
					<trkpt lat="48.448920" lon="1.483390">
						<ele>144</ele>
						<time>2024-09-25T15:37:18Z</time>
					</trkpt>
					<trkpt lat="48.449020" lon="1.483370">
						<ele>143</ele>
						<time>2024-09-25T15:37:20Z</time>
					</trkpt>
					<trkpt lat="48.449150" lon="1.483410">
						<ele>143</ele>
						<time>2024-09-25T15:37:22Z</time>
					</trkpt>
					<trkpt lat="48.449370" lon="1.483530">
						<ele>143</ele>
						<time>2024-09-25T15:37:26Z</time>
					</trkpt>
					<trkpt lat="48.452760" lon="1.487920">
						<ele>131</ele>
						<time>2024-09-25T15:38:46Z</time>
					</trkpt>
					<trkpt lat="48.452890" lon="1.488600">
						<ele>129</ele>
						<time>2024-09-25T15:38:54Z</time>
					</trkpt>
					<trkpt lat="48.453060" lon="1.488550">
						<ele>129</ele>
						<time>2024-09-25T15:38:57Z</time>
					</trkpt>
					<trkpt lat="48.453170" lon="1.488570">
						<ele>129</ele>
						<time>2024-09-25T15:38:59Z</time>
					</trkpt>
					<trkpt lat="48.453200" lon="1.488590">
						<ele>129</ele>
						<time>2024-09-25T15:39:00Z</time>
					</trkpt>
					<trkpt lat="48.453230" lon="1.488520">
						<ele>129</ele>
						<time>2024-09-25T15:39:01Z</time>
					</trkpt>
					<trkpt lat="48.453220" lon="1.488450">
						<ele>129</ele>
						<time>2024-09-25T15:39:01Z</time>
					</trkpt>
					<trkpt lat="48.453800" lon="1.488100">
						<ele>130</ele>
						<time>2024-09-25T15:39:13Z</time>
					</trkpt>
					<trkpt lat="48.454290" lon="1.487650">
						<ele>132</ele>
						<time>2024-09-25T15:39:23Z</time>
					</trkpt>
					<trkpt lat="48.455690" lon="1.487250">
						<ele>135</ele>
						<time>2024-09-25T15:39:48Z</time>
					</trkpt>
					<trkpt lat="48.455860" lon="1.487140">
						<ele>135</ele>
						<time>2024-09-25T15:39:51Z</time>
					</trkpt>
					<trkpt lat="48.456670" lon="1.486050">
						<ele>132</ele>
						<time>2024-09-25T15:40:11Z</time>
					</trkpt>
					<trkpt lat="48.457010" lon="1.485800">
						<ele>132</ele>
						<time>2024-09-25T15:40:17Z</time>
					</trkpt>
					<trkpt lat="48.457700" lon="1.485410">
						<ele>131</ele>
						<time>2024-09-25T15:40:31Z</time>
					</trkpt>
					<trkpt lat="48.459310" lon="1.484250">
						<ele>128</ele>
						<time>2024-09-25T15:41:02Z</time>
					</trkpt>
					<trkpt lat="48.459500" lon="1.484080">
						<ele>128</ele>
						<time>2024-09-25T15:41:06Z</time>
					</trkpt>
					<trkpt lat="48.460570" lon="1.483010">
						<ele>125</ele>
						<time>2024-09-25T15:41:29Z</time>
					</trkpt>
					<trkpt lat="48.461300" lon="1.482430">
						<ele>125</ele>
						<time>2024-09-25T15:41:44Z</time>
					</trkpt>
					<trkpt lat="48.462470" lon="1.481890">
						<ele>124</ele>
						<time>2024-09-25T15:42:06Z</time>
					</trkpt>
					<trkpt lat="48.463050" lon="1.481710">
						<ele>123</ele>
						<time>2024-09-25T15:42:16Z</time>
					</trkpt>
					<trkpt lat="48.463830" lon="1.481340">
						<ele>123</ele>
						<time>2024-09-25T15:42:31Z</time>
					</trkpt>
					<trkpt lat="48.465200" lon="1.480400">
						<ele>122</ele>
						<time>2024-09-25T15:42:57Z</time>
					</trkpt>
					<trkpt lat="48.465650" lon="1.480140">
						<ele>124</ele>
						<time>2024-09-25T15:43:06Z</time>
					</trkpt>
					<trkpt lat="48.466280" lon="1.479920">
						<ele>124</ele>
						<time>2024-09-25T15:43:18Z</time>
					</trkpt>
					<trkpt lat="48.467200" lon="1.479810">
						<ele>124</ele>
						<time>2024-09-25T15:43:34Z</time>
					</trkpt>
					<trkpt lat="48.467420" lon="1.479820">
						<ele>124</ele>
						<time>2024-09-25T15:43:38Z</time>
					</trkpt>
					<trkpt lat="48.467640" lon="1.479860">
						<ele>125</ele>
						<time>2024-09-25T15:43:42Z</time>
					</trkpt>
					<trkpt lat="48.468710" lon="1.480280">
						<ele>125</ele>
						<time>2024-09-25T15:44:01Z</time>
					</trkpt>
					<trkpt lat="48.469140" lon="1.480430">
						<ele>124</ele>
						<time>2024-09-25T15:44:09Z</time>
					</trkpt>
					<trkpt lat="48.469400" lon="1.480550">
						<ele>124</ele>
						<time>2024-09-25T15:44:14Z</time>
					</trkpt>
					<trkpt lat="48.469870" lon="1.480890">
						<ele>125</ele>
						<time>2024-09-25T15:44:23Z</time>
					</trkpt>
					<trkpt lat="48.470020" lon="1.480950">
						<ele>125</ele>
						<time>2024-09-25T15:44:26Z</time>
					</trkpt>
					<trkpt lat="48.469980" lon="1.481120">
						<ele>125</ele>
						<time>2024-09-25T15:44:28Z</time>
					</trkpt>
					<trkpt lat="48.470020" lon="1.481310">
						<ele>126</ele>
						<time>2024-09-25T15:44:31Z</time>
					</trkpt>
					<trkpt lat="48.470270" lon="1.481980">
						<ele>127</ele>
						<time>2024-09-25T15:44:40Z</time>
					</trkpt>
					<trkpt lat="48.470480" lon="1.482470">
						<ele>127</ele>
						<time>2024-09-25T15:44:47Z</time>
					</trkpt>
					<trkpt lat="48.470670" lon="1.482800">
						<ele>127</ele>
						<time>2024-09-25T15:44:52Z</time>
					</trkpt>
					<trkpt lat="48.470840" lon="1.483030">
						<ele>127</ele>
						<time>2024-09-25T15:44:56Z</time>
					</trkpt>
					<trkpt lat="48.470940" lon="1.483210">
						<ele>128</ele>
						<time>2024-09-25T15:44:59Z</time>
					</trkpt>
					<trkpt lat="48.471190" lon="1.483840">
						<ele>128</ele>
						<time>2024-09-25T15:45:07Z</time>
					</trkpt>
					<trkpt lat="48.471430" lon="1.484270">
						<ele>128</ele>
						<time>2024-09-25T15:45:14Z</time>
					</trkpt>
					<trkpt lat="48.471980" lon="1.485050">
						<ele>129</ele>
						<time>2024-09-25T15:45:27Z</time>
					</trkpt>
					<trkpt lat="48.472290" lon="1.485550">
						<ele>128</ele>
						<time>2024-09-25T15:45:35Z</time>
					</trkpt>
					<trkpt lat="48.472520" lon="1.486050">
						<ele>127</ele>
						<time>2024-09-25T15:45:43Z</time>
					</trkpt>
					<trkpt lat="48.472630" lon="1.486400">
						<ele>127</ele>
						<time>2024-09-25T15:45:47Z</time>
					</trkpt>
					<trkpt lat="48.472730" lon="1.486920">
						<ele>127</ele>
						<time>2024-09-25T15:45:54Z</time>
					</trkpt>
					<trkpt lat="48.472830" lon="1.487250">
						<ele>126</ele>
						<time>2024-09-25T15:45:58Z</time>
					</trkpt>
					<trkpt lat="48.473410" lon="1.488630">
						<ele>125</ele>
						<time>2024-09-25T15:46:17Z</time>
					</trkpt>
					<trkpt lat="48.473650" lon="1.489380">
						<ele>126</ele>
						<time>2024-09-25T15:46:27Z</time>
					</trkpt>
					<trkpt lat="48.474280" lon="1.491520">
						<ele>122</ele>
						<time>2024-09-25T15:46:55Z</time>
					</trkpt>
					<trkpt lat="48.474710" lon="1.493350">
						<ele>122</ele>
						<time>2024-09-25T15:47:17Z</time>
					</trkpt>
					<trkpt lat="48.474820" lon="1.493530">
						<ele>123</ele>
						<time>2024-09-25T15:47:20Z</time>
					</trkpt>
					<trkpt lat="48.474960" lon="1.493660">
						<ele>124</ele>
						<time>2024-09-25T15:47:23Z</time>
					</trkpt>
					<trkpt lat="48.475140" lon="1.493740">
						<ele>125</ele>
						<time>2024-09-25T15:47:27Z</time>
					</trkpt>
					<trkpt lat="48.475710" lon="1.493780">
						<ele>127</ele>
						<time>2024-09-25T15:47:37Z</time>
					</trkpt>
					<trkpt lat="48.477750" lon="1.494610">
						<ele>127</ele>
						<time>2024-09-25T15:48:14Z</time>
					</trkpt>
					<trkpt lat="48.478000" lon="1.494760">
						<ele>127</ele>
						<time>2024-09-25T15:48:19Z</time>
					</trkpt>
					<trkpt lat="48.478450" lon="1.495160">
						<ele>126</ele>
						<time>2024-09-25T15:48:28Z</time>
					</trkpt>
					<trkpt lat="48.478950" lon="1.495800">
						<ele>123</ele>
						<time>2024-09-25T15:48:40Z</time>
					</trkpt>
					<trkpt lat="48.479380" lon="1.496670">
						<ele>123</ele>
						<time>2024-09-25T15:48:53Z</time>
					</trkpt>
					<trkpt lat="48.479600" lon="1.497070">
						<ele>122</ele>
						<time>2024-09-25T15:48:59Z</time>
					</trkpt>
					<trkpt lat="48.481000" lon="1.499460">
						<ele>121</ele>
						<time>2024-09-25T15:49:37Z</time>
					</trkpt>
					<trkpt lat="48.481370" lon="1.500160">
						<ele>120</ele>
						<time>2024-09-25T15:49:47Z</time>
					</trkpt>
					<trkpt lat="48.481630" lon="1.500260">
						<ele>120</ele>
						<time>2024-09-25T15:49:52Z</time>
					</trkpt>
					<trkpt lat="48.482530" lon="1.500760">
						<ele>119</ele>
						<time>2024-09-25T15:50:09Z</time>
					</trkpt>
					<trkpt lat="48.483580" lon="1.501410">
						<ele>119</ele>
						<time>2024-09-25T15:50:29Z</time>
					</trkpt>
					<trkpt lat="48.484060" lon="1.501890">
						<ele>120</ele>
						<time>2024-09-25T15:50:39Z</time>
					</trkpt>
					<trkpt lat="48.485700" lon="1.503840">
						<ele>122</ele>
						<time>2024-09-25T15:51:17Z</time>
					</trkpt>
					<trkpt lat="48.487610" lon="1.506380">
						<ele>121</ele>
						<time>2024-09-25T15:52:02Z</time>
					</trkpt>
					<trkpt lat="48.488190" lon="1.507100">
						<ele>122</ele>
						<time>2024-09-25T15:52:15Z</time>
					</trkpt>
					<trkpt lat="48.488350" lon="1.507370">
						<ele>122</ele>
						<time>2024-09-25T15:52:20Z</time>
					</trkpt>
					<trkpt lat="48.488490" lon="1.507750">
						<ele>122</ele>
						<time>2024-09-25T15:52:25Z</time>
					</trkpt>
					<trkpt lat="48.488580" lon="1.508120">
						<ele>122</ele>
						<time>2024-09-25T15:52:29Z</time>
					</trkpt>
					<trkpt lat="48.488590" lon="1.508390">
						<ele>121</ele>
						<time>2024-09-25T15:52:33Z</time>
					</trkpt>
					<trkpt lat="48.488580" lon="1.508750">
						<ele>122</ele>
						<time>2024-09-25T15:52:37Z</time>
					</trkpt>
					<trkpt lat="48.488520" lon="1.509110">
						<ele>122</ele>
						<time>2024-09-25T15:52:41Z</time>
					</trkpt>
					<trkpt lat="48.488440" lon="1.509430">
						<ele>121</ele>
						<time>2024-09-25T15:52:45Z</time>
					</trkpt>
					<trkpt lat="48.488350" lon="1.509690">
						<ele>121</ele>
						<time>2024-09-25T15:52:49Z</time>
					</trkpt>
					<trkpt lat="48.488200" lon="1.510020">
						<ele>122</ele>
						<time>2024-09-25T15:52:53Z</time>
					</trkpt>
					<trkpt lat="48.487940" lon="1.510500">
						<ele>121</ele>
						<time>2024-09-25T15:53:01Z</time>
					</trkpt>
					<trkpt lat="48.487820" lon="1.510820">
						<ele>120</ele>
						<time>2024-09-25T15:53:05Z</time>
					</trkpt>
					<trkpt lat="48.487760" lon="1.511040">
						<ele>120</ele>
						<time>2024-09-25T15:53:08Z</time>
					</trkpt>
					<trkpt lat="48.487690" lon="1.511610">
						<ele>119</ele>
						<time>2024-09-25T15:53:15Z</time>
					</trkpt>
					<trkpt lat="48.487580" lon="1.513630">
						<ele>120</ele>
						<time>2024-09-25T15:53:39Z</time>
					</trkpt>
					<trkpt lat="48.487630" lon="1.514040">
						<ele>121</ele>
						<time>2024-09-25T15:53:43Z</time>
					</trkpt>
					<trkpt lat="48.488140" lon="1.515500">
						<ele>123</ele>
						<time>2024-09-25T15:54:03Z</time>
					</trkpt>
					<trkpt lat="48.488260" lon="1.515950">
						<ele>124</ele>
						<time>2024-09-25T15:54:09Z</time>
					</trkpt>
					<trkpt lat="48.488250" lon="1.516320">
						<ele>125</ele>
						<time>2024-09-25T15:54:13Z</time>
					</trkpt>
					<trkpt lat="48.488180" lon="1.516640">
						<ele>126</ele>
						<time>2024-09-25T15:54:17Z</time>
					</trkpt>
					<trkpt lat="48.488000" lon="1.517780">
						<ele>128</ele>
						<time>2024-09-25T15:54:31Z</time>
					</trkpt>
					<trkpt lat="48.487920" lon="1.518020">
						<ele>128</ele>
						<time>2024-09-25T15:54:34Z</time>
					</trkpt>
					<trkpt lat="48.487550" lon="1.518900">
						<ele>122</ele>
						<time>2024-09-25T15:54:46Z</time>
					</trkpt>
					<trkpt lat="48.487390" lon="1.519320">
						<ele>122</ele>
						<time>2024-09-25T15:54:52Z</time>
					</trkpt>
					<trkpt lat="48.487190" lon="1.520210">
						<ele>124</ele>
						<time>2024-09-25T15:55:03Z</time>
					</trkpt>
					<trkpt lat="48.487070" lon="1.521190">
						<ele>127</ele>
						<time>2024-09-25T15:55:15Z</time>
					</trkpt>
					<trkpt lat="48.486980" lon="1.521660">
						<ele>127</ele>
						<time>2024-09-25T15:55:21Z</time>
					</trkpt>
					<trkpt lat="48.486880" lon="1.522020">
						<ele>126</ele>
						<time>2024-09-25T15:55:25Z</time>
					</trkpt>
					<trkpt lat="48.486700" lon="1.522420">
						<ele>123</ele>
						<time>2024-09-25T15:55:31Z</time>
					</trkpt>
					<trkpt lat="48.486550" lon="1.522830">
						<ele>122</ele>
						<time>2024-09-25T15:55:36Z</time>
					</trkpt>
					<trkpt lat="48.486470" lon="1.523240">
						<ele>122</ele>
						<time>2024-09-25T15:55:41Z</time>
					</trkpt>
					<trkpt lat="48.486460" lon="1.523560">
						<ele>123</ele>
						<time>2024-09-25T15:55:45Z</time>
					</trkpt>
					<trkpt lat="48.486490" lon="1.523880">
						<ele>124</ele>
						<time>2024-09-25T15:55:49Z</time>
					</trkpt>
					<trkpt lat="48.486660" lon="1.524670">
						<ele>123</ele>
						<time>2024-09-25T15:55:59Z</time>
					</trkpt>
					<trkpt lat="48.487060" lon="1.525960">
						<ele>124</ele>
						<time>2024-09-25T15:56:16Z</time>
					</trkpt>
					<trkpt lat="48.487090" lon="1.526190">
						<ele>124</ele>
						<time>2024-09-25T15:56:18Z</time>
					</trkpt>
					<trkpt lat="48.487010" lon="1.526200">
						<ele>123</ele>
						<time>2024-09-25T15:56:20Z</time>
					</trkpt>
					<trkpt lat="48.486970" lon="1.526270">
						<ele>123</ele>
						<time>2024-09-25T15:56:21Z</time>
					</trkpt>
					<trkpt lat="48.486960" lon="1.526360">
						<ele>122</ele>
						<time>2024-09-25T15:56:22Z</time>
					</trkpt>
					<trkpt lat="48.487010" lon="1.526450">
						<ele>123</ele>
						<time>2024-09-25T15:56:23Z</time>
					</trkpt>
					<trkpt lat="48.487080" lon="1.526470">
						<ele>123</ele>
						<time>2024-09-25T15:56:25Z</time>
					</trkpt>
					<trkpt lat="48.487130" lon="1.526440">
						<ele>124</ele>
						<time>2024-09-25T15:56:26Z</time>
					</trkpt>
					<trkpt lat="48.487190" lon="1.526500">
						<ele>124</ele>
						<time>2024-09-25T15:56:27Z</time>
					</trkpt>
					<trkpt lat="48.487500" lon="1.527180">
						<ele>123</ele>
						<time>2024-09-25T15:56:37Z</time>
					</trkpt>
					<trkpt lat="48.487710" lon="1.527600">
						<ele>124</ele>
						<time>2024-09-25T15:56:43Z</time>
					</trkpt>
					<trkpt lat="48.487950" lon="1.527970">
						<ele>124</ele>
						<time>2024-09-25T15:56:49Z</time>
					</trkpt>
					<trkpt lat="48.488650" lon="1.528790">
						<ele>124</ele>
						<time>2024-09-25T15:57:05Z</time>
					</trkpt>
					<trkpt lat="48.488760" lon="1.528880">
						<ele>123</ele>
						<time>2024-09-25T15:57:07Z</time>
					</trkpt>
					<trkpt lat="48.488950" lon="1.528990">
						<ele>123</ele>
						<time>2024-09-25T15:57:11Z</time>
					</trkpt>
					<trkpt lat="48.490980" lon="1.529900">
						<ele>122</ele>
						<time>2024-09-25T15:57:48Z</time>
					</trkpt>
					<trkpt lat="48.491250" lon="1.530010">
						<ele>122</ele>
						<time>2024-09-25T15:57:53Z</time>
					</trkpt>
					<trkpt lat="48.491720" lon="1.530150">
						<ele>123</ele>
						<time>2024-09-25T15:58:02Z</time>
					</trkpt>
					<trkpt lat="48.492380" lon="1.530400">
						<ele>123</ele>
						<time>2024-09-25T15:58:14Z</time>
					</trkpt>
					<trkpt lat="48.493430" lon="1.530860">
						<ele>121</ele>
						<time>2024-09-25T15:58:33Z</time>
					</trkpt>
					<trkpt lat="48.493730" lon="1.531060">
						<ele>121</ele>
						<time>2024-09-25T15:58:39Z</time>
					</trkpt>
					<trkpt lat="48.494560" lon="1.531560">
						<ele>119</ele>
						<time>2024-09-25T15:58:55Z</time>
					</trkpt>
					<trkpt lat="48.495010" lon="1.531770">
						<ele>118</ele>
						<time>2024-09-25T15:59:03Z</time>
					</trkpt>
					<trkpt lat="48.495290" lon="1.531930">
						<ele>118</ele>
						<time>2024-09-25T15:59:09Z</time>
					</trkpt>
					<trkpt lat="48.496130" lon="1.532290">
						<ele>119</ele>
						<time>2024-09-25T15:59:24Z</time>
					</trkpt>
					<trkpt lat="48.496570" lon="1.532700">
						<ele>118</ele>
						<time>2024-09-25T15:59:33Z</time>
					</trkpt>
					<trkpt lat="48.497210" lon="1.533590">
						<ele>118</ele>
						<time>2024-09-25T15:59:49Z</time>
					</trkpt>
					<trkpt lat="48.497440" lon="1.533830">
						<ele>118</ele>
						<time>2024-09-25T15:59:54Z</time>
					</trkpt>
					<trkpt lat="48.497750" lon="1.534040">
						<ele>118</ele>
						<time>2024-09-25T16:00:00Z</time>
					</trkpt>
					<trkpt lat="48.497980" lon="1.534130">
						<ele>117</ele>
						<time>2024-09-25T16:00:04Z</time>
					</trkpt>
					<trkpt lat="48.498580" lon="1.534180">
						<ele>117</ele>
						<time>2024-09-25T16:00:15Z</time>
					</trkpt>
					<trkpt lat="48.498900" lon="1.534240">
						<ele>117</ele>
						<time>2024-09-25T16:00:21Z</time>
					</trkpt>
					<trkpt lat="48.499250" lon="1.534440">
						<ele>118</ele>
						<time>2024-09-25T16:00:27Z</time>
					</trkpt>
					<trkpt lat="48.499890" lon="1.534980">
						<ele>117</ele>
						<time>2024-09-25T16:00:40Z</time>
					</trkpt>
					<trkpt lat="48.500380" lon="1.535600">
						<ele>117</ele>
						<time>2024-09-25T16:00:52Z</time>
					</trkpt>
					<trkpt lat="48.501270" lon="1.536650">
						<ele>115</ele>
						<time>2024-09-25T16:01:12Z</time>
					</trkpt>
					<trkpt lat="48.501690" lon="1.537050">
						<ele>115</ele>
						<time>2024-09-25T16:01:21Z</time>
					</trkpt>
					<trkpt lat="48.502510" lon="1.537640">
						<ele>117</ele>
						<time>2024-09-25T16:01:37Z</time>
					</trkpt>
					<trkpt lat="48.503950" lon="1.538530">
						<ele>114</ele>
						<time>2024-09-25T16:02:05Z</time>
					</trkpt>
					<trkpt lat="48.505660" lon="1.539790">
						<ele>114</ele>
						<time>2024-09-25T16:02:38Z</time>
					</trkpt>
					<trkpt lat="48.506070" lon="1.540200">
						<ele>114</ele>
						<time>2024-09-25T16:02:47Z</time>
					</trkpt>
					<trkpt lat="48.506700" lon="1.540850">
						<ele>113</ele>
						<time>2024-09-25T16:03:01Z</time>
					</trkpt>
					<trkpt lat="48.507190" lon="1.541390">
						<ele>113</ele>
						<time>2024-09-25T16:03:11Z</time>
					</trkpt>
					<trkpt lat="48.507460" lon="1.541730">
						<ele>113</ele>
						<time>2024-09-25T16:03:18Z</time>
					</trkpt>
					<trkpt lat="48.508010" lon="1.542530">
						<ele>113</ele>
						<time>2024-09-25T16:03:31Z</time>
					</trkpt>
					<trkpt lat="48.508670" lon="1.543350">
						<ele>114</ele>
						<time>2024-09-25T16:03:47Z</time>
					</trkpt>
					<trkpt lat="48.508880" lon="1.543660">
						<ele>114</ele>
						<time>2024-09-25T16:03:52Z</time>
					</trkpt>
					<trkpt lat="48.509170" lon="1.544220">
						<ele>113</ele>
						<time>2024-09-25T16:04:00Z</time>
					</trkpt>
					<trkpt lat="48.509380" lon="1.544520">
						<ele>114</ele>
						<time>2024-09-25T16:04:05Z</time>
					</trkpt>
					<trkpt lat="48.509980" lon="1.545100">
						<ele>115</ele>
						<time>2024-09-25T16:04:18Z</time>
					</trkpt>
					<trkpt lat="48.510890" lon="1.546110">
						<ele>116</ele>
						<time>2024-09-25T16:04:38Z</time>
					</trkpt>
					<trkpt lat="48.511720" lon="1.546880">
						<ele>115</ele>
						<time>2024-09-25T16:04:55Z</time>
					</trkpt>
					<trkpt lat="48.511960" lon="1.547130">
						<ele>115</ele>
						<time>2024-09-25T16:05:01Z</time>
					</trkpt>
					<trkpt lat="48.512510" lon="1.547870">
						<ele>114</ele>
						<time>2024-09-25T16:05:14Z</time>
					</trkpt>
					<trkpt lat="48.512870" lon="1.548320">
						<ele>114</ele>
						<time>2024-09-25T16:05:22Z</time>
					</trkpt>
					<trkpt lat="48.513080" lon="1.548890">
						<ele>114</ele>
						<time>2024-09-25T16:05:30Z</time>
					</trkpt>
					<trkpt lat="48.513210" lon="1.549100">
						<ele>113</ele>
						<time>2024-09-25T16:05:33Z</time>
					</trkpt>
					<trkpt lat="48.513410" lon="1.549320">
						<ele>114</ele>
						<time>2024-09-25T16:05:38Z</time>
					</trkpt>
					<trkpt lat="48.514110" lon="1.549850">
						<ele>117</ele>
						<time>2024-09-25T16:05:51Z</time>
					</trkpt>
					<trkpt lat="48.515690" lon="1.551140">
						<ele>123</ele>
						<time>2024-09-25T16:06:23Z</time>
					</trkpt>
					<trkpt lat="48.516360" lon="1.551580">
						<ele>124</ele>
						<time>2024-09-25T16:06:36Z</time>
					</trkpt>
					<trkpt lat="48.516630" lon="1.551870">
						<ele>125</ele>
						<time>2024-09-25T16:06:42Z</time>
					</trkpt>
					<trkpt lat="48.516860" lon="1.552260">
						<ele>123</ele>
						<time>2024-09-25T16:06:48Z</time>
					</trkpt>
					<trkpt lat="48.516910" lon="1.552400">
						<ele>122</ele>
						<time>2024-09-25T16:06:50Z</time>
					</trkpt>
					<trkpt lat="48.517060" lon="1.552700">
						<ele>121</ele>
						<time>2024-09-25T16:06:55Z</time>
					</trkpt>
					<trkpt lat="48.517750" lon="1.553750">
						<ele>120</ele>
						<time>2024-09-25T16:07:12Z</time>
					</trkpt>
					<trkpt lat="48.517950" lon="1.554180">
						<ele>120</ele>
						<time>2024-09-25T16:07:18Z</time>
					</trkpt>
					<trkpt lat="48.518110" lon="1.554650">
						<ele>118</ele>
						<time>2024-09-25T16:07:25Z</time>
					</trkpt>
					<trkpt lat="48.518320" lon="1.555580">
						<ele>116</ele>
						<time>2024-09-25T16:07:36Z</time>
					</trkpt>
					<trkpt lat="48.518520" lon="1.556380">
						<ele>116</ele>
						<time>2024-09-25T16:07:46Z</time>
					</trkpt>
					<trkpt lat="48.518740" lon="1.556840">
						<ele>116</ele>
						<time>2024-09-25T16:07:53Z</time>
					</trkpt>
					<trkpt lat="48.518890" lon="1.557060">
						<ele>117</ele>
						<time>2024-09-25T16:07:57Z</time>
					</trkpt>
					<trkpt lat="48.519320" lon="1.557510">
						<ele>118</ele>
						<time>2024-09-25T16:08:06Z</time>
					</trkpt>
					<trkpt lat="48.520290" lon="1.558450">
						<ele>118</ele>
						<time>2024-09-25T16:08:26Z</time>
					</trkpt>
					<trkpt lat="48.521730" lon="1.560190">
						<ele>117</ele>
						<time>2024-09-25T16:08:59Z</time>
					</trkpt>
					<trkpt lat="48.522900" lon="1.562160">
						<ele>115</ele>
						<time>2024-09-25T16:09:30Z</time>
					</trkpt>
					<trkpt lat="48.523890" lon="1.563410">
						<ele>112</ele>
						<time>2024-09-25T16:09:53Z</time>
					</trkpt>
					<trkpt lat="48.524880" lon="1.564830">
						<ele>110</ele>
						<time>2024-09-25T16:10:18Z</time>
					</trkpt>
					<trkpt lat="48.526140" lon="1.566270">
						<ele>109</ele>
						<time>2024-09-25T16:10:46Z</time>
					</trkpt>
					<trkpt lat="48.528030" lon="1.568930">
						<ele>109</ele>
						<time>2024-09-25T16:11:32Z</time>
					</trkpt>
					<trkpt lat="48.528220" lon="1.569170">
						<ele>110</ele>
						<time>2024-09-25T16:11:36Z</time>
					</trkpt>
					<trkpt lat="48.529100" lon="1.570490">
						<ele>109</ele>
						<time>2024-09-25T16:11:58Z</time>
					</trkpt>
					<trkpt lat="48.530400" lon="1.572300">
						<ele>108</ele>
						<time>2024-09-25T16:12:30Z</time>
					</trkpt>
					<trkpt lat="48.530890" lon="1.572720">
						<ele>107</ele>
						<time>2024-09-25T16:12:40Z</time>
					</trkpt>
					<trkpt lat="48.531690" lon="1.573160">
						<ele>111</ele>
						<time>2024-09-25T16:12:55Z</time>
					</trkpt>
					<trkpt lat="48.532490" lon="1.573560">
						<ele>115</ele>
						<time>2024-09-25T16:13:10Z</time>
					</trkpt>
					<trkpt lat="48.533110" lon="1.573960">
						<ele>116</ele>
						<time>2024-09-25T16:13:22Z</time>
					</trkpt>
					<trkpt lat="48.533440" lon="1.574230">
						<ele>115</ele>
						<time>2024-09-25T16:13:29Z</time>
					</trkpt>
					<trkpt lat="48.533880" lon="1.574460">
						<ele>117</ele>
						<time>2024-09-25T16:13:37Z</time>
					</trkpt>
					<trkpt lat="48.534480" lon="1.575110">
						<ele>116</ele>
						<time>2024-09-25T16:13:50Z</time>
					</trkpt>
					<trkpt lat="48.535230" lon="1.576020">
						<ele>116</ele>
						<time>2024-09-25T16:14:07Z</time>
					</trkpt>
					<trkpt lat="48.536270" lon="1.577020">
						<ele>120</ele>
						<time>2024-09-25T16:14:29Z</time>
					</trkpt>
					<trkpt lat="48.536690" lon="1.577760">
						<ele>116</ele>
						<time>2024-09-25T16:14:41Z</time>
					</trkpt>
					<trkpt lat="48.537640" lon="1.578700">
						<ele>114</ele>
						<time>2024-09-25T16:15:01Z</time>
					</trkpt>
					<trkpt lat="48.538360" lon="1.579450">
						<ele>112</ele>
						<time>2024-09-25T16:15:16Z</time>
					</trkpt>
					<trkpt lat="48.539210" lon="1.580060">
						<ele>111</ele>
						<time>2024-09-25T16:15:33Z</time>
					</trkpt>
					<trkpt lat="48.540130" lon="1.580580">
						<ele>110</ele>
						<time>2024-09-25T16:15:51Z</time>
					</trkpt>
					<trkpt lat="48.540530" lon="1.580770">
						<ele>110</ele>
						<time>2024-09-25T16:15:58Z</time>
					</trkpt>
					<trkpt lat="48.541940" lon="1.581260">
						<ele>114</ele>
						<time>2024-09-25T16:16:24Z</time>
					</trkpt>
					<trkpt lat="48.542560" lon="1.581690">
						<ele>113</ele>
						<time>2024-09-25T16:16:36Z</time>
					</trkpt>
					<trkpt lat="48.543140" lon="1.582000">
						<ele>113</ele>
						<time>2024-09-25T16:16:47Z</time>
					</trkpt>
					<trkpt lat="48.543590" lon="1.582090">
						<ele>114</ele>
						<time>2024-09-25T16:16:55Z</time>
					</trkpt>
					<trkpt lat="48.545000" lon="1.582200">
						<ele>112</ele>
						<time>2024-09-25T16:17:20Z</time>
					</trkpt>
					<trkpt lat="48.545630" lon="1.582230">
						<ele>110</ele>
						<time>2024-09-25T16:17:31Z</time>
					</trkpt>
					<trkpt lat="48.546990" lon="1.583500">
						<ele>108</ele>
						<time>2024-09-25T16:18:00Z</time>
					</trkpt>
					<trkpt lat="48.547330" lon="1.583580">
						<ele>109</ele>
						<time>2024-09-25T16:18:06Z</time>
					</trkpt>
					<trkpt lat="48.547550" lon="1.583550">
						<ele>110</ele>
						<time>2024-09-25T16:18:10Z</time>
					</trkpt>
					<trkpt lat="48.547790" lon="1.583620">
						<ele>109</ele>
						<time>2024-09-25T16:18:14Z</time>
					</trkpt>
					<trkpt lat="48.547930" lon="1.583670">
						<ele>109</ele>
						<time>2024-09-25T16:18:17Z</time>
					</trkpt>
					<trkpt lat="48.548490" lon="1.584050">
						<ele>109</ele>
						<time>2024-09-25T16:18:28Z</time>
					</trkpt>
					<trkpt lat="48.548660" lon="1.584080">
						<ele>109</ele>
						<time>2024-09-25T16:18:31Z</time>
					</trkpt>
					<trkpt lat="48.549320" lon="1.583870">
						<ele>110</ele>
						<time>2024-09-25T16:18:43Z</time>
					</trkpt>
					<trkpt lat="48.549910" lon="1.583600">
						<ele>107</ele>
						<time>2024-09-25T16:18:54Z</time>
					</trkpt>
					<trkpt lat="48.550220" lon="1.583370">
						<ele>106</ele>
						<time>2024-09-25T16:19:00Z</time>
					</trkpt>
					<trkpt lat="48.550360" lon="1.583170">
						<ele>107</ele>
						<time>2024-09-25T16:19:03Z</time>
					</trkpt>
					<trkpt lat="48.550470" lon="1.582950">
						<ele>107</ele>
						<time>2024-09-25T16:19:06Z</time>
					</trkpt>
					<trkpt lat="48.550840" lon="1.581880">
						<ele>108</ele>
						<time>2024-09-25T16:19:21Z</time>
					</trkpt>
					<trkpt lat="48.551030" lon="1.581590">
						<ele>110</ele>
						<time>2024-09-25T16:19:25Z</time>
					</trkpt>
					<trkpt lat="48.551320" lon="1.581250">
						<ele>113</ele>
						<time>2024-09-25T16:19:32Z</time>
					</trkpt>
					<trkpt lat="48.551500" lon="1.581090">
						<ele>115</ele>
						<time>2024-09-25T16:19:36Z</time>
					</trkpt>
					<trkpt lat="48.551690" lon="1.580960">
						<ele>115</ele>
						<time>2024-09-25T16:19:39Z</time>
					</trkpt>
					<trkpt lat="48.552290" lon="1.580800">
						<ele>114</ele>
						<time>2024-09-25T16:19:50Z</time>
					</trkpt>
					<trkpt lat="48.552690" lon="1.580740">
						<ele>114</ele>
						<time>2024-09-25T16:19:57Z</time>
					</trkpt>
					<trkpt lat="48.553050" lon="1.580730">
						<ele>115</ele>
						<time>2024-09-25T16:20:04Z</time>
					</trkpt>
					<trkpt lat="48.553780" lon="1.580760">
						<ele>115</ele>
						<time>2024-09-25T16:20:17Z</time>
					</trkpt>
					<trkpt lat="48.554620" lon="1.580690">
						<ele>117</ele>
						<time>2024-09-25T16:20:32Z</time>
					</trkpt>
					<trkpt lat="48.555150" lon="1.580740">
						<ele>116</ele>
						<time>2024-09-25T16:20:41Z</time>
					</trkpt>
					<trkpt lat="48.555620" lon="1.580870">
						<ele>117</ele>
						<time>2024-09-25T16:20:50Z</time>
					</trkpt>
					<trkpt lat="48.555910" lon="1.580990">
						<ele>118</ele>
						<time>2024-09-25T16:20:55Z</time>
					</trkpt>
					<trkpt lat="48.557360" lon="1.581670">
						<ele>112</ele>
						<time>2024-09-25T16:21:22Z</time>
					</trkpt>
					<trkpt lat="48.557720" lon="1.581820">
						<ele>113</ele>
						<time>2024-09-25T16:21:29Z</time>
					</trkpt>
					<trkpt lat="48.558100" lon="1.581950">
						<ele>115</ele>
						<time>2024-09-25T16:21:36Z</time>
					</trkpt>
					<trkpt lat="48.558740" lon="1.582110">
						<ele>116</ele>
						<time>2024-09-25T16:21:47Z</time>
					</trkpt>
					<trkpt lat="48.559270" lon="1.582110">
						<ele>117</ele>
						<time>2024-09-25T16:21:57Z</time>
					</trkpt>
					<trkpt lat="48.560870" lon="1.582040">
						<ele>118</ele>
						<time>2024-09-25T16:22:25Z</time>
					</trkpt>
					<trkpt lat="48.561460" lon="1.582180">
						<ele>118</ele>
						<time>2024-09-25T16:22:36Z</time>
					</trkpt>
					<trkpt lat="48.562430" lon="1.582340">
						<ele>114</ele>
						<time>2024-09-25T16:22:53Z</time>
					</trkpt>
					<trkpt lat="48.563040" lon="1.582770">
						<ele>111</ele>
						<time>2024-09-25T16:23:05Z</time>
					</trkpt>
					<trkpt lat="48.563570" lon="1.583200">
						<ele>107</ele>
						<time>2024-09-25T16:23:16Z</time>
					</trkpt>
					<trkpt lat="48.563840" lon="1.583660">
						<ele>106</ele>
						<time>2024-09-25T16:23:23Z</time>
					</trkpt>
					<trkpt lat="48.563950" lon="1.583910">
						<ele>105</ele>
						<time>2024-09-25T16:23:27Z</time>
					</trkpt>
					<trkpt lat="48.564080" lon="1.584120">
						<ele>105</ele>
						<time>2024-09-25T16:23:30Z</time>
					</trkpt>
					<trkpt lat="48.564200" lon="1.584250">
						<ele>105</ele>
						<time>2024-09-25T16:23:33Z</time>
					</trkpt>
					<trkpt lat="48.565170" lon="1.584270">
						<ele>106</ele>
						<time>2024-09-25T16:23:50Z</time>
					</trkpt>
					<trkpt lat="48.565880" lon="1.584240">
						<ele>106</ele>
						<time>2024-09-25T16:24:02Z</time>
					</trkpt>
					<trkpt lat="48.566470" lon="1.584110">
						<ele>105</ele>
						<time>2024-09-25T16:24:13Z</time>
					</trkpt>
					<trkpt lat="48.567050" lon="1.583920">
						<ele>104</ele>
						<time>2024-09-25T16:24:24Z</time>
					</trkpt>
					<trkpt lat="48.567330" lon="1.583820">
						<ele>103</ele>
						<time>2024-09-25T16:24:29Z</time>
					</trkpt>
					<trkpt lat="48.567720" lon="1.583600">
						<ele>103</ele>
						<time>2024-09-25T16:24:36Z</time>
					</trkpt>
					<trkpt lat="48.568410" lon="1.582910">
						<ele>102</ele>
						<time>2024-09-25T16:24:51Z</time>
					</trkpt>
					<trkpt lat="48.568720" lon="1.582530">
						<ele>101</ele>
						<time>2024-09-25T16:24:58Z</time>
					</trkpt>
					<trkpt lat="48.569070" lon="1.581960">
						<ele>103</ele>
						<time>2024-09-25T16:25:07Z</time>
					</trkpt>
					<trkpt lat="48.569410" lon="1.581450">
						<ele>108</ele>
						<time>2024-09-25T16:25:16Z</time>
					</trkpt>
					<trkpt lat="48.569700" lon="1.581130">
						<ele>113</ele>
						<time>2024-09-25T16:25:22Z</time>
					</trkpt>
					<trkpt lat="48.570410" lon="1.580790">
						<ele>112</ele>
						<time>2024-09-25T16:25:35Z</time>
					</trkpt>
					<trkpt lat="48.570910" lon="1.580580">
						<ele>108</ele>
						<time>2024-09-25T16:25:45Z</time>
					</trkpt>
					<trkpt lat="48.571430" lon="1.580460">
						<ele>110</ele>
						<time>2024-09-25T16:25:54Z</time>
					</trkpt>
					<trkpt lat="48.573390" lon="1.580110">
						<ele>116</ele>
						<time>2024-09-25T16:26:29Z</time>
					</trkpt>
					<trkpt lat="48.574740" lon="1.580040">
						<ele>116</ele>
						<time>2024-09-25T16:26:53Z</time>
					</trkpt>
					<trkpt lat="48.577120" lon="1.579820">
						<ele>116</ele>
						<time>2024-09-25T16:27:36Z</time>
					</trkpt>
					<trkpt lat="48.579500" lon="1.579650">
						<ele>116</ele>
						<time>2024-09-25T16:28:18Z</time>
					</trkpt>
					<trkpt lat="48.580310" lon="1.579330">
						<ele>124</ele>
						<time>2024-09-25T16:28:33Z</time>
					</trkpt>
					<trkpt lat="48.582340" lon="1.578910">
						<ele>117</ele>
						<time>2024-09-25T16:29:09Z</time>
					</trkpt>
					<trkpt lat="48.582960" lon="1.578630">
						<ele>116</ele>
						<time>2024-09-25T16:29:21Z</time>
					</trkpt>
					<trkpt lat="48.583150" lon="1.578540">
						<ele>114</ele>
						<time>2024-09-25T16:29:24Z</time>
					</trkpt>
					<trkpt lat="48.583620" lon="1.578260">
						<ele>114</ele>
						<time>2024-09-25T16:29:33Z</time>
					</trkpt>
					<trkpt lat="48.583780" lon="1.578030">
						<ele>114</ele>
						<time>2024-09-25T16:29:37Z</time>
					</trkpt>
					<trkpt lat="48.584000" lon="1.577330">
						<ele>115</ele>
						<time>2024-09-25T16:29:46Z</time>
					</trkpt>
					<trkpt lat="48.584140" lon="1.576940">
						<ele>115</ele>
						<time>2024-09-25T16:29:52Z</time>
					</trkpt>
					<trkpt lat="48.584300" lon="1.576320">
						<ele>112</ele>
						<time>2024-09-25T16:29:59Z</time>
					</trkpt>
					<trkpt lat="48.584460" lon="1.575810">
						<ele>109</ele>
						<time>2024-09-25T16:30:06Z</time>
					</trkpt>
					<trkpt lat="48.585160" lon="1.576500">
						<ele>107</ele>
						<time>2024-09-25T16:30:21Z</time>
					</trkpt>
					<trkpt lat="48.585810" lon="1.577340">
						<ele>104</ele>
						<time>2024-09-25T16:30:36Z</time>
					</trkpt>
					<trkpt lat="48.586250" lon="1.577580">
						<ele>104</ele>
						<time>2024-09-25T16:30:44Z</time>
					</trkpt>
					<trkpt lat="48.586400" lon="1.577640">
						<ele>103</ele>
						<time>2024-09-25T16:30:47Z</time>
					</trkpt>
					<trkpt lat="48.586630" lon="1.577680">
						<ele>103</ele>
						<time>2024-09-25T16:30:51Z</time>
					</trkpt>
					<trkpt lat="48.586750" lon="1.577810">
						<ele>103</ele>
						<time>2024-09-25T16:30:54Z</time>
					</trkpt>
					<trkpt lat="48.587030" lon="1.578050">
						<ele>103</ele>
						<time>2024-09-25T16:31:00Z</time>
					</trkpt>
					<trkpt lat="48.587090" lon="1.578080">
						<ele>103</ele>
						<time>2024-09-25T16:31:01Z</time>
					</trkpt>
					<trkpt lat="48.587990" lon="1.577900">
						<ele>103</ele>
						<time>2024-09-25T16:31:17Z</time>
					</trkpt>
					<trkpt lat="48.588670" lon="1.577790">
						<ele>103</ele>
						<time>2024-09-25T16:31:29Z</time>
					</trkpt>
					<trkpt lat="48.588850" lon="1.577850">
						<ele>103</ele>
						<time>2024-09-25T16:31:32Z</time>
					</trkpt>
					<trkpt lat="48.589030" lon="1.578000">
						<ele>103</ele>
						<time>2024-09-25T16:31:36Z</time>
					</trkpt>
					<trkpt lat="48.589190" lon="1.578240">
						<ele>103</ele>
						<time>2024-09-25T16:31:40Z</time>
					</trkpt>
					<trkpt lat="48.589400" lon="1.578990">
						<ele>102</ele>
						<time>2024-09-25T16:31:50Z</time>
					</trkpt>
					<trkpt lat="48.589570" lon="1.579770">
						<ele>102</ele>
						<time>2024-09-25T16:31:59Z</time>
					</trkpt>
					<trkpt lat="48.590210" lon="1.583220">
						<ele>109</ele>
						<time>2024-09-25T16:32:41Z</time>
					</trkpt>
					<trkpt lat="48.590320" lon="1.583610">
						<ele>112</ele>
						<time>2024-09-25T16:32:46Z</time>
					</trkpt>
					<trkpt lat="48.590520" lon="1.584010">
						<ele>116</ele>
						<time>2024-09-25T16:32:52Z</time>
					</trkpt>
					<trkpt lat="48.590650" lon="1.584190">
						<ele>118</ele>
						<time>2024-09-25T16:32:56Z</time>
					</trkpt>
					<trkpt lat="48.590840" lon="1.584380">
						<ele>122</ele>
						<time>2024-09-25T16:33:00Z</time>
					</trkpt>
					<trkpt lat="48.591080" lon="1.584520">
						<ele>124</ele>
						<time>2024-09-25T16:33:04Z</time>
					</trkpt>
					<trkpt lat="48.593060" lon="1.585440">
						<ele>130</ele>
						<time>2024-09-25T16:33:41Z</time>
					</trkpt>
					<trkpt lat="48.593140" lon="1.585510">
						<ele>130</ele>
						<time>2024-09-25T16:33:43Z</time>
					</trkpt>
					<trkpt lat="48.593510" lon="1.585930">
						<ele>130</ele>
						<time>2024-09-25T16:33:51Z</time>
					</trkpt>
					<trkpt lat="48.595080" lon="1.588420">
						<ele>136</ele>
						<time>2024-09-25T16:34:31Z</time>
					</trkpt>
					<trkpt lat="48.595110" lon="1.588670">
						<ele>136</ele>
						<time>2024-09-25T16:34:34Z</time>
					</trkpt>
					<trkpt lat="48.595100" lon="1.588770">
						<ele>136</ele>
						<time>2024-09-25T16:34:36Z</time>
					</trkpt>
					<trkpt lat="48.595140" lon="1.588900">
						<ele>136</ele>
						<time>2024-09-25T16:34:37Z</time>
					</trkpt>
					<trkpt lat="48.595200" lon="1.588950">
						<ele>135</ele>
						<time>2024-09-25T16:34:38Z</time>
					</trkpt>
					<trkpt lat="48.595290" lon="1.588920">
						<ele>135</ele>
						<time>2024-09-25T16:34:40Z</time>
					</trkpt>
					<trkpt lat="48.595490" lon="1.588990">
						<ele>135</ele>
						<time>2024-09-25T16:34:44Z</time>
					</trkpt>
					<trkpt lat="48.595930" lon="1.589520">
						<ele>134</ele>
						<time>2024-09-25T16:34:54Z</time>
					</trkpt>
					<trkpt lat="48.596500" lon="1.590130">
						<ele>133</ele>
						<time>2024-09-25T16:35:06Z</time>
					</trkpt>
					<trkpt lat="48.596680" lon="1.590410">
						<ele>134</ele>
						<time>2024-09-25T16:35:11Z</time>
					</trkpt>
					<trkpt lat="48.598720" lon="1.594370">
						<ele>133</ele>
						<time>2024-09-25T16:36:10Z</time>
					</trkpt>
					<trkpt lat="48.599700" lon="1.595990">
						<ele>133</ele>
						<time>2024-09-25T16:36:36Z</time>
					</trkpt>
					<trkpt lat="48.600250" lon="1.597020">
						<ele>134</ele>
						<time>2024-09-25T16:36:51Z</time>
					</trkpt>
					<trkpt lat="48.600640" lon="1.597620">
						<ele>135</ele>
						<time>2024-09-25T16:37:01Z</time>
					</trkpt>
					<trkpt lat="48.601480" lon="1.598540">
						<ele>133</ele>
						<time>2024-09-25T16:37:20Z</time>
					</trkpt>
					<trkpt lat="48.603240" lon="1.600280">
						<ele>131</ele>
						<time>2024-09-25T16:37:57Z</time>
					</trkpt>
					<trkpt lat="48.604460" lon="1.601690">
						<ele>131</ele>
						<time>2024-09-25T16:38:24Z</time>
					</trkpt>
					<trkpt lat="48.605240" lon="1.602440">
						<ele>130</ele>
						<time>2024-09-25T16:38:41Z</time>
					</trkpt>
					<trkpt lat="48.605650" lon="1.602910">
						<ele>130</ele>
						<time>2024-09-25T16:38:50Z</time>
					</trkpt>
					<trkpt lat="48.606070" lon="1.603450">
						<ele>131</ele>
						<time>2024-09-25T16:39:00Z</time>
					</trkpt>
					<trkpt lat="48.606690" lon="1.604370">
						<ele>130</ele>
						<time>2024-09-25T16:39:15Z</time>
					</trkpt>
					<trkpt lat="48.606850" lon="1.604680">
						<ele>130</ele>
						<time>2024-09-25T16:39:20Z</time>
					</trkpt>
					<trkpt lat="48.606970" lon="1.604980">
						<ele>130</ele>
						<time>2024-09-25T16:39:24Z</time>
					</trkpt>
					<trkpt lat="48.607310" lon="1.606190">
						<ele>128</ele>
						<time>2024-09-25T16:39:39Z</time>
					</trkpt>
					<trkpt lat="48.607430" lon="1.606490">
						<ele>128</ele>
						<time>2024-09-25T16:39:44Z</time>
					</trkpt>
					<trkpt lat="48.607770" lon="1.607120">
						<ele>127</ele>
						<time>2024-09-25T16:39:53Z</time>
					</trkpt>
					<trkpt lat="48.607990" lon="1.607480">
						<ele>128</ele>
						<time>2024-09-25T16:39:59Z</time>
					</trkpt>
					<trkpt lat="48.608190" lon="1.607730">
						<ele>128</ele>
						<time>2024-09-25T16:40:04Z</time>
					</trkpt>
					<trkpt lat="48.608540" lon="1.608080">
						<ele>128</ele>
						<time>2024-09-25T16:40:11Z</time>
					</trkpt>
					<trkpt lat="48.608730" lon="1.608210">
						<ele>128</ele>
						<time>2024-09-25T16:40:15Z</time>
					</trkpt>
					<trkpt lat="48.608890" lon="1.608280">
						<ele>127</ele>
						<time>2024-09-25T16:40:18Z</time>
					</trkpt>
					<trkpt lat="48.609950" lon="1.608570">
						<ele>124</ele>
						<time>2024-09-25T16:40:37Z</time>
					</trkpt>
					<trkpt lat="48.610140" lon="1.608570">
						<ele>123</ele>
						<time>2024-09-25T16:40:40Z</time>
					</trkpt>
					<trkpt lat="48.610530" lon="1.608450">
						<ele>122</ele>
						<time>2024-09-25T16:40:47Z</time>
					</trkpt>
					<trkpt lat="48.610700" lon="1.608420">
						<ele>121</ele>
						<time>2024-09-25T16:40:50Z</time>
					</trkpt>
					<trkpt lat="48.611050" lon="1.608510">
						<ele>119</ele>
						<time>2024-09-25T16:40:57Z</time>
					</trkpt>
					<trkpt lat="48.612000" lon="1.608930">
						<ele>112</ele>
						<time>2024-09-25T16:41:14Z</time>
					</trkpt>
					<trkpt lat="48.612050" lon="1.608890">
						<ele>112</ele>
						<time>2024-09-25T16:41:15Z</time>
					</trkpt>
					<trkpt lat="48.612090" lon="1.608960">
						<ele>112</ele>
						<time>2024-09-25T16:41:16Z</time>
					</trkpt>
					<trkpt lat="48.612220" lon="1.609080">
						<ele>112</ele>
						<time>2024-09-25T16:41:19Z</time>
					</trkpt>
					<trkpt lat="48.612510" lon="1.609220">
						<ele>111</ele>
						<time>2024-09-25T16:41:24Z</time>
					</trkpt>
					<trkpt lat="48.612750" lon="1.609370">
						<ele>109</ele>
						<time>2024-09-25T16:41:29Z</time>
					</trkpt>
					<trkpt lat="48.613240" lon="1.609590">
						<ele>106</ele>
						<time>2024-09-25T16:41:38Z</time>
					</trkpt>
					<trkpt lat="48.613840" lon="1.609770">
						<ele>106</ele>
						<time>2024-09-25T16:41:49Z</time>
					</trkpt>
					<trkpt lat="48.613990" lon="1.609880">
						<ele>107</ele>
						<time>2024-09-25T16:41:52Z</time>
					</trkpt>
					<trkpt lat="48.614090" lon="1.610010">
						<ele>107</ele>
						<time>2024-09-25T16:41:54Z</time>
					</trkpt>
					<trkpt lat="48.614320" lon="1.610680">
						<ele>110</ele>
						<time>2024-09-25T16:42:03Z</time>
					</trkpt>
					<trkpt lat="48.614300" lon="1.611360">
						<ele>111</ele>
						<time>2024-09-25T16:42:11Z</time>
					</trkpt>
					<trkpt lat="48.614310" lon="1.611580">
						<ele>111</ele>
						<time>2024-09-25T16:42:14Z</time>
					</trkpt>
					<trkpt lat="48.614650" lon="1.613280">
						<ele>113</ele>
						<time>2024-09-25T16:42:35Z</time>
					</trkpt>
					<trkpt lat="48.614740" lon="1.613610">
						<ele>112</ele>
						<time>2024-09-25T16:42:39Z</time>
					</trkpt>
					<trkpt lat="48.614920" lon="1.614070">
						<ele>111</ele>
						<time>2024-09-25T16:42:45Z</time>
					</trkpt>
					<trkpt lat="48.615320" lon="1.615000">
						<ele>109</ele>
						<time>2024-09-25T16:42:58Z</time>
					</trkpt>
					<trkpt lat="48.615440" lon="1.615140">
						<ele>109</ele>
						<time>2024-09-25T16:43:01Z</time>
					</trkpt>
					<trkpt lat="48.615820" lon="1.615320">
						<ele>110</ele>
						<time>2024-09-25T16:43:08Z</time>
					</trkpt>
					<trkpt lat="48.615940" lon="1.615420">
						<ele>111</ele>
						<time>2024-09-25T16:43:11Z</time>
					</trkpt>
					<trkpt lat="48.616920" lon="1.616360">
						<ele>111</ele>
						<time>2024-09-25T16:43:31Z</time>
					</trkpt>
					<trkpt lat="48.617070" lon="1.616550">
						<ele>110</ele>
						<time>2024-09-25T16:43:35Z</time>
					</trkpt>
					<trkpt lat="48.617510" lon="1.617330">
						<ele>108</ele>
						<time>2024-09-25T16:43:47Z</time>
					</trkpt>
					<trkpt lat="48.617630" lon="1.617630">
						<ele>108</ele>
						<time>2024-09-25T16:43:51Z</time>
					</trkpt>
					<trkpt lat="48.617710" lon="1.617990">
						<ele>108</ele>
						<time>2024-09-25T16:43:55Z</time>
					</trkpt>
					<trkpt lat="48.617830" lon="1.620010">
						<ele>109</ele>
						<time>2024-09-25T16:44:19Z</time>
					</trkpt>
					<trkpt lat="48.617940" lon="1.620590">
						<ele>110</ele>
						<time>2024-09-25T16:44:26Z</time>
					</trkpt>
					<trkpt lat="48.618090" lon="1.621200">
						<ele>110</ele>
						<time>2024-09-25T16:44:34Z</time>
					</trkpt>
					<trkpt lat="48.618230" lon="1.621180">
						<ele>111</ele>
						<time>2024-09-25T16:44:36Z</time>
					</trkpt>
					<trkpt lat="48.618310" lon="1.621140">
						<ele>112</ele>
						<time>2024-09-25T16:44:38Z</time>
					</trkpt>
					<trkpt lat="48.618410" lon="1.621050">
						<ele>112</ele>
						<time>2024-09-25T16:44:40Z</time>
					</trkpt>
					<trkpt lat="48.618460" lon="1.620900">
						<ele>113</ele>
						<time>2024-09-25T16:44:42Z</time>
					</trkpt>
					<trkpt lat="48.618500" lon="1.620330">
						<ele>113</ele>
						<time>2024-09-25T16:44:49Z</time>
					</trkpt>
					<trkpt lat="48.618580" lon="1.620020">
						<ele>114</ele>
						<time>2024-09-25T16:44:53Z</time>
					</trkpt>
					<trkpt lat="48.618760" lon="1.619670">
						<ele>116</ele>
						<time>2024-09-25T16:44:58Z</time>
					</trkpt>
					<trkpt lat="48.619110" lon="1.619190">
						<ele>119</ele>
						<time>2024-09-25T16:45:06Z</time>
					</trkpt>
					<trkpt lat="48.619700" lon="1.618440">
						<ele>123</ele>
						<time>2024-09-25T16:45:20Z</time>
					</trkpt>
					<trkpt lat="48.619770" lon="1.618410">
						<ele>124</ele>
						<time>2024-09-25T16:45:21Z</time>
					</trkpt>
					<trkpt lat="48.619830" lon="1.618430">
						<ele>124</ele>
						<time>2024-09-25T16:45:22Z</time>
					</trkpt>
					<trkpt lat="48.620820" lon="1.619800">
						<ele>130</ele>
						<time>2024-09-25T16:45:46Z</time>
					</trkpt>
					<trkpt lat="48.621650" lon="1.620880">
						<ele>134</ele>
						<time>2024-09-25T16:46:06Z</time>
					</trkpt>
					<trkpt lat="48.621950" lon="1.621180">
						<ele>134</ele>
						<time>2024-09-25T16:46:12Z</time>
					</trkpt>
					<trkpt lat="48.622200" lon="1.621370">
						<ele>135</ele>
						<time>2024-09-25T16:46:17Z</time>
					</trkpt>
					<trkpt lat="48.622730" lon="1.621700">
						<ele>135</ele>
						<time>2024-09-25T16:46:27Z</time>
					</trkpt>
					<trkpt lat="48.624010" lon="1.622200">
						<ele>135</ele>
						<time>2024-09-25T16:46:51Z</time>
					</trkpt>
					<trkpt lat="48.624290" lon="1.622330">
						<ele>135</ele>
						<time>2024-09-25T16:46:56Z</time>
					</trkpt>
					<trkpt lat="48.624430" lon="1.622430">
						<ele>135</ele>
						<time>2024-09-25T16:46:59Z</time>
					</trkpt>
					<trkpt lat="48.625130" lon="1.623080">
						<ele>137</ele>
						<time>2024-09-25T16:47:13Z</time>
					</trkpt>
					<trkpt lat="48.625980" lon="1.623930">
						<ele>144</ele>
						<time>2024-09-25T16:47:31Z</time>
					</trkpt>
					<trkpt lat="48.626360" lon="1.624250">
						<ele>147</ele>
						<time>2024-09-25T16:47:39Z</time>
					</trkpt>
					<trkpt lat="48.627620" lon="1.625040">
						<ele>152</ele>
						<time>2024-09-25T16:48:03Z</time>
					</trkpt>
					<trkpt lat="48.628050" lon="1.625260">
						<ele>151</ele>
						<time>2024-09-25T16:48:12Z</time>
					</trkpt>
					<trkpt lat="48.628410" lon="1.625350">
						<ele>150</ele>
						<time>2024-09-25T16:48:18Z</time>
					</trkpt>
					<trkpt lat="48.628520" lon="1.625360">
						<ele>150</ele>
						<time>2024-09-25T16:48:20Z</time>
					</trkpt>
					<trkpt lat="48.628660" lon="1.625310">
						<ele>150</ele>
						<time>2024-09-25T16:48:23Z</time>
					</trkpt>
					<trkpt lat="48.628860" lon="1.625160">
						<ele>149</ele>
						<time>2024-09-25T16:48:27Z</time>
					</trkpt>
					<trkpt lat="48.629280" lon="1.624930">
						<ele>148</ele>
						<time>2024-09-25T16:48:34Z</time>
					</trkpt>
					<trkpt lat="48.629440" lon="1.624880">
						<ele>146</ele>
						<time>2024-09-25T16:48:37Z</time>
					</trkpt>
					<trkpt lat="48.629570" lon="1.624860">
						<ele>145</ele>
						<time>2024-09-25T16:48:40Z</time>
					</trkpt>
					<trkpt lat="48.629780" lon="1.624900">
						<ele>143</ele>
						<time>2024-09-25T16:48:43Z</time>
					</trkpt>
					<trkpt lat="48.630120" lon="1.625090">
						<ele>141</ele>
						<time>2024-09-25T16:48:50Z</time>
					</trkpt>
					<trkpt lat="48.630380" lon="1.625270">
						<ele>142</ele>
						<time>2024-09-25T16:48:55Z</time>
					</trkpt>
					<trkpt lat="48.630580" lon="1.625360">
						<ele>143</ele>
						<time>2024-09-25T16:48:59Z</time>
					</trkpt>
					<trkpt lat="48.630740" lon="1.625350">
						<ele>143</ele>
						<time>2024-09-25T16:49:02Z</time>
					</trkpt>
					<trkpt lat="48.630930" lon="1.625200">
						<ele>144</ele>
						<time>2024-09-25T16:49:05Z</time>
					</trkpt>
					<trkpt lat="48.631110" lon="1.624970">
						<ele>145</ele>
						<time>2024-09-25T16:49:10Z</time>
					</trkpt>
					<trkpt lat="48.631300" lon="1.624310">
						<ele>144</ele>
						<time>2024-09-25T16:49:18Z</time>
					</trkpt>
					<trkpt lat="48.631490" lon="1.623750">
						<ele>142</ele>
						<time>2024-09-25T16:49:25Z</time>
					</trkpt>
					<trkpt lat="48.631570" lon="1.623590">
						<ele>142</ele>
						<time>2024-09-25T16:49:28Z</time>
					</trkpt>
					<trkpt lat="48.631880" lon="1.623340">
						<ele>143</ele>
						<time>2024-09-25T16:49:34Z</time>
					</trkpt>
					<trkpt lat="48.632120" lon="1.623180">
						<ele>143</ele>
						<time>2024-09-25T16:49:39Z</time>
					</trkpt>
					<trkpt lat="48.632370" lon="1.623090">
						<ele>144</ele>
						<time>2024-09-25T16:49:43Z</time>
					</trkpt>
					<trkpt lat="48.632830" lon="1.623010">
						<ele>143</ele>
						<time>2024-09-25T16:49:52Z</time>
					</trkpt>
					<trkpt lat="48.634170" lon="1.623220">
						<ele>139</ele>
						<time>2024-09-25T16:50:16Z</time>
					</trkpt>
					<trkpt lat="48.634400" lon="1.623320">
						<ele>139</ele>
						<time>2024-09-25T16:50:20Z</time>
					</trkpt>
					<trkpt lat="48.634660" lon="1.623390">
						<ele>138</ele>
						<time>2024-09-25T16:50:24Z</time>
					</trkpt>
					<trkpt lat="48.635220" lon="1.623660">
						<ele>135</ele>
						<time>2024-09-25T16:50:35Z</time>
					</trkpt>
					<trkpt lat="48.635620" lon="1.623790">
						<ele>134</ele>
						<time>2024-09-25T16:50:42Z</time>
					</trkpt>
					<trkpt lat="48.636620" lon="1.623940">
						<ele>132</ele>
						<time>2024-09-25T16:51:00Z</time>
					</trkpt>
					<trkpt lat="48.638470" lon="1.624100">
						<ele>132</ele>
						<time>2024-09-25T16:51:33Z</time>
					</trkpt>
					<trkpt lat="48.640200" lon="1.624070">
						<ele>130</ele>
						<time>2024-09-25T16:52:04Z</time>
					</trkpt>
					<trkpt lat="48.640910" lon="1.624130">
						<ele>129</ele>
						<time>2024-09-25T16:52:17Z</time>
					</trkpt>
					<trkpt lat="48.641370" lon="1.624090">
						<ele>129</ele>
						<time>2024-09-25T16:52:25Z</time>
					</trkpt>
					<trkpt lat="48.642650" lon="1.623920">
						<ele>128</ele>
						<time>2024-09-25T16:52:48Z</time>
					</trkpt>
					<trkpt lat="48.642850" lon="1.623870">
						<ele>128</ele>
						<time>2024-09-25T16:52:51Z</time>
					</trkpt>
					<trkpt lat="48.643300" lon="1.623650">
						<ele>128</ele>
						<time>2024-09-25T16:53:00Z</time>
					</trkpt>
					<trkpt lat="48.644690" lon="1.622680">
						<ele>124</ele>
						<time>2024-09-25T16:53:27Z</time>
					</trkpt>
					<trkpt lat="48.645240" lon="1.622420">
						<ele>124</ele>
						<time>2024-09-25T16:53:37Z</time>
					</trkpt>
					<trkpt lat="48.645360" lon="1.622400">
						<ele>124</ele>
						<time>2024-09-25T16:53:39Z</time>
					</trkpt>
					<trkpt lat="48.645440" lon="1.622410">
						<ele>124</ele>
						<time>2024-09-25T16:53:41Z</time>
					</trkpt>
					<trkpt lat="48.645590" lon="1.622490">
						<ele>124</ele>
						<time>2024-09-25T16:53:43Z</time>
					</trkpt>
					<trkpt lat="48.645660" lon="1.622560">
						<ele>124</ele>
						<time>2024-09-25T16:53:45Z</time>
					</trkpt>
					<trkpt lat="48.646410" lon="1.623510">
						<ele>124</ele>
						<time>2024-09-25T16:54:02Z</time>
					</trkpt>
					<trkpt lat="48.646740" lon="1.623800">
						<ele>124</ele>
						<time>2024-09-25T16:54:09Z</time>
					</trkpt>
					<trkpt lat="48.647080" lon="1.624060">
						<ele>124</ele>
						<time>2024-09-25T16:54:16Z</time>
					</trkpt>
					<trkpt lat="48.647170" lon="1.624090">
						<ele>124</ele>
						<time>2024-09-25T16:54:18Z</time>
					</trkpt>
					<trkpt lat="48.647660" lon="1.624130">
						<ele>124</ele>
						<time>2024-09-25T16:54:26Z</time>
					</trkpt>
					<trkpt lat="48.647780" lon="1.624200">
						<ele>124</ele>
						<time>2024-09-25T16:54:29Z</time>
					</trkpt>
					<trkpt lat="48.648390" lon="1.624880">
						<ele>126</ele>
						<time>2024-09-25T16:54:42Z</time>
					</trkpt>
					<trkpt lat="48.649120" lon="1.625510">
						<ele>126</ele>
						<time>2024-09-25T16:54:57Z</time>
					</trkpt>
					<trkpt lat="48.649420" lon="1.625830">
						<ele>126</ele>
						<time>2024-09-25T16:55:04Z</time>
					</trkpt>
					<trkpt lat="48.650110" lon="1.626670">
						<ele>127</ele>
						<time>2024-09-25T16:55:19Z</time>
					</trkpt>
					<trkpt lat="48.650440" lon="1.626970">
						<ele>129</ele>
						<time>2024-09-25T16:55:26Z</time>
					</trkpt>
					<trkpt lat="48.650640" lon="1.627080">
						<ele>130</ele>
						<time>2024-09-25T16:55:30Z</time>
					</trkpt>
					<trkpt lat="48.651200" lon="1.627110">
						<ele>133</ele>
						<time>2024-09-25T16:55:40Z</time>
					</trkpt>
					<trkpt lat="48.651400" lon="1.627170">
						<ele>134</ele>
						<time>2024-09-25T16:55:44Z</time>
					</trkpt>
					<trkpt lat="48.652070" lon="1.627610">
						<ele>134</ele>
						<time>2024-09-25T16:55:57Z</time>
					</trkpt>
					<trkpt lat="48.653160" lon="1.628240">
						<ele>131</ele>
						<time>2024-09-25T16:56:17Z</time>
					</trkpt>
					<trkpt lat="48.653310" lon="1.628290">
						<ele>131</ele>
						<time>2024-09-25T16:56:20Z</time>
					</trkpt>
					<trkpt lat="48.653710" lon="1.628320">
						<ele>129</ele>
						<time>2024-09-25T16:56:27Z</time>
					</trkpt>
					<trkpt lat="48.655020" lon="1.628250">
						<ele>125</ele>
						<time>2024-09-25T16:56:50Z</time>
					</trkpt>
					<trkpt lat="48.655160" lon="1.628290">
						<ele>125</ele>
						<time>2024-09-25T16:56:53Z</time>
					</trkpt>
					<trkpt lat="48.655360" lon="1.628300">
						<ele>125</ele>
						<time>2024-09-25T16:56:57Z</time>
					</trkpt>
					<trkpt lat="48.655530" lon="1.628220">
						<ele>125</ele>
						<time>2024-09-25T16:57:00Z</time>
					</trkpt>
					<trkpt lat="48.655600" lon="1.628160">
						<ele>125</ele>
						<time>2024-09-25T16:57:01Z</time>
					</trkpt>
					<trkpt lat="48.655670" lon="1.628070">
						<ele>125</ele>
						<time>2024-09-25T16:57:03Z</time>
					</trkpt>
					<trkpt lat="48.655770" lon="1.627890">
						<ele>126</ele>
						<time>2024-09-25T16:57:06Z</time>
					</trkpt>
					<trkpt lat="48.655870" lon="1.627470">
						<ele>126</ele>
						<time>2024-09-25T16:57:11Z</time>
					</trkpt>
					<trkpt lat="48.655940" lon="1.627090">
						<ele>125</ele>
						<time>2024-09-25T16:57:15Z</time>
					</trkpt>
					<trkpt lat="48.656090" lon="1.626470">
						<ele>124</ele>
						<time>2024-09-25T16:57:23Z</time>
					</trkpt>
					<trkpt lat="48.656160" lon="1.626240">
						<ele>124</ele>
						<time>2024-09-25T16:57:26Z</time>
					</trkpt>
					<trkpt lat="48.656210" lon="1.626150">
						<ele>124</ele>
						<time>2024-09-25T16:57:28Z</time>
					</trkpt>
					<trkpt lat="48.656370" lon="1.626000">
						<ele>123</ele>
						<time>2024-09-25T16:57:31Z</time>
					</trkpt>
					<trkpt lat="48.656470" lon="1.625980">
						<ele>123</ele>
						<time>2024-09-25T16:57:33Z</time>
					</trkpt>
					<trkpt lat="48.656840" lon="1.626020">
						<ele>123</ele>
						<time>2024-09-25T16:57:39Z</time>
					</trkpt>
					<trkpt lat="48.657330" lon="1.626130">
						<ele>124</ele>
						<time>2024-09-25T16:57:48Z</time>
					</trkpt>
					<trkpt lat="48.657670" lon="1.626240">
						<ele>124</ele>
						<time>2024-09-25T16:57:54Z</time>
					</trkpt>
					<trkpt lat="48.657960" lon="1.626290">
						<ele>123</ele>
						<time>2024-09-25T16:58:00Z</time>
					</trkpt>
					<trkpt lat="48.658210" lon="1.626270">
						<ele>123</ele>
						<time>2024-09-25T16:58:04Z</time>
					</trkpt>
					<trkpt lat="48.658440" lon="1.626220">
						<ele>123</ele>
						<time>2024-09-25T16:58:08Z</time>
					</trkpt>
					<trkpt lat="48.658700" lon="1.626110">
						<ele>124</ele>
						<time>2024-09-25T16:58:13Z</time>
					</trkpt>
					<trkpt lat="48.659070" lon="1.625910">
						<ele>125</ele>
						<time>2024-09-25T16:58:20Z</time>
					</trkpt>
					<trkpt lat="48.660420" lon="1.624980">
						<ele>125</ele>
						<time>2024-09-25T16:58:46Z</time>
					</trkpt>
					<trkpt lat="48.660810" lon="1.624760">
						<ele>125</ele>
						<time>2024-09-25T16:58:54Z</time>
					</trkpt>
					<trkpt lat="48.662000" lon="1.624320">
						<ele>126</ele>
						<time>2024-09-25T16:59:15Z</time>
					</trkpt>
					<trkpt lat="48.662260" lon="1.624290">
						<ele>127</ele>
						<time>2024-09-25T16:59:20Z</time>
					</trkpt>
					<trkpt lat="48.662650" lon="1.624350">
						<ele>128</ele>
						<time>2024-09-25T16:59:27Z</time>
					</trkpt>
					<trkpt lat="48.663370" lon="1.624870">
						<ele>127</ele>
						<time>2024-09-25T16:59:41Z</time>
					</trkpt>
					<trkpt lat="48.663440" lon="1.624940">
						<ele>127</ele>
						<time>2024-09-25T16:59:43Z</time>
					</trkpt>
					<trkpt lat="48.663050" lon="1.627840">
						<ele>126</ele>
						<time>2024-09-25T17:00:18Z</time>
					</trkpt>
					<trkpt lat="48.663040" lon="1.628060">
						<ele>126</ele>
						<time>2024-09-25T17:00:20Z</time>
					</trkpt>
					<trkpt lat="48.663120" lon="1.628760">
						<ele>127</ele>
						<time>2024-09-25T17:00:29Z</time>
					</trkpt>
					<trkpt lat="48.663190" lon="1.629070">
						<ele>127</ele>
						<time>2024-09-25T17:00:32Z</time>
					</trkpt>
					<trkpt lat="48.663300" lon="1.629320">
						<ele>128</ele>
						<time>2024-09-25T17:00:36Z</time>
					</trkpt>
					<trkpt lat="48.663630" lon="1.629890">
						<ele>127</ele>
						<time>2024-09-25T17:00:45Z</time>
					</trkpt>
					<trkpt lat="48.663770" lon="1.630230">
						<ele>127</ele>
						<time>2024-09-25T17:00:50Z</time>
					</trkpt>
					<trkpt lat="48.663960" lon="1.630940">
						<ele>128</ele>
						<time>2024-09-25T17:00:59Z</time>
					</trkpt>
					<trkpt lat="48.664340" lon="1.632660">
						<ele>130</ele>
						<time>2024-09-25T17:01:20Z</time>
					</trkpt>
					<trkpt lat="48.664620" lon="1.634290">
						<ele>133</ele>
						<time>2024-09-25T17:01:40Z</time>
					</trkpt>
					<trkpt lat="48.664870" lon="1.635510">
						<ele>133</ele>
						<time>2024-09-25T17:01:55Z</time>
					</trkpt>
					<trkpt lat="48.665120" lon="1.636870">
						<ele>135</ele>
						<time>2024-09-25T17:02:11Z</time>
					</trkpt>
					<trkpt lat="48.665200" lon="1.637140">
						<ele>135</ele>
						<time>2024-09-25T17:02:15Z</time>
					</trkpt>
					<trkpt lat="48.666060" lon="1.639300">
						<ele>136</ele>
						<time>2024-09-25T17:02:44Z</time>
					</trkpt>
					<trkpt lat="48.666470" lon="1.640180">
						<ele>137</ele>
						<time>2024-09-25T17:02:57Z</time>
					</trkpt>
					<trkpt lat="48.667280" lon="1.641760">
						<ele>139</ele>
						<time>2024-09-25T17:03:20Z</time>
					</trkpt>
					<trkpt lat="48.668760" lon="1.644370">
						<ele>138</ele>
						<time>2024-09-25T17:04:01Z</time>
					</trkpt>
					<trkpt lat="48.668900" lon="1.644560">
						<ele>137</ele>
						<time>2024-09-25T17:04:04Z</time>
					</trkpt>
					<trkpt lat="48.669770" lon="1.644800">
						<ele>134</ele>
						<time>2024-09-25T17:04:20Z</time>
					</trkpt>
					<trkpt lat="48.670240" lon="1.645410">
						<ele>135</ele>
						<time>2024-09-25T17:04:31Z</time>
					</trkpt>
					<trkpt lat="48.671030" lon="1.645920">
						<ele>140</ele>
						<time>2024-09-25T17:04:46Z</time>
					</trkpt>
					<trkpt lat="48.672100" lon="1.646680">
						<ele>145</ele>
						<time>2024-09-25T17:05:07Z</time>
					</trkpt>
					<trkpt lat="48.672940" lon="1.647170">
						<ele>146</ele>
						<time>2024-09-25T17:05:23Z</time>
					</trkpt>
					<trkpt lat="48.673850" lon="1.647830">
						<ele>145</ele>
						<time>2024-09-25T17:05:41Z</time>
					</trkpt>
					<trkpt lat="48.673600" lon="1.648460">
						<ele>148</ele>
						<time>2024-09-25T17:05:50Z</time>
					</trkpt>
					<trkpt lat="48.673520" lon="1.648830">
						<ele>149</ele>
						<time>2024-09-25T17:05:55Z</time>
					</trkpt>
					<trkpt lat="48.673120" lon="1.651200">
						<ele>156</ele>
						<time>2024-09-25T17:06:23Z</time>
					</trkpt>
					<trkpt lat="48.669650" lon="1.660210">
						<ele>172</ele>
						<time>2024-09-25T17:08:26Z</time>
					</trkpt>
					<trkpt lat="48.669230" lon="1.660840">
						<ele>172</ele>
						<time>2024-09-25T17:08:36Z</time>
					</trkpt>
					<trkpt lat="48.656400" lon="1.675880">
						<ele>160</ele>
						<time>2024-09-25T17:13:25Z</time>
					</trkpt>
					<trkpt lat="48.655010" lon="1.677530">
						<ele>162</ele>
						<time>2024-09-25T17:13:56Z</time>
					</trkpt>
					<trkpt lat="48.654820" lon="1.677800">
						<ele>163</ele>
						<time>2024-09-25T17:14:01Z</time>
					</trkpt>
					<trkpt lat="48.654620" lon="1.678150">
						<ele>165</ele>
						<time>2024-09-25T17:14:07Z</time>
					</trkpt>
					<trkpt lat="48.654400" lon="1.678670">
						<ele>165</ele>
						<time>2024-09-25T17:14:14Z</time>
					</trkpt>
					<trkpt lat="48.652150" lon="1.684850">
						<ele>152</ele>
						<time>2024-09-25T17:15:37Z</time>
					</trkpt>
					<trkpt lat="48.651640" lon="1.685670">
						<ele>149</ele>
						<time>2024-09-25T17:15:50Z</time>
					</trkpt>
					<trkpt lat="48.651140" lon="1.687240">
						<ele>143</ele>
						<time>2024-09-25T17:16:10Z</time>
					</trkpt>
					<trkpt lat="48.650690" lon="1.688820">
						<ele>133</ele>
						<time>2024-09-25T17:16:31Z</time>
					</trkpt>
					<trkpt lat="48.650590" lon="1.689360">
						<ele>132</ele>
						<time>2024-09-25T17:16:37Z</time>
					</trkpt>
					<trkpt lat="48.650350" lon="1.691120">
						<ele>131</ele>
						<time>2024-09-25T17:16:58Z</time>
					</trkpt>
					<trkpt lat="48.650300" lon="1.691840">
						<ele>131</ele>
						<time>2024-09-25T17:17:07Z</time>
					</trkpt>
					<trkpt lat="48.650290" lon="1.692640">
						<ele>133</ele>
						<time>2024-09-25T17:17:16Z</time>
					</trkpt>
					<trkpt lat="48.650310" lon="1.696440">
						<ele>151</ele>
						<time>2024-09-25T17:18:01Z</time>
					</trkpt>
					<trkpt lat="48.650360" lon="1.696910">
						<ele>152</ele>
						<time>2024-09-25T17:18:07Z</time>
					</trkpt>
					<trkpt lat="48.650460" lon="1.697290">
						<ele>153</ele>
						<time>2024-09-25T17:18:11Z</time>
					</trkpt>
					<trkpt lat="48.650570" lon="1.697550">
						<ele>153</ele>
						<time>2024-09-25T17:18:15Z</time>
					</trkpt>
					<trkpt lat="48.651120" lon="1.698620">
						<ele>156</ele>
						<time>2024-09-25T17:18:31Z</time>
					</trkpt>
					<trkpt lat="48.651310" lon="1.699190">
						<ele>159</ele>
						<time>2024-09-25T17:18:38Z</time>
					</trkpt>
					<trkpt lat="48.651380" lon="1.699940">
						<ele>162</ele>
						<time>2024-09-25T17:18:47Z</time>
					</trkpt>
					<trkpt lat="48.651360" lon="1.700300">
						<ele>162</ele>
						<time>2024-09-25T17:18:52Z</time>
					</trkpt>
					<trkpt lat="48.650600" lon="1.704380">
						<ele>166</ele>
						<time>2024-09-25T17:19:41Z</time>
					</trkpt>
					<trkpt lat="48.648300" lon="1.716400">
						<ele>164</ele>
						<time>2024-09-25T17:22:09Z</time>
					</trkpt>
					<trkpt lat="48.647590" lon="1.720170">
						<ele>165</ele>
						<time>2024-09-25T17:22:55Z</time>
					</trkpt>
					<trkpt lat="48.647480" lon="1.720830">
						<ele>165</ele>
						<time>2024-09-25T17:23:03Z</time>
					</trkpt>
					<trkpt lat="48.645670" lon="1.730300">
						<ele>167</ele>
						<time>2024-09-25T17:24:59Z</time>
					</trkpt>
					<trkpt lat="48.645460" lon="1.731490">
						<ele>169</ele>
						<time>2024-09-25T17:25:13Z</time>
					</trkpt>
					<trkpt lat="48.643770" lon="1.742710">
						<ele>167</ele>
						<time>2024-09-25T17:27:28Z</time>
					</trkpt>
					<trkpt lat="48.643560" lon="1.743830">
						<ele>166</ele>
						<time>2024-09-25T17:27:42Z</time>
					</trkpt>
					<trkpt lat="48.642000" lon="1.751690">
						<ele>165</ele>
						<time>2024-09-25T17:29:18Z</time>
					</trkpt>
					<trkpt lat="48.641860" lon="1.752180">
						<ele>166</ele>
						<time>2024-09-25T17:29:25Z</time>
					</trkpt>
					<trkpt lat="48.641680" lon="1.752640">
						<ele>166</ele>
						<time>2024-09-25T17:29:31Z</time>
					</trkpt>
					<trkpt lat="48.641360" lon="1.753320">
						<ele>165</ele>
						<time>2024-09-25T17:29:41Z</time>
					</trkpt>
					<trkpt lat="48.637910" lon="1.760390">
						<ele>159</ele>
						<time>2024-09-25T17:31:24Z</time>
					</trkpt>
					<trkpt lat="48.637750" lon="1.760790">
						<ele>159</ele>
						<time>2024-09-25T17:31:30Z</time>
					</trkpt>
					<trkpt lat="48.637520" lon="1.761570">
						<ele>156</ele>
						<time>2024-09-25T17:31:40Z</time>
					</trkpt>
					<trkpt lat="48.637190" lon="1.763170">
						<ele>153</ele>
						<time>2024-09-25T17:31:59Z</time>
					</trkpt>
					<trkpt lat="48.637070" lon="1.763420">
						<ele>153</ele>
						<time>2024-09-25T17:32:03Z</time>
					</trkpt>
					<trkpt lat="48.637000" lon="1.763390">
						<ele>153</ele>
						<time>2024-09-25T17:32:04Z</time>
					</trkpt>
					<trkpt lat="48.636930" lon="1.763420">
						<ele>153</ele>
						<time>2024-09-25T17:32:06Z</time>
					</trkpt>
					<trkpt lat="48.636890" lon="1.763560">
						<ele>153</ele>
						<time>2024-09-25T17:32:07Z</time>
					</trkpt>
					<trkpt lat="48.636940" lon="1.763690">
						<ele>153</ele>
						<time>2024-09-25T17:32:09Z</time>
					</trkpt>
					<trkpt lat="48.637000" lon="1.763720">
						<ele>153</ele>
						<time>2024-09-25T17:32:10Z</time>
					</trkpt>
					<trkpt lat="48.637000" lon="1.763880">
						<ele>152</ele>
						<time>2024-09-25T17:32:12Z</time>
					</trkpt>
					<trkpt lat="48.637040" lon="1.764100">
						<ele>152</ele>
						<time>2024-09-25T17:32:15Z</time>
					</trkpt>
					<trkpt lat="48.638600" lon="1.768190">
						<ele>144</ele>
						<time>2024-09-25T17:33:10Z</time>
					</trkpt>
					<trkpt lat="48.638720" lon="1.768540">
						<ele>145</ele>
						<time>2024-09-25T17:33:15Z</time>
					</trkpt>
					<trkpt lat="48.638800" lon="1.768950">
						<ele>145</ele>
						<time>2024-09-25T17:33:20Z</time>
					</trkpt>
					<trkpt lat="48.638820" lon="1.769200">
						<ele>146</ele>
						<time>2024-09-25T17:33:23Z</time>
					</trkpt>
					<trkpt lat="48.638830" lon="1.769640">
						<ele>146</ele>
						<time>2024-09-25T17:33:28Z</time>
					</trkpt>
					<trkpt lat="48.638480" lon="1.773090">
						<ele>144</ele>
						<time>2024-09-25T17:34:09Z</time>
					</trkpt>
					<trkpt lat="48.638450" lon="1.773720">
						<ele>143</ele>
						<time>2024-09-25T17:34:17Z</time>
					</trkpt>
					<trkpt lat="48.638330" lon="1.774680">
						<ele>142</ele>
						<time>2024-09-25T17:34:28Z</time>
					</trkpt>
					<trkpt lat="48.637260" lon="1.785360">
						<ele>159</ele>
						<time>2024-09-25T17:36:35Z</time>
					</trkpt>
					<trkpt lat="48.637240" lon="1.786330">
						<ele>158</ele>
						<time>2024-09-25T17:36:47Z</time>
					</trkpt>
					<trkpt lat="48.637460" lon="1.791050">
						<ele>153</ele>
						<time>2024-09-25T17:37:42Z</time>
					</trkpt>
					<trkpt lat="48.637530" lon="1.791970">
						<ele>150</ele>
						<time>2024-09-25T17:37:53Z</time>
					</trkpt>
					<trkpt lat="48.637570" lon="1.792280">
						<ele>148</ele>
						<time>2024-09-25T17:37:57Z</time>
					</trkpt>
					<trkpt lat="48.637700" lon="1.792900">
						<ele>147</ele>
						<time>2024-09-25T17:38:04Z</time>
					</trkpt>
					<trkpt lat="48.638430" lon="1.795060">
						<ele>147</ele>
						<time>2024-09-25T17:38:33Z</time>
					</trkpt>
					<trkpt lat="48.638570" lon="1.795340">
						<ele>147</ele>
						<time>2024-09-25T17:38:37Z</time>
					</trkpt>
					<trkpt lat="48.638980" lon="1.795880">
						<ele>149</ele>
						<time>2024-09-25T17:38:47Z</time>
					</trkpt>
					<trkpt lat="48.639070" lon="1.796080">
						<ele>148</ele>
						<time>2024-09-25T17:38:50Z</time>
					</trkpt>
					<trkpt lat="48.639100" lon="1.796200">
						<ele>148</ele>
						<time>2024-09-25T17:38:51Z</time>
					</trkpt>
					<trkpt lat="48.639110" lon="1.796440">
						<ele>146</ele>
						<time>2024-09-25T17:38:54Z</time>
					</trkpt>
					<trkpt lat="48.639100" lon="1.796550">
						<ele>146</ele>
						<time>2024-09-25T17:38:55Z</time>
					</trkpt>
					<trkpt lat="48.639030" lon="1.796780">
						<ele>145</ele>
						<time>2024-09-25T17:38:58Z</time>
					</trkpt>
					<trkpt lat="48.638780" lon="1.797420">
						<ele>147</ele>
						<time>2024-09-25T17:39:07Z</time>
					</trkpt>
					<trkpt lat="48.638750" lon="1.797650">
						<ele>149</ele>
						<time>2024-09-25T17:39:10Z</time>
					</trkpt>
					<trkpt lat="48.638760" lon="1.797910">
						<ele>152</ele>
						<time>2024-09-25T17:39:13Z</time>
					</trkpt>
					<trkpt lat="48.639380" lon="1.800490">
						<ele>160</ele>
						<time>2024-09-25T17:39:45Z</time>
					</trkpt>
					<trkpt lat="48.639480" lon="1.800960">
						<ele>162</ele>
						<time>2024-09-25T17:39:51Z</time>
					</trkpt>
					<trkpt lat="48.639480" lon="1.801300">
						<ele>163</ele>
						<time>2024-09-25T17:39:55Z</time>
					</trkpt>
					<trkpt lat="48.639460" lon="1.801580">
						<ele>164</ele>
						<time>2024-09-25T17:39:58Z</time>
					</trkpt>
					<trkpt lat="48.639220" lon="1.803000">
						<ele>166</ele>
						<time>2024-09-25T17:40:15Z</time>
					</trkpt>
					<trkpt lat="48.639020" lon="1.803700">
						<ele>168</ele>
						<time>2024-09-25T17:40:24Z</time>
					</trkpt>
					<trkpt lat="48.636640" lon="1.810000">
						<ele>168</ele>
						<time>2024-09-25T17:41:50Z</time>
					</trkpt>
					<trkpt lat="48.636560" lon="1.810240">
						<ele>167</ele>
						<time>2024-09-25T17:41:53Z</time>
					</trkpt>
					<trkpt lat="48.636510" lon="1.810470">
						<ele>167</ele>
						<time>2024-09-25T17:41:56Z</time>
					</trkpt>
					<trkpt lat="48.636480" lon="1.810910">
						<ele>167</ele>
						<time>2024-09-25T17:42:01Z</time>
					</trkpt>
					<trkpt lat="48.636500" lon="1.811130">
						<ele>167</ele>
						<time>2024-09-25T17:42:04Z</time>
					</trkpt>
					<trkpt lat="48.636560" lon="1.811470">
						<ele>167</ele>
						<time>2024-09-25T17:42:08Z</time>
					</trkpt>
					<trkpt lat="48.636680" lon="1.811820">
						<ele>168</ele>
						<time>2024-09-25T17:42:12Z</time>
					</trkpt>
					<trkpt lat="48.637490" lon="1.813080">
						<ele>168</ele>
						<time>2024-09-25T17:42:33Z</time>
					</trkpt>
					<trkpt lat="48.637710" lon="1.813560">
						<ele>167</ele>
						<time>2024-09-25T17:42:40Z</time>
					</trkpt>
					<trkpt lat="48.639480" lon="1.818160">
						<ele>151</ele>
						<time>2024-09-25T17:43:42Z</time>
					</trkpt>
					<trkpt lat="48.639610" lon="1.818420">
						<ele>151</ele>
						<time>2024-09-25T17:43:46Z</time>
					</trkpt>
					<trkpt lat="48.640520" lon="1.819770">
						<ele>150</ele>
						<time>2024-09-25T17:44:09Z</time>
					</trkpt>
					<trkpt lat="48.640640" lon="1.820080">
						<ele>150</ele>
						<time>2024-09-25T17:44:13Z</time>
					</trkpt>
					<trkpt lat="48.640680" lon="1.820250">
						<ele>150</ele>
						<time>2024-09-25T17:44:15Z</time>
					</trkpt>
					<trkpt lat="48.640740" lon="1.820820">
						<ele>150</ele>
						<time>2024-09-25T17:44:22Z</time>
					</trkpt>
					<trkpt lat="48.640930" lon="1.823210">
						<ele>152</ele>
						<time>2024-09-25T17:44:50Z</time>
					</trkpt>
					<trkpt lat="48.641040" lon="1.824390">
						<ele>151</ele>
						<time>2024-09-25T17:45:04Z</time>
					</trkpt>
					<trkpt lat="48.641090" lon="1.824630">
						<ele>151</ele>
						<time>2024-09-25T17:45:07Z</time>
					</trkpt>
					<trkpt lat="48.641180" lon="1.824890">
						<ele>151</ele>
						<time>2024-09-25T17:45:11Z</time>
					</trkpt>
					<trkpt lat="48.641300" lon="1.825140">
						<ele>151</ele>
						<time>2024-09-25T17:45:14Z</time>
					</trkpt>
					<trkpt lat="48.641540" lon="1.825520">
						<ele>151</ele>
						<time>2024-09-25T17:45:21Z</time>
					</trkpt>
					<trkpt lat="48.641680" lon="1.825600">
						<ele>151</ele>
						<time>2024-09-25T17:45:23Z</time>
					</trkpt>
					<trkpt lat="48.641910" lon="1.825660">
						<ele>152</ele>
						<time>2024-09-25T17:45:27Z</time>
					</trkpt>
					<trkpt lat="48.642920" lon="1.825730">
						<ele>152</ele>
						<time>2024-09-25T17:45:45Z</time>
					</trkpt>
					<trkpt lat="48.643060" lon="1.826040">
						<ele>153</ele>
						<time>2024-09-25T17:45:50Z</time>
					</trkpt>
					<trkpt lat="48.643380" lon="1.826180">
						<ele>155</ele>
						<time>2024-09-25T17:45:56Z</time>
					</trkpt>
					<trkpt lat="48.643510" lon="1.826310">
						<ele>156</ele>
						<time>2024-09-25T17:45:59Z</time>
					</trkpt>
					<trkpt lat="48.643740" lon="1.826600">
						<ele>159</ele>
						<time>2024-09-25T17:46:04Z</time>
					</trkpt>
					<trkpt lat="48.643710" lon="1.826690">
						<ele>159</ele>
						<time>2024-09-25T17:46:05Z</time>
					</trkpt>
					<trkpt lat="48.643750" lon="1.826780">
						<ele>159</ele>
						<time>2024-09-25T17:46:06Z</time>
					</trkpt>
					<trkpt lat="48.643250" lon="1.828150">
						<ele>162</ele>
						<time>2024-09-25T17:46:25Z</time>
					</trkpt>
					<trkpt lat="48.643200" lon="1.828480">
						<ele>161</ele>
						<time>2024-09-25T17:46:29Z</time>
					</trkpt>
					<trkpt lat="48.643200" lon="1.828650">
						<ele>160</ele>
						<time>2024-09-25T17:46:31Z</time>
					</trkpt>
					<trkpt lat="48.643230" lon="1.828890">
						<ele>159</ele>
						<time>2024-09-25T17:46:34Z</time>
					</trkpt>
					<trkpt lat="48.643390" lon="1.829760">
						<ele>159</ele>
						<time>2024-09-25T17:46:44Z</time>
					</trkpt>
					<trkpt lat="48.643430" lon="1.830160">
						<ele>160</ele>
						<time>2024-09-25T17:46:49Z</time>
					</trkpt>
					<trkpt lat="48.643280" lon="1.830140">
						<ele>159</ele>
						<time>2024-09-25T17:46:52Z</time>
					</trkpt>
					<trkpt lat="48.643160" lon="1.830220">
						<ele>159</ele>
						<time>2024-09-25T17:46:54Z</time>
					</trkpt>
					<trkpt lat="48.643140" lon="1.830250">
						<ele>159</ele>
						<time>2024-09-25T17:46:54Z</time>
					</trkpt>
					<trkpt lat="48.643140" lon="1.830410">
						<ele>160</ele>
						<time>2024-09-25T17:46:56Z</time>
					</trkpt>
					<trkpt lat="48.643490" lon="1.830990">
						<ele>161</ele>
						<time>2024-09-25T17:47:06Z</time>
					</trkpt>
					<trkpt lat="48.643570" lon="1.831040">
						<ele>161</ele>
						<time>2024-09-25T17:47:07Z</time>
					</trkpt>
					<trkpt lat="48.643630" lon="1.831030">
						<ele>161</ele>
						<time>2024-09-25T17:47:08Z</time>
					</trkpt>
					<trkpt lat="48.643840" lon="1.830740">
						<ele>161</ele>
						<time>2024-09-25T17:47:13Z</time>
					</trkpt>
					<trkpt lat="48.643950" lon="1.830670">
						<ele>161</ele>
						<time>2024-09-25T17:47:15Z</time>
					</trkpt>
					<trkpt lat="48.644050" lon="1.830530">
						<ele>161</ele>
						<time>2024-09-25T17:47:18Z</time>
					</trkpt>
					<trkpt lat="48.644160" lon="1.830470">
						<ele>161</ele>
						<time>2024-09-25T17:47:20Z</time>
					</trkpt>
					<trkpt lat="48.644380" lon="1.830550">
						<ele>162</ele>
						<time>2024-09-25T17:47:24Z</time>
					</trkpt>
					<trkpt lat="48.644550" lon="1.830550">
						<ele>162</ele>
						<time>2024-09-25T17:47:27Z</time>
					</trkpt>
					<trkpt lat="48.644570" lon="1.830530">
						<ele>162</ele>
						<time>2024-09-25T17:47:27Z</time>
					</trkpt>
					<trkpt lat="48.646520" lon="1.830620">
						<ele>160</ele>
						<time>2024-09-25T17:48:02Z</time>
					</trkpt>
					<trkpt lat="48.649990" lon="1.830810">
						<ele>156</ele>
						<time>2024-09-25T17:49:04Z</time>
					</trkpt>
					<trkpt lat="48.650610" lon="1.830940">
						<ele>155</ele>
						<time>2024-09-25T17:49:15Z</time>
					</trkpt>
					<trkpt lat="48.650710" lon="1.830990">
						<ele>155</ele>
						<time>2024-09-25T17:49:17Z</time>
					</trkpt>
					<trkpt lat="48.650770" lon="1.831090">
						<ele>155</ele>
						<time>2024-09-25T17:49:18Z</time>
					</trkpt>
					<trkpt lat="48.650840" lon="1.831110">
						<ele>155</ele>
						<time>2024-09-25T17:49:20Z</time>
					</trkpt>
					<trkpt lat="48.650880" lon="1.831100">
						<ele>155</ele>
						<time>2024-09-25T17:49:20Z</time>
					</trkpt>
					<trkpt lat="48.650950" lon="1.831020">
						<ele>156</ele>
						<time>2024-09-25T17:49:22Z</time>
					</trkpt>
					<trkpt lat="48.651110" lon="1.831030">
						<ele>156</ele>
						<time>2024-09-25T17:49:25Z</time>
					</trkpt>
					<trkpt lat="48.651440" lon="1.831130">
						<ele>157</ele>
						<time>2024-09-25T17:49:31Z</time>
					</trkpt>
					<trkpt lat="48.651630" lon="1.831140">
						<ele>157</ele>
						<time>2024-09-25T17:49:34Z</time>
					</trkpt>
					<trkpt lat="48.651900" lon="1.831230">
						<ele>158</ele>
						<time>2024-09-25T17:49:39Z</time>
					</trkpt>
					<trkpt lat="48.652000" lon="1.831290">
						<ele>158</ele>
						<time>2024-09-25T17:49:41Z</time>
					</trkpt>
					<trkpt lat="48.652080" lon="1.832580">
						<ele>160</ele>
						<time>2024-09-25T17:49:56Z</time>
					</trkpt>
					<trkpt lat="48.652250" lon="1.833280">
						<ele>161</ele>
						<time>2024-09-25T17:50:05Z</time>
					</trkpt>
					<trkpt lat="48.652420" lon="1.833700">
						<ele>161</ele>
						<time>2024-09-25T17:50:11Z</time>
					</trkpt>
					<trkpt lat="48.652670" lon="1.834120">
						<ele>162</ele>
						<time>2024-09-25T17:50:17Z</time>
					</trkpt>
					<trkpt lat="48.652870" lon="1.834840">
						<ele>162</ele>
						<time>2024-09-25T17:50:27Z</time>
					</trkpt>
					<trkpt lat="48.653050" lon="1.835620">
						<ele>162</ele>
						<time>2024-09-25T17:50:36Z</time>
					</trkpt>
					<trkpt lat="48.653160" lon="1.836010">
						<ele>162</ele>
						<time>2024-09-25T17:50:41Z</time>
					</trkpt>
					<trkpt lat="48.653240" lon="1.836240">
						<ele>163</ele>
						<time>2024-09-25T17:50:44Z</time>
					</trkpt>
					<trkpt lat="48.653690" lon="1.837230">
						<ele>164</ele>
						<time>2024-09-25T17:50:59Z</time>
					</trkpt>
					<trkpt lat="48.653710" lon="1.837340">
						<ele>164</ele>
						<time>2024-09-25T17:51:00Z</time>
					</trkpt>
					<trkpt lat="48.653710" lon="1.837470">
						<ele>164</ele>
						<time>2024-09-25T17:51:01Z</time>
					</trkpt>
					<trkpt lat="48.653730" lon="1.837540">
						<ele>164</ele>
						<time>2024-09-25T17:51:02Z</time>
					</trkpt>
					<trkpt lat="48.653830" lon="1.837600">
						<ele>164</ele>
						<time>2024-09-25T17:51:04Z</time>
					</trkpt>
					<trkpt lat="48.654340" lon="1.838770">
						<ele>164</ele>
						<time>2024-09-25T17:51:21Z</time>
					</trkpt>
					<trkpt lat="48.654930" lon="1.839470">
						<ele>163</ele>
						<time>2024-09-25T17:51:34Z</time>
					</trkpt>
					<trkpt lat="48.654940" lon="1.839590">
						<ele>164</ele>
						<time>2024-09-25T17:51:35Z</time>
					</trkpt>
					<trkpt lat="48.655010" lon="1.839800">
						<ele>164</ele>
						<time>2024-09-25T17:51:38Z</time>
					</trkpt>
					<trkpt lat="48.655170" lon="1.840510">
						<ele>163</ele>
						<time>2024-09-25T17:51:47Z</time>
					</trkpt>
					<trkpt lat="48.655270" lon="1.840860">
						<ele>163</ele>
						<time>2024-09-25T17:51:52Z</time>
					</trkpt>
					<trkpt lat="48.655390" lon="1.841470">
						<ele>164</ele>
						<time>2024-09-25T17:51:59Z</time>
					</trkpt>
					<trkpt lat="48.655600" lon="1.842760">
						<ele>165</ele>
						<time>2024-09-25T17:52:15Z</time>
					</trkpt>
					<trkpt lat="48.655600" lon="1.843230">
						<ele>166</ele>
						<time>2024-09-25T17:52:20Z</time>
					</trkpt>
					<trkpt lat="48.655270" lon="1.845450">
						<ele>168</ele>
						<time>2024-09-25T17:52:47Z</time>
					</trkpt>
					<trkpt lat="48.655210" lon="1.845660">
						<ele>169</ele>
						<time>2024-09-25T17:52:50Z</time>
					</trkpt>
					<trkpt lat="48.655100" lon="1.845890">
						<ele>169</ele>
						<time>2024-09-25T17:52:53Z</time>
					</trkpt>
					<trkpt lat="48.655240" lon="1.846090">
						<ele>169</ele>
						<time>2024-09-25T17:52:56Z</time>
					</trkpt>
					<trkpt lat="48.655380" lon="1.846210">
						<ele>170</ele>
						<time>2024-09-25T17:52:59Z</time>
					</trkpt>
					<trkpt lat="48.655500" lon="1.846500">
						<ele>172</ele>
						<time>2024-09-25T17:53:03Z</time>
					</trkpt>
					<trkpt lat="48.656430" lon="1.849510">
						<ele>172</ele>
						<time>2024-09-25T17:53:42Z</time>
					</trkpt>
					<trkpt lat="48.657090" lon="1.851960">
						<ele>172</ele>
						<time>2024-09-25T17:54:13Z</time>
					</trkpt>
					<trkpt lat="48.657430" lon="1.853400">
						<ele>173</ele>
						<time>2024-09-25T17:54:31Z</time>
					</trkpt>
					<trkpt lat="48.657580" lon="1.853890">
						<ele>174</ele>
						<time>2024-09-25T17:54:38Z</time>
					</trkpt>
					<trkpt lat="48.658140" lon="1.856010">
						<ele>176</ele>
						<time>2024-09-25T17:55:05Z</time>
					</trkpt>
					<trkpt lat="48.659310" lon="1.859740">
						<ele>177</ele>
						<time>2024-09-25T17:55:53Z</time>
					</trkpt>
					<trkpt lat="48.660540" lon="1.859040">
						<ele>178</ele>
						<time>2024-09-25T17:56:16Z</time>
					</trkpt>
					<trkpt lat="48.660610" lon="1.859070">
						<ele>178</ele>
						<time>2024-09-25T17:56:18Z</time>
					</trkpt>
					<trkpt lat="48.660650" lon="1.859160">
						<ele>179</ele>
						<time>2024-09-25T17:56:19Z</time>
					</trkpt>
					<trkpt lat="48.661280" lon="1.861940">
						<ele>177</ele>
						<time>2024-09-25T17:56:54Z</time>
					</trkpt>
					<trkpt lat="48.662380" lon="1.867200">
						<ele>175</ele>
						<time>2024-09-25T17:57:58Z</time>
					</trkpt>
					<trkpt lat="48.662910" lon="1.869640">
						<ele>173</ele>
						<time>2024-09-25T17:58:29Z</time>
					</trkpt>
					<trkpt lat="48.663170" lon="1.870740">
						<ele>172</ele>
						<time>2024-09-25T17:58:42Z</time>
					</trkpt>
					<trkpt lat="48.664420" lon="1.874230">
						<ele>171</ele>
						<time>2024-09-25T17:59:29Z</time>
					</trkpt>
					<trkpt lat="48.664530" lon="1.874500">
						<ele>171</ele>
						<time>2024-09-25T17:59:33Z</time>
					</trkpt>
					<trkpt lat="48.664760" lon="1.874890">
						<ele>172</ele>
						<time>2024-09-25T17:59:39Z</time>
					</trkpt>
					<trkpt lat="48.665250" lon="1.875390">
						<ele>172</ele>
						<time>2024-09-25T17:59:49Z</time>
					</trkpt>
					<trkpt lat="48.665320" lon="1.875510">
						<ele>172</ele>
						<time>2024-09-25T17:59:51Z</time>
					</trkpt>
					<trkpt lat="48.665370" lon="1.875640">
						<ele>171</ele>
						<time>2024-09-25T17:59:53Z</time>
					</trkpt>
					<trkpt lat="48.665680" lon="1.877110">
						<ele>171</ele>
						<time>2024-09-25T18:00:11Z</time>
					</trkpt>
					<trkpt lat="48.667140" lon="1.876390">
						<ele>173</ele>
						<time>2024-09-25T18:00:38Z</time>
					</trkpt>
					<trkpt lat="48.667390" lon="1.876300">
						<ele>173</ele>
						<time>2024-09-25T18:00:43Z</time>
					</trkpt>
					<trkpt lat="48.667840" lon="1.876100">
						<ele>173</ele>
						<time>2024-09-25T18:00:51Z</time>
					</trkpt>
					<trkpt lat="48.668110" lon="1.875930">
						<ele>172</ele>
						<time>2024-09-25T18:00:57Z</time>
					</trkpt>
					<trkpt lat="48.669430" lon="1.875340">
						<ele>174</ele>
						<time>2024-09-25T18:01:21Z</time>
					</trkpt>
					<trkpt lat="48.671810" lon="1.874210">
						<ele>172</ele>
						<time>2024-09-25T18:02:05Z</time>
					</trkpt>
					<trkpt lat="48.673170" lon="1.873540">
						<ele>172</ele>
						<time>2024-09-25T18:02:31Z</time>
					</trkpt>
					<trkpt lat="48.677120" lon="1.871670">
						<ele>172</ele>
						<time>2024-09-25T18:03:45Z</time>
					</trkpt>
					<trkpt lat="48.677380" lon="1.871640">
						<ele>171</ele>
						<time>2024-09-25T18:03:49Z</time>
					</trkpt>
					<trkpt lat="48.677520" lon="1.871680">
						<ele>171</ele>
						<time>2024-09-25T18:03:52Z</time>
					</trkpt>
					<trkpt lat="48.677650" lon="1.871770">
						<ele>172</ele>
						<time>2024-09-25T18:03:54Z</time>
					</trkpt>
					<trkpt lat="48.677750" lon="1.871880">
						<ele>172</ele>
						<time>2024-09-25T18:03:56Z</time>
					</trkpt>
					<trkpt lat="48.678420" lon="1.872910">
						<ele>171</ele>
						<time>2024-09-25T18:04:13Z</time>
					</trkpt>
					<trkpt lat="48.678720" lon="1.873120">
						<ele>171</ele>
						<time>2024-09-25T18:04:19Z</time>
					</trkpt>
					<trkpt lat="48.679170" lon="1.873290">
						<ele>171</ele>
						<time>2024-09-25T18:04:28Z</time>
					</trkpt>
					<trkpt lat="48.683500" lon="1.874710">
						<ele>172</ele>
						<time>2024-09-25T18:05:46Z</time>
					</trkpt>
					<trkpt lat="48.683610" lon="1.874790">
						<ele>172</ele>
						<time>2024-09-25T18:05:49Z</time>
					</trkpt>
					<trkpt lat="48.683730" lon="1.874940">
						<ele>172</ele>
						<time>2024-09-25T18:05:51Z</time>
					</trkpt>
					<trkpt lat="48.683820" lon="1.875100">
						<ele>173</ele>
						<time>2024-09-25T18:05:54Z</time>
					</trkpt>
					<trkpt lat="48.683980" lon="1.875460">
						<ele>174</ele>
						<time>2024-09-25T18:05:59Z</time>
					</trkpt>
					<trkpt lat="48.684090" lon="1.875570">
						<ele>175</ele>
						<time>2024-09-25T18:06:01Z</time>
					</trkpt>
					<trkpt lat="48.687190" lon="1.877480">
						<ele>178</ele>
						<time>2024-09-25T18:07:01Z</time>
					</trkpt>
					<trkpt lat="48.687420" lon="1.877660">
						<ele>178</ele>
						<time>2024-09-25T18:07:05Z</time>
					</trkpt>
					<trkpt lat="48.688160" lon="1.878490">
						<ele>172</ele>
						<time>2024-09-25T18:07:22Z</time>
					</trkpt>
					<trkpt lat="48.688300" lon="1.878580">
						<ele>171</ele>
						<time>2024-09-25T18:07:24Z</time>
					</trkpt>
					<trkpt lat="48.690080" lon="1.879110">
						<ele>172</ele>
						<time>2024-09-25T18:07:57Z</time>
					</trkpt>
					<trkpt lat="48.692930" lon="1.880160">
						<ele>172</ele>
						<time>2024-09-25T18:08:49Z</time>
					</trkpt>
					<trkpt lat="48.694150" lon="1.880480">
						<ele>173</ele>
						<time>2024-09-25T18:09:11Z</time>
					</trkpt>
					<trkpt lat="48.694710" lon="1.880660">
						<ele>173</ele>
						<time>2024-09-25T18:09:21Z</time>
					</trkpt>
					<trkpt lat="48.695100" lon="1.880850">
						<ele>173</ele>
						<time>2024-09-25T18:09:28Z</time>
					</trkpt>
					<trkpt lat="48.695930" lon="1.881480">
						<ele>174</ele>
						<time>2024-09-25T18:09:45Z</time>
					</trkpt>
					<trkpt lat="48.696800" lon="1.882320">
						<ele>174</ele>
						<time>2024-09-25T18:10:03Z</time>
					</trkpt>
					<trkpt lat="48.697140" lon="1.882670">
						<ele>174</ele>
						<time>2024-09-25T18:10:11Z</time>
					</trkpt>
					<trkpt lat="48.698220" lon="1.884170">
						<ele>169</ele>
						<time>2024-09-25T18:10:37Z</time>
					</trkpt>
					<trkpt lat="48.698380" lon="1.884470">
						<ele>167</ele>
						<time>2024-09-25T18:10:41Z</time>
					</trkpt>
					<trkpt lat="48.698790" lon="1.885730">
						<ele>163</ele>
						<time>2024-09-25T18:10:58Z</time>
					</trkpt>
					<trkpt lat="48.698850" lon="1.885970">
						<ele>163</ele>
						<time>2024-09-25T18:11:01Z</time>
					</trkpt>
					<trkpt lat="48.699000" lon="1.886900">
						<ele>162</ele>
						<time>2024-09-25T18:11:12Z</time>
					</trkpt>
					<trkpt lat="48.699030" lon="1.886980">
						<ele>161</ele>
						<time>2024-09-25T18:11:13Z</time>
					</trkpt>
					<trkpt lat="48.699440" lon="1.887180">
						<ele>161</ele>
						<time>2024-09-25T18:11:21Z</time>
					</trkpt>
					<trkpt lat="48.699540" lon="1.887200">
						<ele>161</ele>
						<time>2024-09-25T18:11:23Z</time>
					</trkpt>
					<trkpt lat="48.699820" lon="1.887180">
						<ele>161</ele>
						<time>2024-09-25T18:11:28Z</time>
					</trkpt>
					<trkpt lat="48.699920" lon="1.887140">
						<ele>161</ele>
						<time>2024-09-25T18:11:29Z</time>
					</trkpt>
					<trkpt lat="48.700020" lon="1.887070">
						<ele>161</ele>
						<time>2024-09-25T18:11:31Z</time>
					</trkpt>
					<trkpt lat="48.700060" lon="1.887200">
						<ele>160</ele>
						<time>2024-09-25T18:11:33Z</time>
					</trkpt>
					<trkpt lat="48.699320" lon="1.890910">
						<ele>150</ele>
						<time>2024-09-25T18:12:19Z</time>
					</trkpt>
					<trkpt lat="48.698770" lon="1.892900">
						<ele>146</ele>
						<time>2024-09-25T18:12:44Z</time>
					</trkpt>
					<trkpt lat="48.698190" lon="1.895870">
						<ele>147</ele>
						<time>2024-09-25T18:13:20Z</time>
					</trkpt>
					<trkpt lat="48.698190" lon="1.896000">
						<ele>146</ele>
						<time>2024-09-25T18:13:22Z</time>
					</trkpt>
					<trkpt lat="48.698110" lon="1.896070">
						<ele>147</ele>
						<time>2024-09-25T18:13:23Z</time>
					</trkpt>
					<trkpt lat="48.698060" lon="1.896170">
						<ele>148</ele>
						<time>2024-09-25T18:13:25Z</time>
					</trkpt>
					<trkpt lat="48.697930" lon="1.896550">
						<ele>149</ele>
						<time>2024-09-25T18:13:30Z</time>
					</trkpt>
					<trkpt lat="48.697910" lon="1.896720">
						<ele>148</ele>
						<time>2024-09-25T18:13:32Z</time>
					</trkpt>
					<trkpt lat="48.697910" lon="1.897070">
						<ele>147</ele>
						<time>2024-09-25T18:13:36Z</time>
					</trkpt>
					<trkpt lat="48.697970" lon="1.897480">
						<ele>146</ele>
						<time>2024-09-25T18:13:41Z</time>
					</trkpt>
					<trkpt lat="48.698230" lon="1.898360">
						<ele>144</ele>
						<time>2024-09-25T18:13:52Z</time>
					</trkpt>
					<trkpt lat="48.698350" lon="1.898960">
						<ele>145</ele>
						<time>2024-09-25T18:14:00Z</time>
					</trkpt>
					<trkpt lat="48.698390" lon="1.899380">
						<ele>146</ele>
						<time>2024-09-25T18:14:05Z</time>
					</trkpt>
					<trkpt lat="48.698400" lon="1.899820">
						<ele>146</ele>
						<time>2024-09-25T18:14:10Z</time>
					</trkpt>
					<trkpt lat="48.698330" lon="1.901660">
						<ele>149</ele>
						<time>2024-09-25T18:14:31Z</time>
					</trkpt>
					<trkpt lat="48.698280" lon="1.902230">
						<ele>149</ele>
						<time>2024-09-25T18:14:38Z</time>
					</trkpt>
					<trkpt lat="48.698200" lon="1.902530">
						<ele>150</ele>
						<time>2024-09-25T18:14:42Z</time>
					</trkpt>
					<trkpt lat="48.697690" lon="1.903540">
						<ele>151</ele>
						<time>2024-09-25T18:14:57Z</time>
					</trkpt>
					<trkpt lat="48.697260" lon="1.904700">
						<ele>149</ele>
						<time>2024-09-25T18:15:13Z</time>
					</trkpt>
					<trkpt lat="48.697060" lon="1.904930">
						<ele>148</ele>
						<time>2024-09-25T18:15:17Z</time>
					</trkpt>
					<trkpt lat="48.696550" lon="1.905430">
						<ele>145</ele>
						<time>2024-09-25T18:15:28Z</time>
					</trkpt>
					<trkpt lat="48.696370" lon="1.905640">
						<ele>144</ele>
						<time>2024-09-25T18:15:32Z</time>
					</trkpt>
					<trkpt lat="48.696010" lon="1.906420">
						<ele>142</ele>
						<time>2024-09-25T18:15:43Z</time>
					</trkpt>
					<trkpt lat="48.695880" lon="1.906640">
						<ele>142</ele>
						<time>2024-09-25T18:15:47Z</time>
					</trkpt>
					<trkpt lat="48.695680" lon="1.906890">
						<ele>143</ele>
						<time>2024-09-25T18:15:51Z</time>
					</trkpt>
					<trkpt lat="48.694820" lon="1.907600">
						<ele>146</ele>
						<time>2024-09-25T18:16:09Z</time>
					</trkpt>
					<trkpt lat="48.694620" lon="1.907670">
						<ele>146</ele>
						<time>2024-09-25T18:16:12Z</time>
					</trkpt>
					<trkpt lat="48.693880" lon="1.907740">
						<ele>147</ele>
						<time>2024-09-25T18:16:25Z</time>
					</trkpt>
					<trkpt lat="48.693550" lon="1.907930">
						<ele>147</ele>
						<time>2024-09-25T18:16:32Z</time>
					</trkpt>
					<trkpt lat="48.693350" lon="1.908140">
						<ele>147</ele>
						<time>2024-09-25T18:16:36Z</time>
					</trkpt>
					<trkpt lat="48.691790" lon="1.910040">
						<ele>144</ele>
						<time>2024-09-25T18:17:12Z</time>
					</trkpt>
					<trkpt lat="48.691350" lon="1.910530">
						<ele>143</ele>
						<time>2024-09-25T18:17:21Z</time>
					</trkpt>
					<trkpt lat="48.691160" lon="1.910810">
						<ele>142</ele>
						<time>2024-09-25T18:17:26Z</time>
					</trkpt>
					<trkpt lat="48.691040" lon="1.911060">
						<ele>141</ele>
						<time>2024-09-25T18:17:30Z</time>
					</trkpt>
					<trkpt lat="48.690830" lon="1.911620">
						<ele>138</ele>
						<time>2024-09-25T18:17:37Z</time>
					</trkpt>
					<trkpt lat="48.690700" lon="1.911920">
						<ele>137</ele>
						<time>2024-09-25T18:17:41Z</time>
					</trkpt>
					<trkpt lat="48.690110" lon="1.912830">
						<ele>134</ele>
						<time>2024-09-25T18:17:56Z</time>
					</trkpt>
					<trkpt lat="48.689980" lon="1.913070">
						<ele>134</ele>
						<time>2024-09-25T18:18:00Z</time>
					</trkpt>
					<trkpt lat="48.689850" lon="1.913480">
						<ele>134</ele>
						<time>2024-09-25T18:18:05Z</time>
					</trkpt>
					<trkpt lat="48.689770" lon="1.913930">
						<ele>134</ele>
						<time>2024-09-25T18:18:11Z</time>
					</trkpt>
					<trkpt lat="48.689470" lon="1.916090">
						<ele>134</ele>
						<time>2024-09-25T18:18:37Z</time>
					</trkpt>
					<trkpt lat="48.689390" lon="1.917030">
						<ele>134</ele>
						<time>2024-09-25T18:18:48Z</time>
					</trkpt>
					<trkpt lat="48.689370" lon="1.917470">
						<ele>135</ele>
						<time>2024-09-25T18:18:53Z</time>
					</trkpt>
					<trkpt lat="48.689310" lon="1.917630">
						<ele>135</ele>
						<time>2024-09-25T18:18:55Z</time>
					</trkpt>
					<trkpt lat="48.689110" lon="1.917880">
						<ele>135</ele>
						<time>2024-09-25T18:19:00Z</time>
					</trkpt>
					<trkpt lat="48.688890" lon="1.918010">
						<ele>136</ele>
						<time>2024-09-25T18:19:04Z</time>
					</trkpt>
					<trkpt lat="48.688670" lon="1.918220">
						<ele>137</ele>
						<time>2024-09-25T18:19:09Z</time>
					</trkpt>
					<trkpt lat="48.688350" lon="1.918640">
						<ele>139</ele>
						<time>2024-09-25T18:19:16Z</time>
					</trkpt>
					<trkpt lat="48.687950" lon="1.919290">
						<ele>139</ele>
						<time>2024-09-25T18:19:27Z</time>
					</trkpt>
					<trkpt lat="48.687330" lon="1.920500">
						<ele>140</ele>
						<time>2024-09-25T18:19:45Z</time>
					</trkpt>
					<trkpt lat="48.687090" lon="1.920900">
						<ele>140</ele>
						<time>2024-09-25T18:19:51Z</time>
					</trkpt>
					<trkpt lat="48.686220" lon="1.922190">
						<ele>138</ele>
						<time>2024-09-25T18:20:13Z</time>
					</trkpt>
					<trkpt lat="48.685950" lon="1.922790">
						<ele>138</ele>
						<time>2024-09-25T18:20:21Z</time>
					</trkpt>
					<trkpt lat="48.685390" lon="1.924580">
						<ele>139</ele>
						<time>2024-09-25T18:20:45Z</time>
					</trkpt>
					<trkpt lat="48.685170" lon="1.925630">
						<ele>136</ele>
						<time>2024-09-25T18:20:57Z</time>
					</trkpt>
					<trkpt lat="48.685080" lon="1.925990">
						<ele>136</ele>
						<time>2024-09-25T18:21:02Z</time>
					</trkpt>
					<trkpt lat="48.684830" lon="1.926560">
						<ele>138</ele>
						<time>2024-09-25T18:21:10Z</time>
					</trkpt>
					<trkpt lat="48.683620" lon="1.928740">
						<ele>145</ele>
						<time>2024-09-25T18:21:44Z</time>
					</trkpt>
					<trkpt lat="48.683470" lon="1.928960">
						<ele>148</ele>
						<time>2024-09-25T18:21:47Z</time>
					</trkpt>
					<trkpt lat="48.683000" lon="1.929540">
						<ele>155</ele>
						<time>2024-09-25T18:21:58Z</time>
					</trkpt>
					<trkpt lat="48.682300" lon="1.930650">
						<ele>161</ele>
						<time>2024-09-25T18:22:16Z</time>
					</trkpt>
					<trkpt lat="48.682270" lon="1.930890">
						<ele>161</ele>
						<time>2024-09-25T18:22:19Z</time>
					</trkpt>
					<trkpt lat="48.682320" lon="1.931140">
						<ele>158</ele>
						<time>2024-09-25T18:22:22Z</time>
					</trkpt>
					<trkpt lat="48.682310" lon="1.931450">
						<ele>157</ele>
						<time>2024-09-25T18:22:26Z</time>
					</trkpt>
					<trkpt lat="48.682250" lon="1.931730">
						<ele>156</ele>
						<time>2024-09-25T18:22:29Z</time>
					</trkpt>
					<trkpt lat="48.682200" lon="1.931850">
						<ele>155</ele>
						<time>2024-09-25T18:22:31Z</time>
					</trkpt>
					<trkpt lat="48.682130" lon="1.931960">
						<ele>156</ele>
						<time>2024-09-25T18:22:33Z</time>
					</trkpt>
					<trkpt lat="48.681930" lon="1.932200">
						<ele>158</ele>
						<time>2024-09-25T18:22:37Z</time>
					</trkpt>
					<trkpt lat="48.681890" lon="1.932280">
						<ele>158</ele>
						<time>2024-09-25T18:22:38Z</time>
					</trkpt>
					<trkpt lat="48.681810" lon="1.932570">
						<ele>156</ele>
						<time>2024-09-25T18:22:42Z</time>
					</trkpt>
					<trkpt lat="48.681760" lon="1.933060">
						<ele>152</ele>
						<time>2024-09-25T18:22:48Z</time>
					</trkpt>
					<trkpt lat="48.681720" lon="1.933190">
						<ele>152</ele>
						<time>2024-09-25T18:22:49Z</time>
					</trkpt>
					<trkpt lat="48.681410" lon="1.933690">
						<ele>148</ele>
						<time>2024-09-25T18:22:58Z</time>
					</trkpt>
					<trkpt lat="48.681300" lon="1.934080">
						<ele>144</ele>
						<time>2024-09-25T18:23:03Z</time>
					</trkpt>
					<trkpt lat="48.681170" lon="1.934630">
						<ele>142</ele>
						<time>2024-09-25T18:23:09Z</time>
					</trkpt>
					<trkpt lat="48.681130" lon="1.934920">
						<ele>141</ele>
						<time>2024-09-25T18:23:13Z</time>
					</trkpt>
					<trkpt lat="48.681110" lon="1.935390">
						<ele>139</ele>
						<time>2024-09-25T18:23:18Z</time>
					</trkpt>
					<trkpt lat="48.681120" lon="1.935880">
						<ele>137</ele>
						<time>2024-09-25T18:23:24Z</time>
					</trkpt>
					<trkpt lat="48.681310" lon="1.937000">
						<ele>137</ele>
						<time>2024-09-25T18:23:38Z</time>
					</trkpt>
					<trkpt lat="48.681600" lon="1.938200">
						<ele>135</ele>
						<time>2024-09-25T18:23:53Z</time>
					</trkpt>
					<trkpt lat="48.681680" lon="1.938720">
						<ele>133</ele>
						<time>2024-09-25T18:23:59Z</time>
					</trkpt>
					<trkpt lat="48.681720" lon="1.940560">
						<ele>134</ele>
						<time>2024-09-25T18:24:21Z</time>
					</trkpt>
					<trkpt lat="48.681690" lon="1.940990">
						<ele>134</ele>
						<time>2024-09-25T18:24:26Z</time>
					</trkpt>
					<trkpt lat="48.681590" lon="1.941510">
						<ele>133</ele>
						<time>2024-09-25T18:24:32Z</time>
					</trkpt>
					<trkpt lat="48.681480" lon="1.941910">
						<ele>132</ele>
						<time>2024-09-25T18:24:37Z</time>
					</trkpt>
					<trkpt lat="48.681350" lon="1.942270">
						<ele>130</ele>
						<time>2024-09-25T18:24:42Z</time>
					</trkpt>
					<trkpt lat="48.680640" lon="1.943570">
						<ele>126</ele>
						<time>2024-09-25T18:25:02Z</time>
					</trkpt>
					<trkpt lat="48.680010" lon="1.944600">
						<ele>128</ele>
						<time>2024-09-25T18:25:18Z</time>
					</trkpt>
					<trkpt lat="48.679770" lon="1.944940">
						<ele>129</ele>
						<time>2024-09-25T18:25:24Z</time>
					</trkpt>
					<trkpt lat="48.679120" lon="1.945720">
						<ele>128</ele>
						<time>2024-09-25T18:25:39Z</time>
					</trkpt>
					<trkpt lat="48.678750" lon="1.946260">
						<ele>130</ele>
						<time>2024-09-25T18:25:48Z</time>
					</trkpt>
					<trkpt lat="48.678590" lon="1.946580">
						<ele>130</ele>
						<time>2024-09-25T18:25:53Z</time>
					</trkpt>
					<trkpt lat="48.678330" lon="1.947320">
						<ele>130</ele>
						<time>2024-09-25T18:26:03Z</time>
					</trkpt>
					<trkpt lat="48.678010" lon="1.948430">
						<ele>132</ele>
						<time>2024-09-25T18:26:17Z</time>
					</trkpt>
					<trkpt lat="48.677870" lon="1.948740">
						<ele>132</ele>
						<time>2024-09-25T18:26:21Z</time>
					</trkpt>
					<trkpt lat="48.677740" lon="1.948980">
						<ele>133</ele>
						<time>2024-09-25T18:26:25Z</time>
					</trkpt>
					<trkpt lat="48.677560" lon="1.949250">
						<ele>133</ele>
						<time>2024-09-25T18:26:29Z</time>
					</trkpt>
					<trkpt lat="48.677460" lon="1.949500">
						<ele>132</ele>
						<time>2024-09-25T18:26:33Z</time>
					</trkpt>
					<trkpt lat="48.677350" lon="1.949920">
						<ele>130</ele>
						<time>2024-09-25T18:26:38Z</time>
					</trkpt>
					<trkpt lat="48.677080" lon="1.951310">
						<ele>129</ele>
						<time>2024-09-25T18:26:55Z</time>
					</trkpt>
					<trkpt lat="48.677030" lon="1.951890">
						<ele>129</ele>
						<time>2024-09-25T18:27:02Z</time>
					</trkpt>
					<trkpt lat="48.676990" lon="1.952140">
						<ele>129</ele>
						<time>2024-09-25T18:27:05Z</time>
					</trkpt>
					<trkpt lat="48.676510" lon="1.953320">
						<ele>129</ele>
						<time>2024-09-25T18:27:21Z</time>
					</trkpt>
					<trkpt lat="48.676430" lon="1.953670">
						<ele>129</ele>
						<time>2024-09-25T18:27:26Z</time>
					</trkpt>
					<trkpt lat="48.676360" lon="1.954390">
						<ele>127</ele>
						<time>2024-09-25T18:27:34Z</time>
					</trkpt>
					<trkpt lat="48.676280" lon="1.954700">
						<ele>127</ele>
						<time>2024-09-25T18:27:38Z</time>
					</trkpt>
					<trkpt lat="48.676210" lon="1.954840">
						<ele>128</ele>
						<time>2024-09-25T18:27:40Z</time>
					</trkpt>
					<trkpt lat="48.676100" lon="1.955020">
						<ele>129</ele>
						<time>2024-09-25T18:27:43Z</time>
					</trkpt>
					<trkpt lat="48.675950" lon="1.955190">
						<ele>129</ele>
						<time>2024-09-25T18:27:46Z</time>
					</trkpt>
					<trkpt lat="48.675520" lon="1.955610">
						<ele>128</ele>
						<time>2024-09-25T18:27:56Z</time>
					</trkpt>
					<trkpt lat="48.675330" lon="1.955740">
						<ele>128</ele>
						<time>2024-09-25T18:27:59Z</time>
					</trkpt>
					<trkpt lat="48.675140" lon="1.955810">
						<ele>128</ele>
						<time>2024-09-25T18:28:03Z</time>
					</trkpt>
					<trkpt lat="48.674530" lon="1.955780">
						<ele>133</ele>
						<time>2024-09-25T18:28:14Z</time>
					</trkpt>
					<trkpt lat="48.674410" lon="1.955820">
						<ele>133</ele>
						<time>2024-09-25T18:28:16Z</time>
					</trkpt>
					<trkpt lat="48.674330" lon="1.955870">
						<ele>134</ele>
						<time>2024-09-25T18:28:17Z</time>
					</trkpt>
					<trkpt lat="48.674250" lon="1.955960">
						<ele>133</ele>
						<time>2024-09-25T18:28:19Z</time>
					</trkpt>
					<trkpt lat="48.674170" lon="1.956070">
						<ele>133</ele>
						<time>2024-09-25T18:28:21Z</time>
					</trkpt>
					<trkpt lat="48.674110" lon="1.956220">
						<ele>132</ele>
						<time>2024-09-25T18:28:23Z</time>
					</trkpt>
					<trkpt lat="48.674090" lon="1.956380">
						<ele>131</ele>
						<time>2024-09-25T18:28:25Z</time>
					</trkpt>
					<trkpt lat="48.674100" lon="1.956640">
						<ele>129</ele>
						<time>2024-09-25T18:28:28Z</time>
					</trkpt>
					<trkpt lat="48.674250" lon="1.957360">
						<ele>130</ele>
						<time>2024-09-25T18:28:37Z</time>
					</trkpt>
					<trkpt lat="48.674290" lon="1.957730">
						<ele>130</ele>
						<time>2024-09-25T18:28:41Z</time>
					</trkpt>
					<trkpt lat="48.674320" lon="1.958380">
						<ele>131</ele>
						<time>2024-09-25T18:28:49Z</time>
					</trkpt>
					<trkpt lat="48.674270" lon="1.959240">
						<ele>128</ele>
						<time>2024-09-25T18:28:59Z</time>
					</trkpt>
					<trkpt lat="48.674080" lon="1.960450">
						<ele>129</ele>
						<time>2024-09-25T18:29:14Z</time>
					</trkpt>
					<trkpt lat="48.674060" lon="1.960840">
						<ele>129</ele>
						<time>2024-09-25T18:29:18Z</time>
					</trkpt>
					<trkpt lat="48.674070" lon="1.961620">
						<ele>127</ele>
						<time>2024-09-25T18:29:28Z</time>
					</trkpt>
					<trkpt lat="48.674600" lon="1.961940">
						<ele>127</ele>
						<time>2024-09-25T18:29:38Z</time>
					</trkpt>
					<trkpt lat="48.675300" lon="1.962450">
						<ele>127</ele>
						<time>2024-09-25T18:29:51Z</time>
					</trkpt>
					<trkpt lat="48.675410" lon="1.962580">
						<ele>128</ele>
						<time>2024-09-25T18:29:54Z</time>
					</trkpt>
					<trkpt lat="48.675680" lon="1.963150">
						<ele>130</ele>
						<time>2024-09-25T18:30:02Z</time>
					</trkpt>
					<trkpt lat="48.675830" lon="1.963630">
						<ele>130</ele>
						<time>2024-09-25T18:30:08Z</time>
					</trkpt>
					<trkpt lat="48.675960" lon="1.963930">
						<ele>128</ele>
						<time>2024-09-25T18:30:13Z</time>
					</trkpt>
					<trkpt lat="48.676260" lon="1.964290">
						<ele>124</ele>
						<time>2024-09-25T18:30:19Z</time>
					</trkpt>
					<trkpt lat="48.676450" lon="1.964450">
						<ele>123</ele>
						<time>2024-09-25T18:30:23Z</time>
					</trkpt>
					<trkpt lat="48.676700" lon="1.964590">
						<ele>123</ele>
						<time>2024-09-25T18:30:28Z</time>
					</trkpt>
					<trkpt lat="48.677130" lon="1.964670">
						<ele>126</ele>
						<time>2024-09-25T18:30:36Z</time>
					</trkpt>
					<trkpt lat="48.677380" lon="1.964840">
						<ele>127</ele>
						<time>2024-09-25T18:30:41Z</time>
					</trkpt>
					<trkpt lat="48.677680" lon="1.965140">
						<ele>128</ele>
						<time>2024-09-25T18:30:47Z</time>
					</trkpt>
					<trkpt lat="48.678380" lon="1.965690">
						<ele>127</ele>
						<time>2024-09-25T18:31:01Z</time>
					</trkpt>
					<trkpt lat="48.678820" lon="1.965960">
						<ele>122</ele>
						<time>2024-09-25T18:31:10Z</time>
					</trkpt>
					<trkpt lat="48.679200" lon="1.966050">
						<ele>117</ele>
						<time>2024-09-25T18:31:16Z</time>
					</trkpt>
					<trkpt lat="48.680090" lon="1.966160">
						<ele>110</ele>
						<time>2024-09-25T18:31:32Z</time>
					</trkpt>
					<trkpt lat="48.680220" lon="1.966070">
						<ele>110</ele>
						<time>2024-09-25T18:31:35Z</time>
					</trkpt>
					<trkpt lat="48.680370" lon="1.965800">
						<ele>108</ele>
						<time>2024-09-25T18:31:39Z</time>
					</trkpt>
					<trkpt lat="48.680490" lon="1.965310">
						<ele>113</ele>
						<time>2024-09-25T18:31:45Z</time>
					</trkpt>
					<trkpt lat="48.680590" lon="1.965140">
						<ele>115</ele>
						<time>2024-09-25T18:31:48Z</time>
					</trkpt>
					<trkpt lat="48.680640" lon="1.965090">
						<ele>115</ele>
						<time>2024-09-25T18:31:49Z</time>
					</trkpt>
					<trkpt lat="48.680730" lon="1.965050">
						<ele>116</ele>
						<time>2024-09-25T18:31:51Z</time>
					</trkpt>
					<trkpt lat="48.680840" lon="1.965050">
						<ele>116</ele>
						<time>2024-09-25T18:31:52Z</time>
					</trkpt>
					<trkpt lat="48.681420" lon="1.965180">
						<ele>119</ele>
						<time>2024-09-25T18:32:03Z</time>
					</trkpt>
					<trkpt lat="48.681660" lon="1.965160">
						<ele>121</ele>
						<time>2024-09-25T18:32:07Z</time>
					</trkpt>
					<trkpt lat="48.681740" lon="1.965170">
						<ele>122</ele>
						<time>2024-09-25T18:32:09Z</time>
					</trkpt>
					<trkpt lat="48.681870" lon="1.965240">
						<ele>123</ele>
						<time>2024-09-25T18:32:11Z</time>
					</trkpt>
					<trkpt lat="48.682080" lon="1.965480">
						<ele>122</ele>
						<time>2024-09-25T18:32:16Z</time>
					</trkpt>
					<trkpt lat="48.682170" lon="1.965540">
						<ele>122</ele>
						<time>2024-09-25T18:32:17Z</time>
					</trkpt>
					<trkpt lat="48.682260" lon="1.965590">
						<ele>122</ele>
						<time>2024-09-25T18:32:19Z</time>
					</trkpt>
					<trkpt lat="48.682510" lon="1.965640">
						<ele>124</ele>
						<time>2024-09-25T18:32:24Z</time>
					</trkpt>
					<trkpt lat="48.682630" lon="1.965760">
						<ele>124</ele>
						<time>2024-09-25T18:32:26Z</time>
					</trkpt>
					<trkpt lat="48.682710" lon="1.965940">
						<ele>122</ele>
						<time>2024-09-25T18:32:29Z</time>
					</trkpt>
					<trkpt lat="48.682780" lon="1.966240">
						<ele>120</ele>
						<time>2024-09-25T18:32:33Z</time>
					</trkpt>
					<trkpt lat="48.682820" lon="1.966960">
						<ele>113</ele>
						<time>2024-09-25T18:32:41Z</time>
					</trkpt>
					<trkpt lat="48.682930" lon="1.967410">
						<ele>109</ele>
						<time>2024-09-25T18:32:47Z</time>
					</trkpt>
					<trkpt lat="48.683650" lon="1.969530">
						<ele>102</ele>
						<time>2024-09-25T18:33:15Z</time>
					</trkpt>
					<trkpt lat="48.683720" lon="1.969700">
						<ele>101</ele>
						<time>2024-09-25T18:33:17Z</time>
					</trkpt>
					<trkpt lat="48.683790" lon="1.969820">
						<ele>101</ele>
						<time>2024-09-25T18:33:19Z</time>
					</trkpt>
					<trkpt lat="48.683980" lon="1.970030">
						<ele>101</ele>
						<time>2024-09-25T18:33:23Z</time>
					</trkpt>
					<trkpt lat="48.684200" lon="1.970160">
						<ele>102</ele>
						<time>2024-09-25T18:33:27Z</time>
					</trkpt>
					<trkpt lat="48.686590" lon="1.971130">
						<ele>106</ele>
						<time>2024-09-25T18:34:11Z</time>
					</trkpt>
					<trkpt lat="48.686790" lon="1.971250">
						<ele>107</ele>
						<time>2024-09-25T18:34:15Z</time>
					</trkpt>
					<trkpt lat="48.687730" lon="1.972240">
						<ele>111</ele>
						<time>2024-09-25T18:34:36Z</time>
					</trkpt>
					<trkpt lat="48.687870" lon="1.972360">
						<ele>112</ele>
						<time>2024-09-25T18:34:38Z</time>
					</trkpt>
					<trkpt lat="48.688180" lon="1.972530">
						<ele>113</ele>
						<time>2024-09-25T18:34:44Z</time>
					</trkpt>
					<trkpt lat="48.688410" lon="1.972690">
						<ele>114</ele>
						<time>2024-09-25T18:34:49Z</time>
					</trkpt>
					<trkpt lat="48.690690" lon="1.974460">
						<ele>109</ele>
						<time>2024-09-25T18:35:34Z</time>
					</trkpt>
					<trkpt lat="48.691180" lon="1.974710">
						<ele>107</ele>
						<time>2024-09-25T18:35:44Z</time>
					</trkpt>
					<trkpt lat="48.694030" lon="1.976330">
						<ele>110</ele>
						<time>2024-09-25T18:36:38Z</time>
					</trkpt>
					<trkpt lat="48.694660" lon="1.976710">
						<ele>110</ele>
						<time>2024-09-25T18:36:50Z</time>
					</trkpt>
					<trkpt lat="48.696000" lon="1.977610">
						<ele>109</ele>
						<time>2024-09-25T18:37:16Z</time>
					</trkpt>
					<trkpt lat="48.696910" lon="1.978190">
						<ele>107</ele>
						<time>2024-09-25T18:37:33Z</time>
					</trkpt>
					<trkpt lat="48.699310" lon="1.979810">
						<ele>99</ele>
						<time>2024-09-25T18:38:20Z</time>
					</trkpt>
					<trkpt lat="48.701610" lon="1.981330">
						<ele>97</ele>
						<time>2024-09-25T18:39:05Z</time>
					</trkpt>
					<trkpt lat="48.701830" lon="1.981530">
						<ele>98</ele>
						<time>2024-09-25T18:39:09Z</time>
					</trkpt>
					<trkpt lat="48.702120" lon="1.981960">
						<ele>98</ele>
						<time>2024-09-25T18:39:17Z</time>
					</trkpt>
					<trkpt lat="48.702940" lon="1.983330">
						<ele>98</ele>
						<time>2024-09-25T18:39:38Z</time>
					</trkpt>
					<trkpt lat="48.703290" lon="1.983870">
						<ele>97</ele>
						<time>2024-09-25T18:39:47Z</time>
					</trkpt>
					<trkpt lat="48.703430" lon="1.984040">
						<ele>96</ele>
						<time>2024-09-25T18:39:50Z</time>
					</trkpt>
					<trkpt lat="48.703520" lon="1.984120">
						<ele>96</ele>
						<time>2024-09-25T18:39:52Z</time>
					</trkpt>
					<trkpt lat="48.704120" lon="1.984600">
						<ele>97</ele>
						<time>2024-09-25T18:40:04Z</time>
					</trkpt>
					<trkpt lat="48.704250" lon="1.984800">
						<ele>98</ele>
						<time>2024-09-25T18:40:08Z</time>
					</trkpt>
					<trkpt lat="48.704590" lon="1.985540">
						<ele>100</ele>
						<time>2024-09-25T18:40:18Z</time>
					</trkpt>
					<trkpt lat="48.704720" lon="1.985760">
						<ele>101</ele>
						<time>2024-09-25T18:40:22Z</time>
					</trkpt>
					<trkpt lat="48.705070" lon="1.986050">
						<ele>101</ele>
						<time>2024-09-25T18:40:29Z</time>
					</trkpt>
					<trkpt lat="48.705430" lon="1.986230">
						<ele>101</ele>
						<time>2024-09-25T18:40:35Z</time>
					</trkpt>
					<trkpt lat="48.705550" lon="1.986350">
						<ele>100</ele>
						<time>2024-09-25T18:40:38Z</time>
					</trkpt>
					<trkpt lat="48.705710" lon="1.986580">
						<ele>98</ele>
						<time>2024-09-25T18:40:42Z</time>
					</trkpt>
					<trkpt lat="48.706380" lon="1.987700">
						<ele>99</ele>
						<time>2024-09-25T18:41:00Z</time>
					</trkpt>
					<trkpt lat="48.706650" lon="1.988390">
						<ele>100</ele>
						<time>2024-09-25T18:41:09Z</time>
					</trkpt>
					<trkpt lat="48.706790" lon="1.988830">
						<ele>98</ele>
						<time>2024-09-25T18:41:15Z</time>
					</trkpt>
					<trkpt lat="48.706850" lon="1.988960">
						<ele>98</ele>
						<time>2024-09-25T18:41:17Z</time>
					</trkpt>
					<trkpt lat="48.706930" lon="1.989040">
						<ele>98</ele>
						<time>2024-09-25T18:41:18Z</time>
					</trkpt>
					<trkpt lat="48.706990" lon="1.989090">
						<ele>97</ele>
						<time>2024-09-25T18:41:20Z</time>
					</trkpt>
					<trkpt lat="48.708370" lon="1.989400">
						<ele>97</ele>
						<time>2024-09-25T18:41:44Z</time>
					</trkpt>
					<trkpt lat="48.710120" lon="1.989740">
						<ele>96</ele>
						<time>2024-09-25T18:42:16Z</time>
					</trkpt>
					<trkpt lat="48.710420" lon="1.989840">
						<ele>98</ele>
						<time>2024-09-25T18:42:21Z</time>
					</trkpt>
					<trkpt lat="48.710710" lon="1.990000">
						<ele>99</ele>
						<time>2024-09-25T18:42:27Z</time>
					</trkpt>
					<trkpt lat="48.710990" lon="1.990190">
						<ele>104</ele>
						<time>2024-09-25T18:42:32Z</time>
					</trkpt>
					<trkpt lat="48.711140" lon="1.990320">
						<ele>108</ele>
						<time>2024-09-25T18:42:35Z</time>
					</trkpt>
					<trkpt lat="48.711270" lon="1.990500">
						<ele>111</ele>
						<time>2024-09-25T18:42:39Z</time>
					</trkpt>
					<trkpt lat="48.711310" lon="1.990620">
						<ele>113</ele>
						<time>2024-09-25T18:42:40Z</time>
					</trkpt>
					<trkpt lat="48.711340" lon="1.990800">
						<ele>114</ele>
						<time>2024-09-25T18:42:42Z</time>
					</trkpt>
					<trkpt lat="48.711320" lon="1.990890">
						<ele>114</ele>
						<time>2024-09-25T18:42:43Z</time>
					</trkpt>
					<trkpt lat="48.711150" lon="1.991300">
						<ele>113</ele>
						<time>2024-09-25T18:42:49Z</time>
					</trkpt>
					<trkpt lat="48.711130" lon="1.991410">
						<ele>113</ele>
						<time>2024-09-25T18:42:50Z</time>
					</trkpt>
					<trkpt lat="48.711220" lon="1.991970">
						<ele>120</ele>
						<time>2024-09-25T18:42:57Z</time>
					</trkpt>
					<trkpt lat="48.711220" lon="1.992100">
						<ele>121</ele>
						<time>2024-09-25T18:42:59Z</time>
					</trkpt>
					<trkpt lat="48.711190" lon="1.992240">
						<ele>121</ele>
						<time>2024-09-25T18:43:00Z</time>
					</trkpt>
					<trkpt lat="48.711150" lon="1.992360">
						<ele>121</ele>
						<time>2024-09-25T18:43:02Z</time>
					</trkpt>
					<trkpt lat="48.710920" lon="1.992780">
						<ele>119</ele>
						<time>2024-09-25T18:43:08Z</time>
					</trkpt>
					<trkpt lat="48.710870" lon="1.993240">
						<ele>123</ele>
						<time>2024-09-25T18:43:14Z</time>
					</trkpt>
					<trkpt lat="48.710830" lon="1.993420">
						<ele>124</ele>
						<time>2024-09-25T18:43:16Z</time>
					</trkpt>
					<trkpt lat="48.710780" lon="1.993550">
						<ele>125</ele>
						<time>2024-09-25T18:43:18Z</time>
					</trkpt>
					<trkpt lat="48.710730" lon="1.993640">
						<ele>125</ele>
						<time>2024-09-25T18:43:19Z</time>
					</trkpt>
					<trkpt lat="48.710580" lon="1.993790">
						<ele>124</ele>
						<time>2024-09-25T18:43:22Z</time>
					</trkpt>
					<trkpt lat="48.710500" lon="1.993900">
						<ele>123</ele>
						<time>2024-09-25T18:43:24Z</time>
					</trkpt>
					<trkpt lat="48.710450" lon="1.994050">
						<ele>124</ele>
						<time>2024-09-25T18:43:26Z</time>
					</trkpt>
					<trkpt lat="48.710360" lon="1.994680">
						<ele>132</ele>
						<time>2024-09-25T18:43:34Z</time>
					</trkpt>
					<trkpt lat="48.710260" lon="1.994860">
						<ele>133</ele>
						<time>2024-09-25T18:43:37Z</time>
					</trkpt>
					<trkpt lat="48.710030" lon="1.995150">
						<ele>132</ele>
						<time>2024-09-25T18:43:42Z</time>
					</trkpt>
					<trkpt lat="48.709970" lon="1.995250">
						<ele>132</ele>
						<time>2024-09-25T18:43:44Z</time>
					</trkpt>
					<trkpt lat="48.709900" lon="1.995600">
						<ele>137</ele>
						<time>2024-09-25T18:43:48Z</time>
					</trkpt>
					<trkpt lat="48.709920" lon="1.996020">
						<ele>143</ele>
						<time>2024-09-25T18:43:53Z</time>
					</trkpt>
					<trkpt lat="48.709870" lon="1.996250">
						<ele>146</ele>
						<time>2024-09-25T18:43:56Z</time>
					</trkpt>
					<trkpt lat="48.709800" lon="1.996350">
						<ele>146</ele>
						<time>2024-09-25T18:43:57Z</time>
					</trkpt>
					<trkpt lat="48.709710" lon="1.996440">
						<ele>145</ele>
						<time>2024-09-25T18:43:59Z</time>
					</trkpt>
					<trkpt lat="48.709430" lon="1.996600">
						<ele>141</ele>
						<time>2024-09-25T18:44:05Z</time>
					</trkpt>
					<trkpt lat="48.709320" lon="1.996680">
						<ele>140</ele>
						<time>2024-09-25T18:44:07Z</time>
					</trkpt>
					<trkpt lat="48.709250" lon="1.996760">
						<ele>139</ele>
						<time>2024-09-25T18:44:08Z</time>
					</trkpt>
					<trkpt lat="48.709180" lon="1.996890">
						<ele>139</ele>
						<time>2024-09-25T18:44:10Z</time>
					</trkpt>
					<trkpt lat="48.709120" lon="1.997270">
						<ele>142</ele>
						<time>2024-09-25T18:44:15Z</time>
					</trkpt>
					<trkpt lat="48.709120" lon="1.997460">
						<ele>144</ele>
						<time>2024-09-25T18:44:17Z</time>
					</trkpt>
					<trkpt lat="48.709090" lon="1.997770">
						<ele>147</ele>
						<time>2024-09-25T18:44:21Z</time>
					</trkpt>
					<trkpt lat="48.709050" lon="1.997910">
						<ele>147</ele>
						<time>2024-09-25T18:44:23Z</time>
					</trkpt>
					<trkpt lat="48.708830" lon="1.998470">
						<ele>150</ele>
						<time>2024-09-25T18:44:30Z</time>
					</trkpt>
					<trkpt lat="48.708720" lon="1.998550">
						<ele>149</ele>
						<time>2024-09-25T18:44:32Z</time>
					</trkpt>
					<trkpt lat="48.708500" lon="1.998630">
						<ele>145</ele>
						<time>2024-09-25T18:44:36Z</time>
					</trkpt>
					<trkpt lat="48.708420" lon="1.998720">
						<ele>145</ele>
						<time>2024-09-25T18:44:38Z</time>
					</trkpt>
					<trkpt lat="48.708360" lon="1.998870">
						<ele>147</ele>
						<time>2024-09-25T18:44:40Z</time>
					</trkpt>
					<trkpt lat="48.708220" lon="1.999700">
						<ele>155</ele>
						<time>2024-09-25T18:44:50Z</time>
					</trkpt>
					<trkpt lat="48.708170" lon="1.999860">
						<ele>156</ele>
						<time>2024-09-25T18:44:52Z</time>
					</trkpt>
					<trkpt lat="48.707890" lon="2.000440">
						<ele>155</ele>
						<time>2024-09-25T18:45:01Z</time>
					</trkpt>
					<trkpt lat="48.707760" lon="2.000930">
						<ele>157</ele>
						<time>2024-09-25T18:45:07Z</time>
					</trkpt>
					<trkpt lat="48.707750" lon="2.001100">
						<ele>158</ele>
						<time>2024-09-25T18:45:09Z</time>
					</trkpt>
					<trkpt lat="48.707780" lon="2.001280">
						<ele>159</ele>
						<time>2024-09-25T18:45:11Z</time>
					</trkpt>
					<trkpt lat="48.707860" lon="2.001390">
						<ele>161</ele>
						<time>2024-09-25T18:45:13Z</time>
					</trkpt>
					<trkpt lat="48.708130" lon="2.001470">
						<ele>166</ele>
						<time>2024-09-25T18:45:18Z</time>
					</trkpt>
					<trkpt lat="48.709060" lon="2.001550">
						<ele>172</ele>
						<time>2024-09-25T18:45:35Z</time>
					</trkpt>
					<trkpt lat="48.709470" lon="2.001590">
						<ele>173</ele>
						<time>2024-09-25T18:45:42Z</time>
					</trkpt>
					<trkpt lat="48.710280" lon="2.001640">
						<ele>172</ele>
						<time>2024-09-25T18:45:56Z</time>
					</trkpt>
					<trkpt lat="48.713090" lon="2.001860">
						<ele>164</ele>
						<time>2024-09-25T18:46:46Z</time>
					</trkpt>
					<trkpt lat="48.718820" lon="2.002330">
						<ele>158</ele>
						<time>2024-09-25T18:48:29Z</time>
					</trkpt>
					<trkpt lat="48.719380" lon="2.002340">
						<ele>158</ele>
						<time>2024-09-25T18:48:39Z</time>
					</trkpt>
					<trkpt lat="48.719610" lon="2.002270">
						<ele>158</ele>
						<time>2024-09-25T18:48:43Z</time>
					</trkpt>
					<trkpt lat="48.719800" lon="2.002270">
						<ele>158</ele>
						<time>2024-09-25T18:48:46Z</time>
					</trkpt>
					<trkpt lat="48.719890" lon="2.002320">
						<ele>158</ele>
						<time>2024-09-25T18:48:48Z</time>
					</trkpt>
					<trkpt lat="48.719930" lon="2.002400">
						<ele>158</ele>
						<time>2024-09-25T18:48:49Z</time>
					</trkpt>
					<trkpt lat="48.719990" lon="2.002470">
						<ele>158</ele>
						<time>2024-09-25T18:48:50Z</time>
					</trkpt>
					<trkpt lat="48.720080" lon="2.002510">
						<ele>158</ele>
						<time>2024-09-25T18:48:52Z</time>
					</trkpt>
					<trkpt lat="48.720150" lon="2.002500">
						<ele>158</ele>
						<time>2024-09-25T18:48:53Z</time>
					</trkpt>
					<trkpt lat="48.720260" lon="2.002390">
						<ele>157</ele>
						<time>2024-09-25T18:48:56Z</time>
					</trkpt>
					<trkpt lat="48.720370" lon="2.002330">
						<ele>157</ele>
						<time>2024-09-25T18:48:58Z</time>
					</trkpt>
					<trkpt lat="48.720430" lon="2.002330">
						<ele>157</ele>
						<time>2024-09-25T18:48:59Z</time>
					</trkpt>
					<trkpt lat="48.720860" lon="2.002510">
						<ele>157</ele>
						<time>2024-09-25T18:49:07Z</time>
					</trkpt>
					<trkpt lat="48.721120" lon="2.002540">
						<ele>157</ele>
						<time>2024-09-25T18:49:11Z</time>
					</trkpt>
					<trkpt lat="48.724840" lon="2.002840">
						<ele>162</ele>
						<time>2024-09-25T18:50:18Z</time>
					</trkpt>
					<trkpt lat="48.726140" lon="2.002930">
						<ele>165</ele>
						<time>2024-09-25T18:50:41Z</time>
					</trkpt>
					<trkpt lat="48.726730" lon="2.002990">
						<ele>166</ele>
						<time>2024-09-25T18:50:51Z</time>
					</trkpt>
					<trkpt lat="48.726950" lon="2.003060">
						<ele>166</ele>
						<time>2024-09-25T18:50:55Z</time>
					</trkpt>
					<trkpt lat="48.727180" lon="2.003080">
						<ele>166</ele>
						<time>2024-09-25T18:50:59Z</time>
					</trkpt>
					<trkpt lat="48.727610" lon="2.003120">
						<ele>166</ele>
						<time>2024-09-25T18:51:07Z</time>
					</trkpt>
					<trkpt lat="48.727830" lon="2.003080">
						<ele>166</ele>
						<time>2024-09-25T18:51:11Z</time>
					</trkpt>
					<trkpt lat="48.730350" lon="2.003300">
						<ele>161</ele>
						<time>2024-09-25T18:51:56Z</time>
					</trkpt>
					<trkpt lat="48.730530" lon="2.003350">
						<ele>160</ele>
						<time>2024-09-25T18:51:59Z</time>
					</trkpt>
					<trkpt lat="48.730720" lon="2.003420">
						<ele>160</ele>
						<time>2024-09-25T18:52:03Z</time>
					</trkpt>
					<trkpt lat="48.730860" lon="2.003530">
						<ele>160</ele>
						<time>2024-09-25T18:52:05Z</time>
					</trkpt>
					<trkpt lat="48.731010" lon="2.003690">
						<ele>160</ele>
						<time>2024-09-25T18:52:09Z</time>
					</trkpt>
					<trkpt lat="48.731140" lon="2.003880">
						<ele>160</ele>
						<time>2024-09-25T18:52:12Z</time>
					</trkpt>
					<trkpt lat="48.733220" lon="2.007680">
						<ele>167</ele>
						<time>2024-09-25T18:53:10Z</time>
					</trkpt>
					<trkpt lat="48.734140" lon="2.009320">
						<ele>165</ele>
						<time>2024-09-25T18:53:35Z</time>
					</trkpt>
					<trkpt lat="48.734630" lon="2.010250">
						<ele>162</ele>
						<time>2024-09-25T18:53:49Z</time>
					</trkpt>
					<trkpt lat="48.734990" lon="2.010850">
						<ele>158</ele>
						<time>2024-09-25T18:53:59Z</time>
					</trkpt>
					<trkpt lat="48.735190" lon="2.011120">
						<ele>156</ele>
						<time>2024-09-25T18:54:03Z</time>
					</trkpt>
					<trkpt lat="48.735410" lon="2.011380">
						<ele>154</ele>
						<time>2024-09-25T18:54:08Z</time>
					</trkpt>
					<trkpt lat="48.736150" lon="2.012050">
						<ele>146</ele>
						<time>2024-09-25T18:54:24Z</time>
					</trkpt>
					<trkpt lat="48.736250" lon="2.012160">
						<ele>145</ele>
						<time>2024-09-25T18:54:26Z</time>
					</trkpt>
					<trkpt lat="48.736440" lon="2.012440">
						<ele>144</ele>
						<time>2024-09-25T18:54:31Z</time>
					</trkpt>
					<trkpt lat="48.736540" lon="2.012640">
						<ele>143</ele>
						<time>2024-09-25T18:54:34Z</time>
					</trkpt>
					<trkpt lat="48.736770" lon="2.013250">
						<ele>140</ele>
						<time>2024-09-25T18:54:42Z</time>
					</trkpt>
					<trkpt lat="48.737690" lon="2.015990">
						<ele>123</ele>
						<time>2024-09-25T18:55:18Z</time>
					</trkpt>
					<trkpt lat="48.737720" lon="2.016090">
						<ele>122</ele>
						<time>2024-09-25T18:55:19Z</time>
					</trkpt>
					<trkpt lat="48.737780" lon="2.016530">
						<ele>118</ele>
						<time>2024-09-25T18:55:24Z</time>
					</trkpt>
					<trkpt lat="48.737770" lon="2.016680">
						<ele>117</ele>
						<time>2024-09-25T18:55:26Z</time>
					</trkpt>
					<trkpt lat="48.737740" lon="2.016770">
						<ele>117</ele>
						<time>2024-09-25T18:55:27Z</time>
					</trkpt>
					<trkpt lat="48.737740" lon="2.016860">
						<ele>116</ele>
						<time>2024-09-25T18:55:28Z</time>
					</trkpt>
					<trkpt lat="48.737780" lon="2.016950">
						<ele>115</ele>
						<time>2024-09-25T18:55:30Z</time>
					</trkpt>
					<trkpt lat="48.737810" lon="2.016980">
						<ele>115</ele>
						<time>2024-09-25T18:55:30Z</time>
					</trkpt>
					<trkpt lat="48.737880" lon="2.016980">
						<ele>115</ele>
						<time>2024-09-25T18:55:32Z</time>
					</trkpt>
					<trkpt lat="48.737980" lon="2.017100">
						<ele>114</ele>
						<time>2024-09-25T18:55:34Z</time>
					</trkpt>
					<trkpt lat="48.738170" lon="2.017440">
						<ele>113</ele>
						<time>2024-09-25T18:55:39Z</time>
					</trkpt>
					<trkpt lat="48.739450" lon="2.021230">
						<ele>109</ele>
						<time>2024-09-25T18:56:29Z</time>
					</trkpt>
					<trkpt lat="48.739910" lon="2.022660">
						<ele>115</ele>
						<time>2024-09-25T18:56:48Z</time>
					</trkpt>
					<trkpt lat="48.739980" lon="2.022830">
						<ele>116</ele>
						<time>2024-09-25T18:56:50Z</time>
					</trkpt>
					<trkpt lat="48.740040" lon="2.022910">
						<ele>118</ele>
						<time>2024-09-25T18:56:51Z</time>
					</trkpt>
					<trkpt lat="48.740140" lon="2.022990">
						<ele>120</ele>
						<time>2024-09-25T18:56:53Z</time>
					</trkpt>
					<trkpt lat="48.740240" lon="2.023010">
						<ele>121</ele>
						<time>2024-09-25T18:56:55Z</time>
					</trkpt>
					<trkpt lat="48.740430" lon="2.022970">
						<ele>124</ele>
						<time>2024-09-25T18:56:59Z</time>
					</trkpt>
					<trkpt lat="48.740550" lon="2.022870">
						<ele>125</ele>
						<time>2024-09-25T18:57:01Z</time>
					</trkpt>
					<trkpt lat="48.741050" lon="2.021770">
						<ele>125</ele>
						<time>2024-09-25T18:57:17Z</time>
					</trkpt>
					<trkpt lat="48.741250" lon="2.021550">
						<ele>127</ele>
						<time>2024-09-25T18:57:21Z</time>
					</trkpt>
					<trkpt lat="48.741880" lon="2.021040">
						<ele>135</ele>
						<time>2024-09-25T18:57:34Z</time>
					</trkpt>
					<trkpt lat="48.741990" lon="2.020900">
						<ele>136</ele>
						<time>2024-09-25T18:57:36Z</time>
					</trkpt>
					<trkpt lat="48.742160" lon="2.020480">
						<ele>135</ele>
						<time>2024-09-25T18:57:42Z</time>
					</trkpt>
					<trkpt lat="48.742360" lon="2.020210">
						<ele>135</ele>
						<time>2024-09-25T18:57:47Z</time>
					</trkpt>
					<trkpt lat="48.742490" lon="2.020120">
						<ele>137</ele>
						<time>2024-09-25T18:57:50Z</time>
					</trkpt>
					<trkpt lat="48.742920" lon="2.019890">
						<ele>141</ele>
						<time>2024-09-25T18:57:58Z</time>
					</trkpt>
					<trkpt lat="48.743720" lon="2.019140">
						<ele>144</ele>
						<time>2024-09-25T18:58:14Z</time>
					</trkpt>
					<trkpt lat="48.744090" lon="2.018860">
						<ele>146</ele>
						<time>2024-09-25T18:58:22Z</time>
					</trkpt>
					<trkpt lat="48.744260" lon="2.018810">
						<ele>146</ele>
						<time>2024-09-25T18:58:25Z</time>
					</trkpt>
					<trkpt lat="48.744440" lon="2.018810">
						<ele>147</ele>
						<time>2024-09-25T18:58:28Z</time>
					</trkpt>
					<trkpt lat="48.744630" lon="2.018910">
						<ele>149</ele>
						<time>2024-09-25T18:58:32Z</time>
					</trkpt>
					<trkpt lat="48.744880" lon="2.019140">
						<ele>153</ele>
						<time>2024-09-25T18:58:37Z</time>
					</trkpt>
					<trkpt lat="48.745090" lon="2.019470">
						<ele>157</ele>
						<time>2024-09-25T18:58:42Z</time>
					</trkpt>
					<trkpt lat="48.746120" lon="2.021590">
						<ele>165</ele>
						<time>2024-09-25T18:59:13Z</time>
					</trkpt>
					<trkpt lat="48.746180" lon="2.021750">
						<ele>165</ele>
						<time>2024-09-25T18:59:15Z</time>
					</trkpt>
					<trkpt lat="48.746370" lon="2.022470">
						<ele>163</ele>
						<time>2024-09-25T18:59:24Z</time>
					</trkpt>
					<trkpt lat="48.746560" lon="2.023080">
						<ele>164</ele>
						<time>2024-09-25T18:59:32Z</time>
					</trkpt>
					<trkpt lat="48.746730" lon="2.023450">
						<ele>165</ele>
						<time>2024-09-25T18:59:38Z</time>
					</trkpt>
					<trkpt lat="48.747510" lon="2.024960">
						<ele>164</ele>
						<time>2024-09-25T19:00:00Z</time>
					</trkpt>
					<trkpt lat="48.747550" lon="2.025160">
						<ele>164</ele>
						<time>2024-09-25T19:00:03Z</time>
					</trkpt>
					<trkpt lat="48.747530" lon="2.025270">
						<ele>164</ele>
						<time>2024-09-25T19:00:04Z</time>
					</trkpt>
					<trkpt lat="48.747540" lon="2.025310">
						<ele>164</ele>
						<time>2024-09-25T19:00:04Z</time>
					</trkpt>
					<trkpt lat="48.747600" lon="2.025420">
						<ele>163</ele>
						<time>2024-09-25T19:00:06Z</time>
					</trkpt>
					<trkpt lat="48.747660" lon="2.025440">
						<ele>163</ele>
						<time>2024-09-25T19:00:07Z</time>
					</trkpt>
					<trkpt lat="48.747690" lon="2.025430">
						<ele>163</ele>
						<time>2024-09-25T19:00:08Z</time>
					</trkpt>
					<trkpt lat="48.747860" lon="2.025640">
						<ele>163</ele>
						<time>2024-09-25T19:00:12Z</time>
					</trkpt>
					<trkpt lat="48.752380" lon="2.034600">
						<ele>154</ele>
						<time>2024-09-25T19:02:24Z</time>
					</trkpt>
					<trkpt lat="48.754050" lon="2.037880">
						<ele>153</ele>
						<time>2024-09-25T19:03:13Z</time>
					</trkpt>
					<trkpt lat="48.754210" lon="2.038250">
						<ele>155</ele>
						<time>2024-09-25T19:03:18Z</time>
					</trkpt>
					<trkpt lat="48.754230" lon="2.038330">
						<ele>155</ele>
						<time>2024-09-25T19:03:19Z</time>
					</trkpt>
					<trkpt lat="48.754240" lon="2.038660">
						<ele>157</ele>
						<time>2024-09-25T19:03:23Z</time>
					</trkpt>
					<trkpt lat="48.754050" lon="2.039680">
						<ele>160</ele>
						<time>2024-09-25T19:03:35Z</time>
					</trkpt>
					<trkpt lat="48.754020" lon="2.040230">
						<ele>162</ele>
						<time>2024-09-25T19:03:42Z</time>
					</trkpt>
					<trkpt lat="48.754040" lon="2.040470">
						<ele>162</ele>
						<time>2024-09-25T19:03:44Z</time>
					</trkpt>
					<trkpt lat="48.754130" lon="2.040860">
						<ele>164</ele>
						<time>2024-09-25T19:03:49Z</time>
					</trkpt>
					<trkpt lat="48.754200" lon="2.041080">
						<ele>164</ele>
						<time>2024-09-25T19:03:52Z</time>
					</trkpt>
					<trkpt lat="48.754410" lon="2.041560">
						<ele>163</ele>
						<time>2024-09-25T19:03:59Z</time>
					</trkpt>
					<trkpt lat="48.754520" lon="2.041690">
						<ele>163</ele>
						<time>2024-09-25T19:04:01Z</time>
					</trkpt>
					<trkpt lat="48.754590" lon="2.041790">
						<ele>163</ele>
						<time>2024-09-25T19:04:03Z</time>
					</trkpt>
					<trkpt lat="48.754630" lon="2.041920">
						<ele>163</ele>
						<time>2024-09-25T19:04:05Z</time>
					</trkpt>
					<trkpt lat="48.754670" lon="2.041960">
						<ele>164</ele>
						<time>2024-09-25T19:04:06Z</time>
					</trkpt>
					<trkpt lat="48.754800" lon="2.042430">
						<ele>164</ele>
						<time>2024-09-25T19:04:12Z</time>
					</trkpt>
					<trkpt lat="48.756090" lon="2.045450">
						<ele>165</ele>
						<time>2024-09-25T19:04:54Z</time>
					</trkpt>
					<trkpt lat="48.756680" lon="2.048810">
						<ele>168</ele>
						<time>2024-09-25T19:05:35Z</time>
					</trkpt>
					<trkpt lat="48.756760" lon="2.049000">
						<ele>167</ele>
						<time>2024-09-25T19:05:37Z</time>
					</trkpt>
					<trkpt lat="48.757910" lon="2.049760">
						<ele>164</ele>
						<time>2024-09-25T19:06:00Z</time>
					</trkpt>
					<trkpt lat="48.757970" lon="2.049830">
						<ele>164</ele>
						<time>2024-09-25T19:06:01Z</time>
					</trkpt>
					<trkpt lat="48.758000" lon="2.049910">
						<ele>164</ele>
						<time>2024-09-25T19:06:02Z</time>
					</trkpt>
					<trkpt lat="48.758060" lon="2.050210">
						<ele>164</ele>
						<time>2024-09-25T19:06:06Z</time>
					</trkpt>
					<trkpt lat="48.758370" lon="2.051410">
						<ele>164</ele>
						<time>2024-09-25T19:06:21Z</time>
					</trkpt>
					<trkpt lat="48.758580" lon="2.054430">
						<ele>163</ele>
						<time>2024-09-25T19:06:56Z</time>
					</trkpt>
					<trkpt lat="48.758610" lon="2.054600">
						<ele>163</ele>
						<time>2024-09-25T19:06:58Z</time>
					</trkpt>
					<trkpt lat="48.758670" lon="2.054740">
						<ele>163</ele>
						<time>2024-09-25T19:07:00Z</time>
					</trkpt>
					<trkpt lat="48.758660" lon="2.054800">
						<ele>163</ele>
						<time>2024-09-25T19:07:01Z</time>
					</trkpt>
					<trkpt lat="48.758810" lon="2.055480">
						<ele>163</ele>
						<time>2024-09-25T19:07:10Z</time>
					</trkpt>
					<trkpt lat="48.758810" lon="2.055750">
						<ele>163</ele>
						<time>2024-09-25T19:07:13Z</time>
					</trkpt>
					<trkpt lat="48.758840" lon="2.055820">
						<ele>163</ele>
						<time>2024-09-25T19:07:14Z</time>
					</trkpt>
					<trkpt lat="48.758880" lon="2.055850">
						<ele>163</ele>
						<time>2024-09-25T19:07:14Z</time>
					</trkpt>
					<trkpt lat="48.759010" lon="2.056380">
						<ele>162</ele>
						<time>2024-09-25T19:07:21Z</time>
					</trkpt>
					<trkpt lat="48.759140" lon="2.056790">
						<ele>161</ele>
						<time>2024-09-25T19:07:26Z</time>
					</trkpt>
					<trkpt lat="48.761010" lon="2.060500">
						<ele>159</ele>
						<time>2024-09-25T19:08:21Z</time>
					</trkpt>
					<trkpt lat="48.761640" lon="2.061710">
						<ele>159</ele>
						<time>2024-09-25T19:08:39Z</time>
					</trkpt>
					<trkpt lat="48.761950" lon="2.062390">
						<ele>160</ele>
						<time>2024-09-25T19:08:49Z</time>
					</trkpt>
					<trkpt lat="48.762080" lon="2.063070">
						<ele>160</ele>
						<time>2024-09-25T19:08:57Z</time>
					</trkpt>
					<trkpt lat="48.762090" lon="2.063270">
						<ele>160</ele>
						<time>2024-09-25T19:09:00Z</time>
					</trkpt>
					<trkpt lat="48.762030" lon="2.063500">
						<ele>160</ele>
						<time>2024-09-25T19:09:03Z</time>
					</trkpt>
					<trkpt lat="48.762050" lon="2.063620">
						<ele>160</ele>
						<time>2024-09-25T19:09:04Z</time>
					</trkpt>
					<trkpt lat="48.762120" lon="2.063770">
						<ele>160</ele>
						<time>2024-09-25T19:09:06Z</time>
					</trkpt>
					<trkpt lat="48.762170" lon="2.063800">
						<ele>160</ele>
						<time>2024-09-25T19:09:07Z</time>
					</trkpt>
					<trkpt lat="48.762170" lon="2.063810">
						<ele>160</ele>
						<time>2024-09-25T19:09:07Z</time>
					</trkpt>
					<trkpt lat="48.762190" lon="2.063970">
						<ele>160</ele>
						<time>2024-09-25T19:09:09Z</time>
					</trkpt>
					<trkpt lat="48.762190" lon="2.063980">
						<ele>160</ele>
						<time>2024-09-25T19:09:09Z</time>
					</trkpt>
					<trkpt lat="48.762200" lon="2.064320">
						<ele>160</ele>
						<time>2024-09-25T19:09:13Z</time>
					</trkpt>
					<trkpt lat="48.762160" lon="2.064770">
						<ele>161</ele>
						<time>2024-09-25T19:09:19Z</time>
					</trkpt>
					<trkpt lat="48.762090" lon="2.065080">
						<ele>161</ele>
						<time>2024-09-25T19:09:22Z</time>
					</trkpt>
					<trkpt lat="48.761520" lon="2.067060">
						<ele>163</ele>
						<time>2024-09-25T19:09:48Z</time>
					</trkpt>
					<trkpt lat="48.761440" lon="2.067310">
						<ele>163</ele>
						<time>2024-09-25T19:09:51Z</time>
					</trkpt>
					<trkpt lat="48.761190" lon="2.068150">
						<ele>164</ele>
						<time>2024-09-25T19:10:02Z</time>
					</trkpt>
					<trkpt lat="48.761090" lon="2.068600">
						<ele>164</ele>
						<time>2024-09-25T19:10:07Z</time>
					</trkpt>
					<trkpt lat="48.761020" lon="2.069060">
						<ele>164</ele>
						<time>2024-09-25T19:10:13Z</time>
					</trkpt>
					<trkpt lat="48.760990" lon="2.069430">
						<ele>164</ele>
						<time>2024-09-25T19:10:17Z</time>
					</trkpt>
					<trkpt lat="48.761000" lon="2.069890">
						<ele>164</ele>
						<time>2024-09-25T19:10:23Z</time>
					</trkpt>
					<trkpt lat="48.761000" lon="2.070260">
						<ele>164</ele>
						<time>2024-09-25T19:10:27Z</time>
					</trkpt>
					<trkpt lat="48.761040" lon="2.070690">
						<ele>164</ele>
						<time>2024-09-25T19:10:32Z</time>
					</trkpt>
					<trkpt lat="48.761110" lon="2.071070">
						<ele>163</ele>
						<time>2024-09-25T19:10:37Z</time>
					</trkpt>
					<trkpt lat="48.761170" lon="2.071310">
						<ele>162</ele>
						<time>2024-09-25T19:10:40Z</time>
					</trkpt>
					<trkpt lat="48.761280" lon="2.071610">
						<ele>162</ele>
						<time>2024-09-25T19:10:44Z</time>
					</trkpt>
					<trkpt lat="48.761490" lon="2.072010">
						<ele>162</ele>
						<time>2024-09-25T19:10:50Z</time>
					</trkpt>
					<trkpt lat="48.761450" lon="2.072100">
						<ele>162</ele>
						<time>2024-09-25T19:10:51Z</time>
					</trkpt>
					<trkpt lat="48.761410" lon="2.072420">
						<ele>162</ele>
						<time>2024-09-25T19:10:55Z</time>
					</trkpt>
					<trkpt lat="48.761420" lon="2.072530">
						<ele>162</ele>
						<time>2024-09-25T19:10:56Z</time>
					</trkpt>
					<trkpt lat="48.761440" lon="2.072700">
						<ele>163</ele>
						<time>2024-09-25T19:10:58Z</time>
					</trkpt>
					<trkpt lat="48.761460" lon="2.072770">
						<ele>163</ele>
						<time>2024-09-25T19:10:59Z</time>
					</trkpt>
					<trkpt lat="48.761480" lon="2.072760">
						<ele>163</ele>
						<time>2024-09-25T19:10:59Z</time>
					</trkpt>
					<trkpt lat="48.761500" lon="2.072810">
						<ele>163</ele>
						<time>2024-09-25T19:11:00Z</time>
					</trkpt>
					<trkpt lat="48.761520" lon="2.072880">
						<ele>163</ele>
						<time>2024-09-25T19:11:01Z</time>
					</trkpt>
					<trkpt lat="48.761560" lon="2.072890">
						<ele>163</ele>
						<time>2024-09-25T19:11:02Z</time>
					</trkpt>
					<trkpt lat="48.761640" lon="2.072980">
						<ele>164</ele>
						<time>2024-09-25T19:11:04Z</time>
					</trkpt>
					<trkpt lat="48.761730" lon="2.073020">
						<ele>164</ele>
						<time>2024-09-25T19:11:05Z</time>
					</trkpt>
					<trkpt lat="48.761870" lon="2.073050">
						<ele>164</ele>
						<time>2024-09-25T19:11:08Z</time>
					</trkpt>
					<trkpt lat="48.761930" lon="2.073030">
						<ele>164</ele>
						<time>2024-09-25T19:11:09Z</time>
					</trkpt>
					<trkpt lat="48.762000" lon="2.073010">
						<ele>164</ele>
						<time>2024-09-25T19:11:10Z</time>
					</trkpt>
					<trkpt lat="48.762230" lon="2.073400">
						<ele>164</ele>
						<time>2024-09-25T19:11:16Z</time>
					</trkpt>
					<trkpt lat="48.762660" lon="2.074010">
						<ele>165</ele>
						<time>2024-09-25T19:11:27Z</time>
					</trkpt>
					<trkpt lat="48.762870" lon="2.074440">
						<ele>164</ele>
						<time>2024-09-25T19:11:33Z</time>
					</trkpt>
					<trkpt lat="48.763350" lon="2.075420">
						<ele>163</ele>
						<time>2024-09-25T19:11:47Z</time>
					</trkpt>
					<trkpt lat="48.765710" lon="2.079880">
						<ele>160</ele>
						<time>2024-09-25T19:12:54Z</time>
					</trkpt>
					<trkpt lat="48.765750" lon="2.080040">
						<ele>160</ele>
						<time>2024-09-25T19:12:56Z</time>
					</trkpt>
					<trkpt lat="48.765790" lon="2.080110">
						<ele>160</ele>
						<time>2024-09-25T19:12:57Z</time>
					</trkpt>
					<trkpt lat="48.765750" lon="2.080230">
						<ele>160</ele>
						<time>2024-09-25T19:12:59Z</time>
					</trkpt>
					<trkpt lat="48.765740" lon="2.080360">
						<ele>159</ele>
						<time>2024-09-25T19:13:01Z</time>
					</trkpt>
					<trkpt lat="48.765760" lon="2.080490">
						<ele>159</ele>
						<time>2024-09-25T19:13:02Z</time>
					</trkpt>
					<trkpt lat="48.765810" lon="2.080610">
						<ele>159</ele>
						<time>2024-09-25T19:13:04Z</time>
					</trkpt>
					<trkpt lat="48.765880" lon="2.080690">
						<ele>159</ele>
						<time>2024-09-25T19:13:05Z</time>
					</trkpt>
					<trkpt lat="48.765940" lon="2.080740">
						<ele>159</ele>
						<time>2024-09-25T19:13:07Z</time>
					</trkpt>
					<trkpt lat="48.766020" lon="2.080760">
						<ele>160</ele>
						<time>2024-09-25T19:13:08Z</time>
					</trkpt>
					<trkpt lat="48.766090" lon="2.080740">
						<ele>160</ele>
						<time>2024-09-25T19:13:09Z</time>
					</trkpt>
					<trkpt lat="48.766160" lon="2.080690">
						<ele>160</ele>
						<time>2024-09-25T19:13:11Z</time>
					</trkpt>
					<trkpt lat="48.766220" lon="2.080610">
						<ele>160</ele>
						<time>2024-09-25T19:13:12Z</time>
					</trkpt>
					<trkpt lat="48.766400" lon="2.080610">
						<ele>161</ele>
						<time>2024-09-25T19:13:15Z</time>
					</trkpt>
					<trkpt lat="48.766500" lon="2.080630">
						<ele>161</ele>
						<time>2024-09-25T19:13:17Z</time>
					</trkpt>
					<trkpt lat="48.769040" lon="2.081750">
						<ele>160</ele>
						<time>2024-09-25T19:14:04Z</time>
					</trkpt>
					<trkpt lat="48.770300" lon="2.082310">
						<ele>160</ele>
						<time>2024-09-25T19:14:28Z</time>
					</trkpt>
					<trkpt lat="48.770450" lon="2.082400">
						<ele>160</ele>
						<time>2024-09-25T19:14:30Z</time>
					</trkpt>
					<trkpt lat="48.770520" lon="2.082470">
						<ele>160</ele>
						<time>2024-09-25T19:14:32Z</time>
					</trkpt>
					<trkpt lat="48.770660" lon="2.082590">
						<ele>160</ele>
						<time>2024-09-25T19:14:35Z</time>
					</trkpt>
					<trkpt lat="48.770670" lon="2.082640">
						<ele>160</ele>
						<time>2024-09-25T19:14:35Z</time>
					</trkpt>
					<trkpt lat="48.770690" lon="2.082720">
						<ele>160</ele>
						<time>2024-09-25T19:14:36Z</time>
					</trkpt>
					<trkpt lat="48.770750" lon="2.082810">
						<ele>160</ele>
						<time>2024-09-25T19:14:38Z</time>
					</trkpt>
					<trkpt lat="48.770850" lon="2.082900">
						<ele>160</ele>
						<time>2024-09-25T19:14:40Z</time>
					</trkpt>
					<trkpt lat="48.770950" lon="2.082920">
						<ele>160</ele>
						<time>2024-09-25T19:14:42Z</time>
					</trkpt>
					<trkpt lat="48.771060" lon="2.082880">
						<ele>159</ele>
						<time>2024-09-25T19:14:44Z</time>
					</trkpt>
					<trkpt lat="48.771150" lon="2.082770">
						<ele>159</ele>
						<time>2024-09-25T19:14:46Z</time>
					</trkpt>
					<trkpt lat="48.771310" lon="2.082750">
						<ele>159</ele>
						<time>2024-09-25T19:14:49Z</time>
					</trkpt>
					<trkpt lat="48.771640" lon="2.082880">
						<ele>158</ele>
						<time>2024-09-25T19:14:55Z</time>
					</trkpt>
					<trkpt lat="48.772170" lon="2.083110">
						<ele>160</ele>
						<time>2024-09-25T19:15:05Z</time>
					</trkpt>
					<trkpt lat="48.772490" lon="2.083330">
						<ele>161</ele>
						<time>2024-09-25T19:15:11Z</time>
					</trkpt>
					<trkpt lat="48.772690" lon="2.083530">
						<ele>162</ele>
						<time>2024-09-25T19:15:15Z</time>
					</trkpt>
					<trkpt lat="48.772880" lon="2.083750">
						<ele>163</ele>
						<time>2024-09-25T19:15:19Z</time>
					</trkpt>
					<trkpt lat="48.773050" lon="2.084010">
						<ele>164</ele>
						<time>2024-09-25T19:15:24Z</time>
					</trkpt>
					<trkpt lat="48.773190" lon="2.084290">
						<ele>164</ele>
						<time>2024-09-25T19:15:28Z</time>
					</trkpt>
					<trkpt lat="48.773370" lon="2.084750">
						<ele>163</ele>
						<time>2024-09-25T19:15:34Z</time>
					</trkpt>
					<trkpt lat="48.773570" lon="2.085530">
						<ele>164</ele>
						<time>2024-09-25T19:15:44Z</time>
					</trkpt>
					<trkpt lat="48.774440" lon="2.089620">
						<ele>162</ele>
						<time>2024-09-25T19:16:34Z</time>
					</trkpt>
					<trkpt lat="48.774630" lon="2.090430">
						<ele>162</ele>
						<time>2024-09-25T19:16:44Z</time>
					</trkpt>
					<trkpt lat="48.774630" lon="2.090660">
						<ele>162</ele>
						<time>2024-09-25T19:16:47Z</time>
					</trkpt>
					<trkpt lat="48.774560" lon="2.091160">
						<ele>161</ele>
						<time>2024-09-25T19:16:53Z</time>
					</trkpt>
					<trkpt lat="48.774540" lon="2.091290">
						<ele>161</ele>
						<time>2024-09-25T19:16:55Z</time>
					</trkpt>
					<trkpt lat="48.774500" lon="2.091530">
						<ele>161</ele>
						<time>2024-09-25T19:16:57Z</time>
					</trkpt>
					<trkpt lat="48.774400" lon="2.091960">
						<ele>160</ele>
						<time>2024-09-25T19:17:03Z</time>
					</trkpt>
					<trkpt lat="48.774290" lon="2.092450">
						<ele>158</ele>
						<time>2024-09-25T19:17:09Z</time>
					</trkpt>
					<trkpt lat="48.774200" lon="2.092890">
						<ele>158</ele>
						<time>2024-09-25T19:17:14Z</time>
					</trkpt>
					<trkpt lat="48.773930" lon="2.094090">
						<ele>158</ele>
						<time>2024-09-25T19:17:29Z</time>
					</trkpt>
					<trkpt lat="48.773830" lon="2.094490">
						<ele>158</ele>
						<time>2024-09-25T19:17:34Z</time>
					</trkpt>
					<trkpt lat="48.773720" lon="2.094980">
						<ele>160</ele>
						<time>2024-09-25T19:17:40Z</time>
					</trkpt>
					<trkpt lat="48.773570" lon="2.095530">
						<ele>161</ele>
						<time>2024-09-25T19:17:47Z</time>
					</trkpt>
					<trkpt lat="48.773320" lon="2.096310">
						<ele>161</ele>
						<time>2024-09-25T19:17:57Z</time>
					</trkpt>
					<trkpt lat="48.772440" lon="2.098950">
						<ele>162</ele>
						<time>2024-09-25T19:18:32Z</time>
					</trkpt>
					<trkpt lat="48.771140" lon="2.102810">
						<ele>160</ele>
						<time>2024-09-25T19:19:23Z</time>
					</trkpt>
					<trkpt lat="48.771060" lon="2.103150">
						<ele>161</ele>
						<time>2024-09-25T19:19:27Z</time>
					</trkpt>
					<trkpt lat="48.771010" lon="2.103460">
						<ele>161</ele>
						<time>2024-09-25T19:19:31Z</time>
					</trkpt>
					<trkpt lat="48.770920" lon="2.104580">
						<ele>161</ele>
						<time>2024-09-25T19:19:44Z</time>
					</trkpt>
					<trkpt lat="48.770840" lon="2.105140">
						<ele>161</ele>
						<time>2024-09-25T19:19:51Z</time>
					</trkpt>
					<trkpt lat="48.770750" lon="2.105590">
						<ele>161</ele>
						<time>2024-09-25T19:19:56Z</time>
					</trkpt>
					<trkpt lat="48.770810" lon="2.105640">
						<ele>160</ele>
						<time>2024-09-25T19:19:58Z</time>
					</trkpt>
					<trkpt lat="48.770720" lon="2.107020">
						<ele>160</ele>
						<time>2024-09-25T19:20:14Z</time>
					</trkpt>
					<trkpt lat="48.770700" lon="2.109670">
						<ele>159</ele>
						<time>2024-09-25T19:20:45Z</time>
					</trkpt>
					<trkpt lat="48.770650" lon="2.110750">
						<ele>157</ele>
						<time>2024-09-25T19:20:58Z</time>
					</trkpt>
					<trkpt lat="48.770490" lon="2.112550">
						<ele>158</ele>
						<time>2024-09-25T19:21:19Z</time>
					</trkpt>
					<trkpt lat="48.770410" lon="2.113060">
						<ele>158</ele>
						<time>2024-09-25T19:21:25Z</time>
					</trkpt>
					<trkpt lat="48.769690" lon="2.116560">
						<ele>156</ele>
						<time>2024-09-25T19:22:08Z</time>
					</trkpt>
					<trkpt lat="48.769130" lon="2.119400">
						<ele>157</ele>
						<time>2024-09-25T19:22:43Z</time>
					</trkpt>
					<trkpt lat="48.769060" lon="2.119630">
						<ele>157</ele>
						<time>2024-09-25T19:22:46Z</time>
					</trkpt>
					<trkpt lat="48.769030" lon="2.119600">
						<ele>157</ele>
						<time>2024-09-25T19:22:46Z</time>
					</trkpt>
					<trkpt lat="48.769000" lon="2.119610">
						<ele>157</ele>
						<time>2024-09-25T19:22:47Z</time>
					</trkpt>
					<trkpt lat="48.768970" lon="2.119660">
						<ele>157</ele>
						<time>2024-09-25T19:22:48Z</time>
					</trkpt>
					<trkpt lat="48.769010" lon="2.119880">
						<ele>157</ele>
						<time>2024-09-25T19:22:50Z</time>
					</trkpt>
					<trkpt lat="48.769040" lon="2.119920">
						<ele>157</ele>
						<time>2024-09-25T19:22:51Z</time>
					</trkpt>
					<trkpt lat="48.769000" lon="2.120920">
						<ele>157</ele>
						<time>2024-09-25T19:23:03Z</time>
					</trkpt>
					<trkpt lat="48.768940" lon="2.121000">
						<ele>157</ele>
						<time>2024-09-25T19:23:04Z</time>
					</trkpt>
					<trkpt lat="48.768770" lon="2.124820">
						<ele>152</ele>
						<time>2024-09-25T19:23:49Z</time>
					</trkpt>
					<trkpt lat="48.768650" lon="2.128150">
						<ele>149</ele>
						<time>2024-09-25T19:24:28Z</time>
					</trkpt>
					<trkpt lat="48.768660" lon="2.128370">
						<ele>149</ele>
						<time>2024-09-25T19:24:31Z</time>
					</trkpt>
					<trkpt lat="48.768700" lon="2.128620">
						<ele>149</ele>
						<time>2024-09-25T19:24:34Z</time>
					</trkpt>
					<trkpt lat="48.768750" lon="2.128760">
						<ele>149</ele>
						<time>2024-09-25T19:24:36Z</time>
					</trkpt>
					<trkpt lat="48.768760" lon="2.128880">
						<ele>149</ele>
						<time>2024-09-25T19:24:37Z</time>
					</trkpt>
					<trkpt lat="48.768800" lon="2.128910">
						<ele>149</ele>
						<time>2024-09-25T19:24:38Z</time>
					</trkpt>
					<trkpt lat="48.768790" lon="2.128960">
						<ele>149</ele>
						<time>2024-09-25T19:24:39Z</time>
					</trkpt>
					<trkpt lat="48.768720" lon="2.129020">
						<ele>150</ele>
						<time>2024-09-25T19:24:40Z</time>
					</trkpt>
					<trkpt lat="48.768760" lon="2.129160">
						<ele>149</ele>
						<time>2024-09-25T19:24:42Z</time>
					</trkpt>
					<trkpt lat="48.768000" lon="2.129530">
						<ele>151</ele>
						<time>2024-09-25T19:24:56Z</time>
					</trkpt>
					<trkpt lat="48.767940" lon="2.129630">
						<ele>150</ele>
						<time>2024-09-25T19:24:58Z</time>
					</trkpt>
					<trkpt lat="48.767920" lon="2.129730">
						<ele>150</ele>
						<time>2024-09-25T19:24:59Z</time>
					</trkpt>
					<trkpt lat="48.767960" lon="2.130100">
						<ele>150</ele>
						<time>2024-09-25T19:25:03Z</time>
					</trkpt>
					<trkpt lat="48.767970" lon="2.130430">
						<ele>150</ele>
						<time>2024-09-25T19:25:07Z</time>
					</trkpt>
					<trkpt lat="48.767910" lon="2.130650">
						<ele>151</ele>
						<time>2024-09-25T19:25:10Z</time>
					</trkpt>
					<trkpt lat="48.767490" lon="2.131700">
						<ele>150</ele>
						<time>2024-09-25T19:25:24Z</time>
					</trkpt>
					<trkpt lat="48.767380" lon="2.132070">
						<ele>150</ele>
						<time>2024-09-25T19:25:29Z</time>
					</trkpt>
					<trkpt lat="48.767110" lon="2.133730">
						<ele>150</ele>
						<time>2024-09-25T19:25:49Z</time>
					</trkpt>
					<trkpt lat="48.766850" lon="2.134560">
						<ele>148</ele>
						<time>2024-09-25T19:26:00Z</time>
					</trkpt>
					<trkpt lat="48.766560" lon="2.135380">
						<ele>146</ele>
						<time>2024-09-25T19:26:11Z</time>
					</trkpt>
					<trkpt lat="48.766210" lon="2.136510">
						<ele>148</ele>
						<time>2024-09-25T19:26:25Z</time>
					</trkpt>
					<trkpt lat="48.766020" lon="2.137360">
						<ele>148</ele>
						<time>2024-09-25T19:26:36Z</time>
					</trkpt>
					<trkpt lat="48.765880" lon="2.137880">
						<ele>148</ele>
						<time>2024-09-25T19:26:43Z</time>
					</trkpt>
					<trkpt lat="48.765710" lon="2.138200">
						<ele>148</ele>
						<time>2024-09-25T19:26:47Z</time>
					</trkpt>
					<trkpt lat="48.765350" lon="2.138630">
						<ele>148</ele>
						<time>2024-09-25T19:26:56Z</time>
					</trkpt>
					<trkpt lat="48.765320" lon="2.138580">
						<ele>148</ele>
						<time>2024-09-25T19:26:56Z</time>
					</trkpt>
					<trkpt lat="48.765090" lon="2.139170">
						<ele>148</ele>
						<time>2024-09-25T19:27:04Z</time>
					</trkpt>
					<trkpt lat="48.764740" lon="2.140320">
						<ele>147</ele>
						<time>2024-09-25T19:27:19Z</time>
					</trkpt>
					<trkpt lat="48.764990" lon="2.140420">
						<ele>146</ele>
						<time>2024-09-25T19:27:24Z</time>
					</trkpt>
					<trkpt lat="48.765640" lon="2.140800">
						<ele>145</ele>
						<time>2024-09-25T19:27:36Z</time>
					</trkpt>
					<trkpt lat="48.765990" lon="2.140930">
						<ele>143</ele>
						<time>2024-09-25T19:27:43Z</time>
					</trkpt>
					<trkpt lat="48.766600" lon="2.141360">
						<ele>136</ele>
						<time>2024-09-25T19:27:55Z</time>
					</trkpt>
					<trkpt lat="48.766660" lon="2.141430">
						<ele>134</ele>
						<time>2024-09-25T19:27:56Z</time>
					</trkpt>
					<trkpt lat="48.766740" lon="2.141430">
						<ele>134</ele>
						<time>2024-09-25T19:27:57Z</time>
					</trkpt>
					<trkpt lat="48.766830" lon="2.141490">
						<ele>132</ele>
						<time>2024-09-25T19:27:59Z</time>
					</trkpt>
					<trkpt lat="48.767180" lon="2.141890">
						<ele>125</ele>
						<time>2024-09-25T19:28:07Z</time>
					</trkpt>
					<trkpt lat="48.768580" lon="2.143630">
						<ele>104</ele>
						<time>2024-09-25T19:28:39Z</time>
					</trkpt>
					<trkpt lat="48.769070" lon="2.144280">
						<ele>99</ele>
						<time>2024-09-25T19:28:51Z</time>
					</trkpt>
					<trkpt lat="48.769660" lon="2.144950">
						<ele>100</ele>
						<time>2024-09-25T19:29:04Z</time>
					</trkpt>
					<trkpt lat="48.770030" lon="2.145430">
						<ele>101</ele>
						<time>2024-09-25T19:29:12Z</time>
					</trkpt>
					<trkpt lat="48.770570" lon="2.146450">
						<ele>106</ele>
						<time>2024-09-25T19:29:28Z</time>
					</trkpt>
					<trkpt lat="48.771030" lon="2.147230">
						<ele>109</ele>
						<time>2024-09-25T19:29:40Z</time>
					</trkpt>
					<trkpt lat="48.771020" lon="2.147320">
						<ele>108</ele>
						<time>2024-09-25T19:29:41Z</time>
					</trkpt>
					<trkpt lat="48.770830" lon="2.147330">
						<ele>107</ele>
						<time>2024-09-25T19:29:45Z</time>
					</trkpt>
					<trkpt lat="48.770600" lon="2.147440">
						<ele>105</ele>
						<time>2024-09-25T19:29:49Z</time>
					</trkpt>
					<trkpt lat="48.770500" lon="2.147510">
						<ele>105</ele>
						<time>2024-09-25T19:29:51Z</time>
					</trkpt>
					<trkpt lat="48.770310" lon="2.147730">
						<ele>105</ele>
						<time>2024-09-25T19:29:55Z</time>
					</trkpt>
					<trkpt lat="48.770010" lon="2.148250">
						<ele>102</ele>
						<time>2024-09-25T19:30:03Z</time>
					</trkpt>
					<trkpt lat="48.769770" lon="2.148820">
						<ele>106</ele>
						<time>2024-09-25T19:30:11Z</time>
					</trkpt>
					<trkpt lat="48.769720" lon="2.148890">
						<ele>106</ele>
						<time>2024-09-25T19:30:12Z</time>
					</trkpt>
					<trkpt lat="48.769560" lon="2.149290">
						<ele>107</ele>
						<time>2024-09-25T19:30:18Z</time>
					</trkpt>
					<trkpt lat="48.769540" lon="2.149420">
						<ele>108</ele>
						<time>2024-09-25T19:30:19Z</time>
					</trkpt>
					<trkpt lat="48.769350" lon="2.149890">
						<ele>107</ele>
						<time>2024-09-25T19:30:26Z</time>
					</trkpt>
					<trkpt lat="48.769060" lon="2.150690">
						<ele>107</ele>
						<time>2024-09-25T19:30:37Z</time>
					</trkpt>
					<trkpt lat="48.768960" lon="2.151020">
						<ele>106</ele>
						<time>2024-09-25T19:30:41Z</time>
					</trkpt>
					<trkpt lat="48.768920" lon="2.151280">
						<ele>105</ele>
						<time>2024-09-25T19:30:44Z</time>
					</trkpt>
					<trkpt lat="48.768920" lon="2.151900">
						<ele>105</ele>
						<time>2024-09-25T19:30:51Z</time>
					</trkpt>
					<trkpt lat="48.768940" lon="2.152100">
						<ele>106</ele>
						<time>2024-09-25T19:30:54Z</time>
					</trkpt>
					<trkpt lat="48.768950" lon="2.152690">
						<ele>106</ele>
						<time>2024-09-25T19:31:00Z</time>
					</trkpt>
					<trkpt lat="48.768940" lon="2.153250">
						<ele>104</ele>
						<time>2024-09-25T19:31:07Z</time>
					</trkpt>
					<trkpt lat="48.768920" lon="2.153430">
						<ele>103</ele>
						<time>2024-09-25T19:31:09Z</time>
					</trkpt>
					<trkpt lat="48.768910" lon="2.154110">
						<ele>104</ele>
						<time>2024-09-25T19:31:17Z</time>
					</trkpt>
					<trkpt lat="48.768850" lon="2.154520">
						<ele>105</ele>
						<time>2024-09-25T19:31:22Z</time>
					</trkpt>
					<trkpt lat="48.768520" lon="2.155380">
						<ele>104</ele>
						<time>2024-09-25T19:31:34Z</time>
					</trkpt>
					<trkpt lat="48.768460" lon="2.155450">
						<ele>103</ele>
						<time>2024-09-25T19:31:35Z</time>
					</trkpt>
					<trkpt lat="48.768160" lon="2.156230">
						<ele>103</ele>
						<time>2024-09-25T19:31:46Z</time>
					</trkpt>
					<trkpt lat="48.768060" lon="2.156440">
						<ele>102</ele>
						<time>2024-09-25T19:31:49Z</time>
					</trkpt>
					<trkpt lat="48.768010" lon="2.156570">
						<ele>102</ele>
						<time>2024-09-25T19:31:50Z</time>
					</trkpt>
					<trkpt lat="48.767990" lon="2.156680">
						<ele>102</ele>
						<time>2024-09-25T19:31:52Z</time>
					</trkpt>
					<trkpt lat="48.767500" lon="2.157910">
						<ele>101</ele>
						<time>2024-09-25T19:32:09Z</time>
					</trkpt>
					<trkpt lat="48.767460" lon="2.157950">
						<ele>101</ele>
						<time>2024-09-25T19:32:10Z</time>
					</trkpt>
					<trkpt lat="48.767360" lon="2.158240">
						<ele>103</ele>
						<time>2024-09-25T19:32:13Z</time>
					</trkpt>
					<trkpt lat="48.767120" lon="2.158820">
						<ele>103</ele>
						<time>2024-09-25T19:32:21Z</time>
					</trkpt>
					<trkpt lat="48.766890" lon="2.159310">
						<ele>100</ele>
						<time>2024-09-25T19:32:28Z</time>
					</trkpt>
					<trkpt lat="48.766850" lon="2.159430">
						<ele>100</ele>
						<time>2024-09-25T19:32:30Z</time>
					</trkpt>
					<trkpt lat="48.766720" lon="2.159560">
						<ele>98</ele>
						<time>2024-09-25T19:32:33Z</time>
					</trkpt>
					<trkpt lat="48.766160" lon="2.159980">
						<ele>93</ele>
						<time>2024-09-25T19:32:44Z</time>
					</trkpt>
					<trkpt lat="48.766020" lon="2.160010">
						<ele>92</ele>
						<time>2024-09-25T19:32:46Z</time>
					</trkpt>
					<trkpt lat="48.765880" lon="2.160120">
						<ele>91</ele>
						<time>2024-09-25T19:32:49Z</time>
					</trkpt>
					<trkpt lat="48.765790" lon="2.160230">
						<ele>91</ele>
						<time>2024-09-25T19:32:51Z</time>
					</trkpt>
					<trkpt lat="48.765400" lon="2.160530">
						<ele>91</ele>
						<time>2024-09-25T19:32:59Z</time>
					</trkpt>
					<trkpt lat="48.765260" lon="2.160610">
						<ele>92</ele>
						<time>2024-09-25T19:33:02Z</time>
					</trkpt>
					<trkpt lat="48.765150" lon="2.160710">
						<ele>92</ele>
						<time>2024-09-25T19:33:04Z</time>
					</trkpt>
					<trkpt lat="48.765100" lon="2.160710">
						<ele>92</ele>
						<time>2024-09-25T19:33:05Z</time>
					</trkpt>
					<trkpt lat="48.765050" lon="2.160770">
						<ele>92</ele>
						<time>2024-09-25T19:33:06Z</time>
					</trkpt>
					<trkpt lat="48.765040" lon="2.160850">
						<ele>92</ele>
						<time>2024-09-25T19:33:07Z</time>
					</trkpt>
					<trkpt lat="48.765060" lon="2.160930">
						<ele>92</ele>
						<time>2024-09-25T19:33:08Z</time>
					</trkpt>
					<trkpt lat="48.765150" lon="2.161080">
						<ele>92</ele>
						<time>2024-09-25T19:33:10Z</time>
					</trkpt>
					<trkpt lat="48.765210" lon="2.161250">
						<ele>92</ele>
						<time>2024-09-25T19:33:13Z</time>
					</trkpt>
					<trkpt lat="48.765190" lon="2.162400">
						<ele>91</ele>
						<time>2024-09-25T19:33:26Z</time>
					</trkpt>
					<trkpt lat="48.765190" lon="2.163600">
						<ele>91</ele>
						<time>2024-09-25T19:33:40Z</time>
					</trkpt>
					<trkpt lat="48.765170" lon="2.164040">
						<ele>91</ele>
						<time>2024-09-25T19:33:45Z</time>
					</trkpt>
					<trkpt lat="48.765020" lon="2.165720">
						<ele>90</ele>
						<time>2024-09-25T19:34:05Z</time>
					</trkpt>
					<trkpt lat="48.764900" lon="2.167390">
						<ele>88</ele>
						<time>2024-09-25T19:34:25Z</time>
					</trkpt>
					<trkpt lat="48.764860" lon="2.168710">
						<ele>88</ele>
						<time>2024-09-25T19:34:40Z</time>
					</trkpt>
					<trkpt lat="48.765800" lon="2.169490">
						<ele>92</ele>
						<time>2024-09-25T19:35:00Z</time>
					</trkpt>
					<trkpt lat="48.765920" lon="2.169630">
						<ele>94</ele>
						<time>2024-09-25T19:35:02Z</time>
					</trkpt>
					<trkpt lat="48.766450" lon="2.170070">
						<ele>100</ele>
						<time>2024-09-25T19:35:13Z</time>
					</trkpt>
					<trkpt lat="48.767020" lon="2.170920">
						<ele>107</ele>
						<time>2024-09-25T19:35:27Z</time>
					</trkpt>
					<trkpt lat="48.767170" lon="2.171120">
						<ele>108</ele>
						<time>2024-09-25T19:35:31Z</time>
					</trkpt>
					<trkpt lat="48.767360" lon="2.171330">
						<ele>110</ele>
						<time>2024-09-25T19:35:35Z</time>
					</trkpt>
					<trkpt lat="48.771270" lon="2.173900">
						<ele>131</ele>
						<time>2024-09-25T19:36:51Z</time>
					</trkpt>
					<trkpt lat="48.771420" lon="2.173880">
						<ele>132</ele>
						<time>2024-09-25T19:36:53Z</time>
					</trkpt>
					<trkpt lat="48.771520" lon="2.173810">
						<ele>133</ele>
						<time>2024-09-25T19:36:55Z</time>
					</trkpt>
					<trkpt lat="48.771590" lon="2.173700">
						<ele>133</ele>
						<time>2024-09-25T19:36:57Z</time>
					</trkpt>
					<trkpt lat="48.771870" lon="2.173000">
						<ele>134</ele>
						<time>2024-09-25T19:37:07Z</time>
					</trkpt>
					<trkpt lat="48.771920" lon="2.172920">
						<ele>134</ele>
						<time>2024-09-25T19:37:08Z</time>
					</trkpt>
					<trkpt lat="48.772070" lon="2.172770">
						<ele>135</ele>
						<time>2024-09-25T19:37:11Z</time>
					</trkpt>
					<trkpt lat="48.772250" lon="2.172670">
						<ele>135</ele>
						<time>2024-09-25T19:37:15Z</time>
					</trkpt>
					<trkpt lat="48.772430" lon="2.172660">
						<ele>135</ele>
						<time>2024-09-25T19:37:18Z</time>
					</trkpt>
					<trkpt lat="48.772700" lon="2.172730">
						<ele>137</ele>
						<time>2024-09-25T19:37:23Z</time>
					</trkpt>
					<trkpt lat="48.773450" lon="2.173020">
						<ele>142</ele>
						<time>2024-09-25T19:37:37Z</time>
					</trkpt>
					<trkpt lat="48.773640" lon="2.173020">
						<ele>143</ele>
						<time>2024-09-25T19:37:40Z</time>
					</trkpt>
					<trkpt lat="48.773830" lon="2.172960">
						<ele>143</ele>
						<time>2024-09-25T19:37:43Z</time>
					</trkpt>
					<trkpt lat="48.774170" lon="2.172750">
						<ele>144</ele>
						<time>2024-09-25T19:37:50Z</time>
					</trkpt>
					<trkpt lat="48.774350" lon="2.172600">
						<ele>146</ele>
						<time>2024-09-25T19:37:54Z</time>
					</trkpt>
					<trkpt lat="48.774440" lon="2.172480">
						<ele>147</ele>
						<time>2024-09-25T19:37:56Z</time>
					</trkpt>
					<trkpt lat="48.774890" lon="2.171650">
						<ele>156</ele>
						<time>2024-09-25T19:38:08Z</time>
					</trkpt>
					<trkpt lat="48.775030" lon="2.171480">
						<ele>158</ele>
						<time>2024-09-25T19:38:11Z</time>
					</trkpt>
					<trkpt lat="48.775290" lon="2.171250">
						<ele>160</ele>
						<time>2024-09-25T19:38:17Z</time>
					</trkpt>
					<trkpt lat="48.775650" lon="2.171030">
						<ele>164</ele>
						<time>2024-09-25T19:38:24Z</time>
					</trkpt>
					<trkpt lat="48.775770" lon="2.170980">
						<ele>165</ele>
						<time>2024-09-25T19:38:26Z</time>
					</trkpt>
					<trkpt lat="48.776010" lon="2.170990">
						<ele>165</ele>
						<time>2024-09-25T19:38:30Z</time>
					</trkpt>
					<trkpt lat="48.776610" lon="2.171210">
						<ele>165</ele>
						<time>2024-09-25T19:38:41Z</time>
					</trkpt>
					<trkpt lat="48.776750" lon="2.171220">
						<ele>166</ele>
						<time>2024-09-25T19:38:44Z</time>
					</trkpt>
					<trkpt lat="48.776920" lon="2.171130">
						<ele>166</ele>
						<time>2024-09-25T19:38:47Z</time>
					</trkpt>
					<trkpt lat="48.778700" lon="2.169270">
						<ele>170</ele>
						<time>2024-09-25T19:39:25Z</time>
					</trkpt>
					<trkpt lat="48.778830" lon="2.169160">
						<ele>171</ele>
						<time>2024-09-25T19:39:28Z</time>
					</trkpt>
					<trkpt lat="48.779030" lon="2.169110">
						<ele>171</ele>
						<time>2024-09-25T19:39:32Z</time>
					</trkpt>
					<trkpt lat="48.780280" lon="2.169070">
						<ele>174</ele>
						<time>2024-09-25T19:39:54Z</time>
					</trkpt>
					<trkpt lat="48.780300" lon="2.169150">
						<ele>174</ele>
						<time>2024-09-25T19:39:55Z</time>
					</trkpt>
					<trkpt lat="48.780350" lon="2.169220">
						<ele>174</ele>
						<time>2024-09-25T19:39:56Z</time>
					</trkpt>
					<trkpt lat="48.780420" lon="2.169480">
						<ele>174</ele>
						<time>2024-09-25T19:39:59Z</time>
					</trkpt>
					<trkpt lat="48.780430" lon="2.169790">
						<ele>174</ele>
						<time>2024-09-25T19:40:03Z</time>
					</trkpt>
					<trkpt lat="48.780410" lon="2.169950">
						<ele>174</ele>
						<time>2024-09-25T19:40:05Z</time>
					</trkpt>
					<trkpt lat="48.780330" lon="2.170270">
						<ele>173</ele>
						<time>2024-09-25T19:40:09Z</time>
					</trkpt>
					<trkpt lat="48.780260" lon="2.170500">
						<ele>173</ele>
						<time>2024-09-25T19:40:12Z</time>
					</trkpt>
					<trkpt lat="48.780140" lon="2.170780">
						<ele>173</ele>
						<time>2024-09-25T19:40:16Z</time>
					</trkpt>
					<trkpt lat="48.780050" lon="2.170940">
						<ele>172</ele>
						<time>2024-09-25T19:40:18Z</time>
					</trkpt>
					<trkpt lat="48.779490" lon="2.171740">
						<ele>176</ele>
						<time>2024-09-25T19:40:32Z</time>
					</trkpt>
					<trkpt lat="48.779320" lon="2.172180">
						<ele>177</ele>
						<time>2024-09-25T19:40:38Z</time>
					</trkpt>
					<trkpt lat="48.779260" lon="2.172480">
						<ele>178</ele>
						<time>2024-09-25T19:40:42Z</time>
					</trkpt>
					<trkpt lat="48.779220" lon="2.172840">
						<ele>178</ele>
						<time>2024-09-25T19:40:46Z</time>
					</trkpt>
					<trkpt lat="48.779240" lon="2.174070">
						<ele>177</ele>
						<time>2024-09-25T19:41:00Z</time>
					</trkpt>
					<trkpt lat="48.779210" lon="2.174560">
						<ele>176</ele>
						<time>2024-09-25T19:41:06Z</time>
					</trkpt>
					<trkpt lat="48.779320" lon="2.174780">
						<ele>176</ele>
						<time>2024-09-25T19:41:09Z</time>
					</trkpt>
					<trkpt lat="48.779350" lon="2.174790">
						<ele>176</ele>
						<time>2024-09-25T19:41:10Z</time>
					</trkpt>
					<trkpt lat="48.779540" lon="2.174820">
						<ele>175</ele>
						<time>2024-09-25T19:41:13Z</time>
					</trkpt>
					<trkpt lat="48.779710" lon="2.174720">
						<ele>175</ele>
						<time>2024-09-25T19:41:17Z</time>
					</trkpt>
					<trkpt lat="48.780350" lon="2.174110">
						<ele>175</ele>
						<time>2024-09-25T19:41:30Z</time>
					</trkpt>
					<trkpt lat="48.780450" lon="2.174040">
						<ele>176</ele>
						<time>2024-09-25T19:41:32Z</time>
					</trkpt>
					<trkpt lat="48.780820" lon="2.174070">
						<ele>177</ele>
						<time>2024-09-25T19:41:39Z</time>
					</trkpt>
					<trkpt lat="48.781190" lon="2.174130">
						<ele>178</ele>
						<time>2024-09-25T19:41:45Z</time>
					</trkpt>
					<trkpt lat="48.781380" lon="2.174080">
						<ele>178</ele>
						<time>2024-09-25T19:41:49Z</time>
					</trkpt>
					<trkpt lat="48.781770" lon="2.173790">
						<ele>177</ele>
						<time>2024-09-25T19:41:56Z</time>
					</trkpt>
					<trkpt lat="48.781920" lon="2.173730">
						<ele>177</ele>
						<time>2024-09-25T19:41:59Z</time>
					</trkpt>
					<trkpt lat="48.782050" lon="2.173730">
						<ele>177</ele>
						<time>2024-09-25T19:42:01Z</time>
					</trkpt>
					<trkpt lat="48.782130" lon="2.173760">
						<ele>177</ele>
						<time>2024-09-25T19:42:03Z</time>
					</trkpt>
					<trkpt lat="48.782270" lon="2.173870">
						<ele>177</ele>
						<time>2024-09-25T19:42:06Z</time>
					</trkpt>
					<trkpt lat="48.782360" lon="2.173990">
						<ele>177</ele>
						<time>2024-09-25T19:42:08Z</time>
					</trkpt>
					<trkpt lat="48.782460" lon="2.174220">
						<ele>176</ele>
						<time>2024-09-25T19:42:11Z</time>
					</trkpt>
					<trkpt lat="48.782610" lon="2.174810">
						<ele>175</ele>
						<time>2024-09-25T19:42:18Z</time>
					</trkpt>
					<trkpt lat="48.782700" lon="2.175040">
						<ele>176</ele>
						<time>2024-09-25T19:42:22Z</time>
					</trkpt>
					<trkpt lat="48.784250" lon="2.177670">
						<ele>177</ele>
						<time>2024-09-25T19:43:03Z</time>
					</trkpt>
					<trkpt lat="48.785160" lon="2.179260">
						<ele>179</ele>
						<time>2024-09-25T19:43:28Z</time>
					</trkpt>
					<trkpt lat="48.785300" lon="2.179450">
						<ele>178</ele>
						<time>2024-09-25T19:43:31Z</time>
					</trkpt>
					<trkpt lat="48.785320" lon="2.179550">
						<ele>178</ele>
						<time>2024-09-25T19:43:32Z</time>
					</trkpt>
					<trkpt lat="48.785400" lon="2.179660">
						<ele>177</ele>
						<time>2024-09-25T19:43:34Z</time>
					</trkpt>
					<trkpt lat="48.785390" lon="2.179740">
						<ele>177</ele>
						<time>2024-09-25T19:43:35Z</time>
					</trkpt>
					<trkpt lat="48.785460" lon="2.179770">
						<ele>177</ele>
						<time>2024-09-25T19:43:36Z</time>
					</trkpt>
					<trkpt lat="48.785660" lon="2.179760">
						<ele>177</ele>
						<time>2024-09-25T19:43:40Z</time>
					</trkpt>
					<trkpt lat="48.786130" lon="2.179690">
						<ele>176</ele>
						<time>2024-09-25T19:43:48Z</time>
					</trkpt>
					<trkpt lat="48.788280" lon="2.179430">
						<ele>174</ele>
						<time>2024-09-25T19:44:27Z</time>
					</trkpt>
					<trkpt lat="48.788370" lon="2.179450">
						<ele>174</ele>
						<time>2024-09-25T19:44:28Z</time>
					</trkpt>
					<trkpt lat="48.788350" lon="2.179570">
						<ele>174</ele>
						<time>2024-09-25T19:44:30Z</time>
					</trkpt>
					<trkpt lat="48.788360" lon="2.179690">
						<ele>174</ele>
						<time>2024-09-25T19:44:31Z</time>
					</trkpt>
					<trkpt lat="48.788490" lon="2.179670">
						<ele>174</ele>
						<time>2024-09-25T19:44:34Z</time>
					</trkpt>
					<trkpt lat="48.788940" lon="2.179840">
						<ele>175</ele>
						<time>2024-09-25T19:44:42Z</time>
					</trkpt>
					<trkpt lat="48.790350" lon="2.180160">
						<ele>167</ele>
						<time>2024-09-25T19:45:07Z</time>
					</trkpt>
					<trkpt lat="48.790850" lon="2.180160">
						<ele>162</ele>
						<time>2024-09-25T19:45:16Z</time>
					</trkpt>
					<trkpt lat="48.791010" lon="2.180130">
						<ele>161</ele>
						<time>2024-09-25T19:45:19Z</time>
					</trkpt>
					<trkpt lat="48.791320" lon="2.180030">
						<ele>159</ele>
						<time>2024-09-25T19:45:25Z</time>
					</trkpt>
					<trkpt lat="48.792810" lon="2.179360">
						<ele>144</ele>
						<time>2024-09-25T19:45:52Z</time>
					</trkpt>
					<trkpt lat="48.793050" lon="2.179300">
						<ele>142</ele>
						<time>2024-09-25T19:45:57Z</time>
					</trkpt>
					<trkpt lat="48.793210" lon="2.179280">
						<ele>141</ele>
						<time>2024-09-25T19:45:59Z</time>
					</trkpt>
					<trkpt lat="48.793710" lon="2.179350">
						<ele>137</ele>
						<time>2024-09-25T19:46:08Z</time>
					</trkpt>
					<trkpt lat="48.793980" lon="2.179460">
						<ele>135</ele>
						<time>2024-09-25T19:46:13Z</time>
					</trkpt>
					<trkpt lat="48.794300" lon="2.179670">
						<ele>132</ele>
						<time>2024-09-25T19:46:19Z</time>
					</trkpt>
					<trkpt lat="48.794600" lon="2.179960">
						<ele>130</ele>
						<time>2024-09-25T19:46:26Z</time>
					</trkpt>
					<trkpt lat="48.795170" lon="2.180610">
						<ele>129</ele>
						<time>2024-09-25T19:46:38Z</time>
					</trkpt>
					<trkpt lat="48.795230" lon="2.180590">
						<ele>129</ele>
						<time>2024-09-25T19:46:40Z</time>
					</trkpt>
					<trkpt lat="48.796000" lon="2.181430">
						<ele>119</ele>
						<time>2024-09-25T19:46:56Z</time>
					</trkpt>
					<trkpt lat="48.796250" lon="2.181790">
						<ele>118</ele>
						<time>2024-09-25T19:47:03Z</time>
					</trkpt>
					<trkpt lat="48.797210" lon="2.182900">
						<ele>112</ele>
						<time>2024-09-25T19:47:24Z</time>
					</trkpt>
					<trkpt lat="48.797620" lon="2.183390">
						<ele>110</ele>
						<time>2024-09-25T19:47:33Z</time>
					</trkpt>
					<trkpt lat="48.798950" lon="2.184930">
						<ele>103</ele>
						<time>2024-09-25T19:48:03Z</time>
					</trkpt>
					<trkpt lat="48.799140" lon="2.185130">
						<ele>103</ele>
						<time>2024-09-25T19:48:07Z</time>
					</trkpt>
					<trkpt lat="48.799430" lon="2.185490">
						<ele>102</ele>
						<time>2024-09-25T19:48:14Z</time>
					</trkpt>
					<trkpt lat="48.799970" lon="2.186070">
						<ele>102</ele>
						<time>2024-09-25T19:48:26Z</time>
					</trkpt>
					<trkpt lat="48.800530" lon="2.186720">
						<ele>99</ele>
						<time>2024-09-25T19:48:38Z</time>
					</trkpt>
					<trkpt lat="48.800620" lon="2.187260">
						<ele>98</ele>
						<time>2024-09-25T19:48:45Z</time>
					</trkpt>
					<trkpt lat="48.800530" lon="2.189160">
						<ele>105</ele>
						<time>2024-09-25T19:49:07Z</time>
					</trkpt>
					<trkpt lat="48.800500" lon="2.189160">
						<ele>105</ele>
						<time>2024-09-25T19:49:08Z</time>
					</trkpt>
					<trkpt lat="48.800470" lon="2.189180">
						<ele>104</ele>
						<time>2024-09-25T19:49:08Z</time>
					</trkpt>
					<trkpt lat="48.800460" lon="2.189220">
						<ele>104</ele>
						<time>2024-09-25T19:49:09Z</time>
					</trkpt>
					<trkpt lat="48.800490" lon="2.189290">
						<ele>105</ele>
						<time>2024-09-25T19:49:10Z</time>
					</trkpt>
					<trkpt lat="48.800530" lon="2.189290">
						<ele>106</ele>
						<time>2024-09-25T19:49:10Z</time>
					</trkpt>
					<trkpt lat="48.800560" lon="2.189340">
						<ele>107</ele>
						<time>2024-09-25T19:49:11Z</time>
					</trkpt>
					<trkpt lat="48.800450" lon="2.192630">
						<ele>119</ele>
						<time>2024-09-25T19:49:50Z</time>
					</trkpt>
					<trkpt lat="48.800450" lon="2.192860">
						<ele>119</ele>
						<time>2024-09-25T19:49:52Z</time>
					</trkpt>
					<trkpt lat="48.800510" lon="2.193070">
						<ele>120</ele>
						<time>2024-09-25T19:49:55Z</time>
					</trkpt>
					<trkpt lat="48.800600" lon="2.193240">
						<ele>122</ele>
						<time>2024-09-25T19:49:58Z</time>
					</trkpt>
					<trkpt lat="48.800710" lon="2.193360">
						<ele>123</ele>
						<time>2024-09-25T19:50:00Z</time>
					</trkpt>
					<trkpt lat="48.800820" lon="2.193430">
						<ele>125</ele>
						<time>2024-09-25T19:50:02Z</time>
					</trkpt>
					<trkpt lat="48.803530" lon="2.194560">
						<ele>141</ele>
						<time>2024-09-25T19:50:52Z</time>
					</trkpt>
					<trkpt lat="48.804270" lon="2.194880">
						<ele>142</ele>
						<time>2024-09-25T19:51:06Z</time>
					</trkpt>
					<trkpt lat="48.804360" lon="2.194940">
						<ele>142</ele>
						<time>2024-09-25T19:51:08Z</time>
					</trkpt>
					<trkpt lat="48.804420" lon="2.195010">
						<ele>142</ele>
						<time>2024-09-25T19:51:09Z</time>
					</trkpt>
					<trkpt lat="48.804380" lon="2.194990">
						<ele>142</ele>
						<time>2024-09-25T19:51:10Z</time>
					</trkpt>
					<trkpt lat="48.804930" lon="2.196250">
						<ele>142</ele>
						<time>2024-09-25T19:51:27Z</time>
					</trkpt>
					<trkpt lat="48.804950" lon="2.196410">
						<ele>142</ele>
						<time>2024-09-25T19:51:29Z</time>
					</trkpt>
					<trkpt lat="48.804940" lon="2.196590">
						<ele>141</ele>
						<time>2024-09-25T19:51:32Z</time>
					</trkpt>
					<trkpt lat="48.804900" lon="2.196750">
						<ele>141</ele>
						<time>2024-09-25T19:51:34Z</time>
					</trkpt>
					<trkpt lat="48.803940" lon="2.199120">
						<ele>154</ele>
						<time>2024-09-25T19:52:06Z</time>
					</trkpt>
					<trkpt lat="48.803820" lon="2.199870">
						<ele>156</ele>
						<time>2024-09-25T19:52:15Z</time>
					</trkpt>
					<trkpt lat="48.803720" lon="2.200680">
						<ele>160</ele>
						<time>2024-09-25T19:52:25Z</time>
					</trkpt>
					<trkpt lat="48.803450" lon="2.202460">
						<ele>170</ele>
						<time>2024-09-25T19:52:46Z</time>
					</trkpt>
					<trkpt lat="48.802800" lon="2.203750">
						<ele>175</ele>
						<time>2024-09-25T19:53:05Z</time>
					</trkpt>
					<trkpt lat="48.802710" lon="2.203890">
						<ele>175</ele>
						<time>2024-09-25T19:53:08Z</time>
					</trkpt>
					<trkpt lat="48.802610" lon="2.203910">
						<ele>175</ele>
						<time>2024-09-25T19:53:09Z</time>
					</trkpt>
					<trkpt lat="48.802530" lon="2.203840">
						<ele>175</ele>
						<time>2024-09-25T19:53:11Z</time>
					</trkpt>
					<trkpt lat="48.802440" lon="2.203800">
						<ele>176</ele>
						<time>2024-09-25T19:53:13Z</time>
					</trkpt>
					<trkpt lat="48.802330" lon="2.203800">
						<ele>176</ele>
						<time>2024-09-25T19:53:15Z</time>
					</trkpt>
					<trkpt lat="48.802170" lon="2.203890">
						<ele>176</ele>
						<time>2024-09-25T19:53:18Z</time>
					</trkpt>
					<trkpt lat="48.802090" lon="2.203970">
						<ele>177</ele>
						<time>2024-09-25T19:53:19Z</time>
					</trkpt>
					<trkpt lat="48.802050" lon="2.204050">
						<ele>177</ele>
						<time>2024-09-25T19:53:21Z</time>
					</trkpt>
					<trkpt lat="48.802000" lon="2.204200">
						<ele>177</ele>
						<time>2024-09-25T19:53:23Z</time>
					</trkpt>
					<trkpt lat="48.801980" lon="2.204450">
						<ele>178</ele>
						<time>2024-09-25T19:53:25Z</time>
					</trkpt>
					<trkpt lat="48.802010" lon="2.204670">
						<ele>179</ele>
						<time>2024-09-25T19:53:28Z</time>
					</trkpt>
					<trkpt lat="48.802110" lon="2.204860">
						<ele>178</ele>
						<time>2024-09-25T19:53:31Z</time>
					</trkpt>
					<trkpt lat="48.802200" lon="2.204950">
						<ele>178</ele>
						<time>2024-09-25T19:53:33Z</time>
					</trkpt>
					<trkpt lat="48.800960" lon="2.208400">
						<ele>186</ele>
						<time>2024-09-25T19:54:19Z</time>
					</trkpt>
					<trkpt lat="48.800880" lon="2.208340">
						<ele>186</ele>
						<time>2024-09-25T19:54:21Z</time>
					</trkpt>
					<trkpt lat="48.800810" lon="2.208320">
						<ele>186</ele>
						<time>2024-09-25T19:54:22Z</time>
					</trkpt>
					<trkpt lat="48.800730" lon="2.208330">
						<ele>186</ele>
						<time>2024-09-25T19:54:23Z</time>
					</trkpt>
					<trkpt lat="48.800670" lon="2.208370">
						<ele>185</ele>
						<time>2024-09-25T19:54:24Z</time>
					</trkpt>
					<trkpt lat="48.800600" lon="2.208450">
						<ele>185</ele>
						<time>2024-09-25T19:54:26Z</time>
					</trkpt>
					<trkpt lat="48.800550" lon="2.208560">
						<ele>184</ele>
						<time>2024-09-25T19:54:27Z</time>
					</trkpt>
					<trkpt lat="48.800520" lon="2.208680">
						<ele>184</ele>
						<time>2024-09-25T19:54:29Z</time>
					</trkpt>
					<trkpt lat="48.800520" lon="2.208800">
						<ele>184</ele>
						<time>2024-09-25T19:54:30Z</time>
					</trkpt>
					<trkpt lat="48.800540" lon="2.208900">
						<ele>184</ele>
						<time>2024-09-25T19:54:32Z</time>
					</trkpt>
					<trkpt lat="48.800620" lon="2.209050">
						<ele>184</ele>
						<time>2024-09-25T19:54:34Z</time>
					</trkpt>
					<trkpt lat="48.800720" lon="2.209140">
						<ele>184</ele>
						<time>2024-09-25T19:54:36Z</time>
					</trkpt>
					<trkpt lat="48.800390" lon="2.212320">
						<ele>186</ele>
						<time>2024-09-25T19:55:14Z</time>
					</trkpt>
					<trkpt lat="48.800270" lon="2.213270">
						<ele>183</ele>
						<time>2024-09-25T19:55:25Z</time>
					</trkpt>
					<trkpt lat="48.800040" lon="2.215460">
						<ele>173</ele>
						<time>2024-09-25T19:55:51Z</time>
					</trkpt>
					<trkpt lat="48.799990" lon="2.215520">
						<ele>173</ele>
						<time>2024-09-25T19:55:52Z</time>
					</trkpt>
					<trkpt lat="48.799880" lon="2.215560">
						<ele>173</ele>
						<time>2024-09-25T19:55:54Z</time>
					</trkpt>
					<trkpt lat="48.799750" lon="2.215580">
						<ele>173</ele>
						<time>2024-09-25T19:55:56Z</time>
					</trkpt>
					<trkpt lat="48.798780" lon="2.214680">
						<ele>178</ele>
						<time>2024-09-25T19:56:17Z</time>
					</trkpt>
					<trkpt lat="48.798270" lon="2.215870">
						<ele>172</ele>
						<time>2024-09-25T19:56:33Z</time>
					</trkpt>
					<trkpt lat="48.798210" lon="2.216370">
						<ele>170</ele>
						<time>2024-09-25T19:56:39Z</time>
					</trkpt>
					<trkpt lat="48.798030" lon="2.218560">
						<ele>165</ele>
						<time>2024-09-25T19:57:05Z</time>
					</trkpt>
					<trkpt lat="48.798190" lon="2.218400">
						<ele>166</ele>
						<time>2024-09-25T19:57:09Z</time>
					</trkpt>
					<trkpt lat="48.799370" lon="2.216740">
						<ele>173</ele>
						<time>2024-09-25T19:57:37Z</time>
					</trkpt>
					<trkpt lat="48.799660" lon="2.216360">
						<ele>172</ele>
						<time>2024-09-25T19:57:44Z</time>
					</trkpt>
					<trkpt lat="48.799920" lon="2.216190">
						<ele>172</ele>
						<time>2024-09-25T19:57:49Z</time>
					</trkpt>
					<trkpt lat="48.800070" lon="2.216140">
						<ele>173</ele>
						<time>2024-09-25T19:57:52Z</time>
					</trkpt>
					<trkpt lat="48.800200" lon="2.216180">
						<ele>173</ele>
						<time>2024-09-25T19:57:54Z</time>
					</trkpt>
					<trkpt lat="48.800410" lon="2.216340">
						<ele>173</ele>
						<time>2024-09-25T19:57:58Z</time>
					</trkpt>
					<trkpt lat="48.803690" lon="2.219460">
						<ele>180</ele>
						<time>2024-09-25T19:59:07Z</time>
					</trkpt>
					<trkpt lat="48.806640" lon="2.222350">
						<ele>172</ele>
						<time>2024-09-25T20:00:10Z</time>
					</trkpt>
					<trkpt lat="48.806970" lon="2.222640">
						<ele>171</ele>
						<time>2024-09-25T20:00:16Z</time>
					</trkpt>
					<trkpt lat="48.809360" lon="2.224940">
						<ele>175</ele>
						<time>2024-09-25T20:01:07Z</time>
					</trkpt>
					<trkpt lat="48.809810" lon="2.225410">
						<ele>174</ele>
						<time>2024-09-25T20:01:17Z</time>
					</trkpt>
					<trkpt lat="48.809850" lon="2.225590">
						<ele>173</ele>
						<time>2024-09-25T20:01:19Z</time>
					</trkpt>
					<trkpt lat="48.810300" lon="2.230060">
						<ele>156</ele>
						<time>2024-09-25T20:02:12Z</time>
					</trkpt>
					<trkpt lat="48.810340" lon="2.230230">
						<ele>155</ele>
						<time>2024-09-25T20:02:14Z</time>
					</trkpt>
					<trkpt lat="48.810450" lon="2.230260">
						<ele>154</ele>
						<time>2024-09-25T20:02:16Z</time>
					</trkpt>
					<trkpt lat="48.811850" lon="2.230090">
						<ele>147</ele>
						<time>2024-09-25T20:02:41Z</time>
					</trkpt>
					<trkpt lat="48.811920" lon="2.230170">
						<ele>146</ele>
						<time>2024-09-25T20:02:42Z</time>
					</trkpt>
					<trkpt lat="48.812110" lon="2.230090">
						<ele>145</ele>
						<time>2024-09-25T20:02:46Z</time>
					</trkpt>
					<trkpt lat="48.812430" lon="2.230010">
						<ele>143</ele>
						<time>2024-09-25T20:02:52Z</time>
					</trkpt>
					<trkpt lat="48.812770" lon="2.229900">
						<ele>141</ele>
						<time>2024-09-25T20:02:58Z</time>
					</trkpt>
					<trkpt lat="48.812900" lon="2.229970">
						<ele>139</ele>
						<time>2024-09-25T20:03:00Z</time>
					</trkpt>
					<trkpt lat="48.814130" lon="2.229830">
						<ele>128</ele>
						<time>2024-09-25T20:03:22Z</time>
					</trkpt>
					<trkpt lat="48.814500" lon="2.229830">
						<ele>124</ele>
						<time>2024-09-25T20:03:29Z</time>
					</trkpt>
					<trkpt lat="48.814730" lon="2.230050">
						<ele>120</ele>
						<time>2024-09-25T20:03:34Z</time>
					</trkpt>
					<trkpt lat="48.814890" lon="2.230220">
						<ele>118</ele>
						<time>2024-09-25T20:03:37Z</time>
					</trkpt>
					<trkpt lat="48.814910" lon="2.230440">
						<ele>118</ele>
						<time>2024-09-25T20:03:40Z</time>
					</trkpt>
					<trkpt lat="48.817510" lon="2.229790">
						<ele>104</ele>
						<time>2024-09-25T20:04:27Z</time>
					</trkpt>
					<trkpt lat="48.817570" lon="2.229760">
						<ele>104</ele>
						<time>2024-09-25T20:04:28Z</time>
					</trkpt>
					<trkpt lat="48.817680" lon="2.229990">
						<ele>103</ele>
						<time>2024-09-25T20:04:31Z</time>
					</trkpt>
					<trkpt lat="48.817730" lon="2.230030">
						<ele>103</ele>
						<time>2024-09-25T20:04:32Z</time>
					</trkpt>
					<trkpt lat="48.817780" lon="2.230140">
						<ele>102</ele>
						<time>2024-09-25T20:04:34Z</time>
					</trkpt>
					<trkpt lat="48.817820" lon="2.230160">
						<ele>102</ele>
						<time>2024-09-25T20:04:34Z</time>
					</trkpt>
					<trkpt lat="48.817870" lon="2.230160">
						<ele>101</ele>
						<time>2024-09-25T20:04:35Z</time>
					</trkpt>
					<trkpt lat="48.817900" lon="2.230130">
						<ele>101</ele>
						<time>2024-09-25T20:04:36Z</time>
					</trkpt>
					<trkpt lat="48.818530" lon="2.231220">
						<ele>95</ele>
						<time>2024-09-25T20:04:53Z</time>
					</trkpt>
					<trkpt lat="48.818720" lon="2.231570">
						<ele>94</ele>
						<time>2024-09-25T20:04:58Z</time>
					</trkpt>
					<trkpt lat="48.818830" lon="2.231820">
						<ele>93</ele>
						<time>2024-09-25T20:05:02Z</time>
					</trkpt>
					<trkpt lat="48.818890" lon="2.232040">
						<ele>93</ele>
						<time>2024-09-25T20:05:05Z</time>
					</trkpt>
					<trkpt lat="48.818940" lon="2.232360">
						<ele>92</ele>
						<time>2024-09-25T20:05:08Z</time>
					</trkpt>
					<trkpt lat="48.819010" lon="2.233000">
						<ele>88</ele>
						<time>2024-09-25T20:05:16Z</time>
					</trkpt>
					<trkpt lat="48.819030" lon="2.233380">
						<ele>86</ele>
						<time>2024-09-25T20:05:20Z</time>
					</trkpt>
					<trkpt lat="48.819010" lon="2.233800">
						<ele>82</ele>
						<time>2024-09-25T20:05:25Z</time>
					</trkpt>
					<trkpt lat="48.818940" lon="2.234130">
						<ele>80</ele>
						<time>2024-09-25T20:05:29Z</time>
					</trkpt>
					<trkpt lat="48.818820" lon="2.234550">
						<ele>79</ele>
						<time>2024-09-25T20:05:35Z</time>
					</trkpt>
					<trkpt lat="48.818890" lon="2.235690">
						<ele>66</ele>
						<time>2024-09-25T20:05:48Z</time>
					</trkpt>
					<trkpt lat="48.818900" lon="2.236610">
						<ele>62</ele>
						<time>2024-09-25T20:05:59Z</time>
					</trkpt>
					<trkpt lat="48.818890" lon="2.236950">
						<ele>61</ele>
						<time>2024-09-25T20:06:03Z</time>
					</trkpt>
					<trkpt lat="48.818800" lon="2.237870">
						<ele>60</ele>
						<time>2024-09-25T20:06:14Z</time>
					</trkpt>
					<trkpt lat="48.818800" lon="2.238550">
						<ele>58</ele>
						<time>2024-09-25T20:06:22Z</time>
					</trkpt>
					<trkpt lat="48.818750" lon="2.240610">
						<ele>53</ele>
						<time>2024-09-25T20:06:46Z</time>
					</trkpt>
					<trkpt lat="48.818790" lon="2.241110">
						<ele>51</ele>
						<time>2024-09-25T20:06:52Z</time>
					</trkpt>
					<trkpt lat="48.818990" lon="2.242550">
						<ele>41</ele>
						<time>2024-09-25T20:07:09Z</time>
					</trkpt>
					<trkpt lat="48.819000" lon="2.242660">
						<ele>41</ele>
						<time>2024-09-25T20:07:10Z</time>
					</trkpt>
					<trkpt lat="48.818990" lon="2.242680">
						<ele>41</ele>
						<time>2024-09-25T20:07:11Z</time>
					</trkpt>
					<trkpt lat="48.819090" lon="2.242700">
						<ele>38</ele>
						<time>2024-09-25T20:07:13Z</time>
					</trkpt>
					<trkpt lat="48.819110" lon="2.242770">
						<ele>38</ele>
						<time>2024-09-25T20:07:13Z</time>
					</trkpt>
					<trkpt lat="48.819440" lon="2.242800">
						<ele>34</ele>
						<time>2024-09-25T20:07:19Z</time>
					</trkpt>
					<trkpt lat="48.819670" lon="2.242840">
						<ele>32</ele>
						<time>2024-09-25T20:07:23Z</time>
					</trkpt>
					<trkpt lat="48.819750" lon="2.242810">
						<ele>32</ele>
						<time>2024-09-25T20:07:25Z</time>
					</trkpt>
					<trkpt lat="48.819890" lon="2.242910">
						<ele>30</ele>
						<time>2024-09-25T20:07:28Z</time>
					</trkpt>
					<trkpt lat="48.819910" lon="2.242980">
						<ele>30</ele>
						<time>2024-09-25T20:07:29Z</time>
					</trkpt>
					<trkpt lat="48.819980" lon="2.243050">
						<ele>30</ele>
						<time>2024-09-25T20:07:30Z</time>
					</trkpt>
					<trkpt lat="48.820010" lon="2.243180">
						<ele>30</ele>
						<time>2024-09-25T20:07:32Z</time>
					</trkpt>
					<trkpt lat="48.820080" lon="2.243710">
						<ele>31</ele>
						<time>2024-09-25T20:07:38Z</time>
					</trkpt>
					<trkpt lat="48.820170" lon="2.244540">
						<ele>34</ele>
						<time>2024-09-25T20:07:48Z</time>
					</trkpt>
					<trkpt lat="48.820280" lon="2.245220">
						<ele>35</ele>
						<time>2024-09-25T20:07:56Z</time>
					</trkpt>
					<trkpt lat="48.820590" lon="2.246780">
						<ele>29</ele>
						<time>2024-09-25T20:08:15Z</time>
					</trkpt>
					<trkpt lat="48.820670" lon="2.247080">
						<ele>29</ele>
						<time>2024-09-25T20:08:19Z</time>
					</trkpt>
					<trkpt lat="48.820820" lon="2.247520">
						<ele>29</ele>
						<time>2024-09-25T20:08:25Z</time>
					</trkpt>
					<trkpt lat="48.821090" lon="2.248530">
						<ele>32</ele>
						<time>2024-09-25T20:08:38Z</time>
					</trkpt>
					<trkpt lat="48.821320" lon="2.249670">
						<ele>32</ele>
						<time>2024-09-25T20:08:51Z</time>
					</trkpt>
					<trkpt lat="48.821400" lon="2.250280">
						<ele>32</ele>
						<time>2024-09-25T20:08:59Z</time>
					</trkpt>
					<trkpt lat="48.821450" lon="2.250390">
						<ele>32</ele>
						<time>2024-09-25T20:09:00Z</time>
					</trkpt>
					<trkpt lat="48.821540" lon="2.250490">
						<ele>32</ele>
						<time>2024-09-25T20:09:02Z</time>
					</trkpt>
					<trkpt lat="48.821680" lon="2.250460">
						<ele>32</ele>
						<time>2024-09-25T20:09:05Z</time>
					</trkpt>
					<trkpt lat="48.821810" lon="2.250300">
						<ele>32</ele>
						<time>2024-09-25T20:09:08Z</time>
					</trkpt>
					<trkpt lat="48.821920" lon="2.250330">
						<ele>32</ele>
						<time>2024-09-25T20:09:10Z</time>
					</trkpt>
					<trkpt lat="48.821980" lon="2.250230">
						<ele>32</ele>
						<time>2024-09-25T20:09:11Z</time>
					</trkpt>
					<trkpt lat="48.822190" lon="2.250120">
						<ele>32</ele>
						<time>2024-09-25T20:09:15Z</time>
					</trkpt>
					<trkpt lat="48.822340" lon="2.250070">
						<ele>33</ele>
						<time>2024-09-25T20:09:18Z</time>
					</trkpt>
					<trkpt lat="48.822520" lon="2.250030">
						<ele>33</ele>
						<time>2024-09-25T20:09:21Z</time>
					</trkpt>
					<trkpt lat="48.822970" lon="2.249810">
						<ele>36</ele>
						<time>2024-09-25T20:09:30Z</time>
					</trkpt>
					<trkpt lat="48.823020" lon="2.249680">
						<ele>37</ele>
						<time>2024-09-25T20:09:31Z</time>
					</trkpt>
					<trkpt lat="48.823220" lon="2.249640">
						<ele>38</ele>
						<time>2024-09-25T20:09:35Z</time>
					</trkpt>
					<trkpt lat="48.823530" lon="2.249350">
						<ele>37</ele>
						<time>2024-09-25T20:09:42Z</time>
					</trkpt>
					<trkpt lat="48.823910" lon="2.249170">
						<ele>35</ele>
						<time>2024-09-25T20:09:49Z</time>
					</trkpt>
					<trkpt lat="48.825120" lon="2.248540">
						<ele>32</ele>
						<time>2024-09-25T20:10:11Z</time>
					</trkpt>
					<trkpt lat="48.825150" lon="2.248580">
						<ele>33</ele>
						<time>2024-09-25T20:10:12Z</time>
					</trkpt>
					<trkpt lat="48.825200" lon="2.248970">
						<ele>32</ele>
						<time>2024-09-25T20:10:17Z</time>
					</trkpt>
					<trkpt lat="48.825330" lon="2.249350">
						<ele>32</ele>
						<time>2024-09-25T20:10:22Z</time>
					</trkpt>
					<trkpt lat="48.825520" lon="2.249810">
						<ele>30</ele>
						<time>2024-09-25T20:10:28Z</time>
					</trkpt>
					<trkpt lat="48.825950" lon="2.250640">
						<ele>27</ele>
						<time>2024-09-25T20:10:41Z</time>
					</trkpt>
					<trkpt lat="48.826190" lon="2.251040">
						<ele>27</ele>
						<time>2024-09-25T20:10:47Z</time>
					</trkpt>
					<trkpt lat="48.826440" lon="2.251390">
						<ele>27</ele>
						<time>2024-09-25T20:10:53Z</time>
					</trkpt>
					<trkpt lat="48.826460" lon="2.251490">
						<ele>26</ele>
						<time>2024-09-25T20:10:54Z</time>
					</trkpt>
					<trkpt lat="48.826790" lon="2.251880">
						<ele>26</ele>
						<time>2024-09-25T20:11:02Z</time>
					</trkpt>
					<trkpt lat="48.827260" lon="2.252380">
						<ele>30</ele>
						<time>2024-09-25T20:11:12Z</time>
					</trkpt>
					<trkpt lat="48.827720" lon="2.253010">
						<ele>33</ele>
						<time>2024-09-25T20:11:23Z</time>
					</trkpt>
					<trkpt lat="48.828150" lon="2.253660">
						<ele>34</ele>
						<time>2024-09-25T20:11:34Z</time>
					</trkpt>
					<trkpt lat="48.828920" lon="2.254640">
						<ele>30</ele>
						<time>2024-09-25T20:11:51Z</time>
					</trkpt>
					<trkpt lat="48.829120" lon="2.254910">
						<ele>28</ele>
						<time>2024-09-25T20:11:56Z</time>
					</trkpt>
					<trkpt lat="48.829890" lon="2.256160">
						<ele>31</ele>
						<time>2024-09-25T20:12:16Z</time>
					</trkpt>
					<trkpt lat="48.829920" lon="2.256350">
						<ele>31</ele>
						<time>2024-09-25T20:12:19Z</time>
					</trkpt>
					<trkpt lat="48.830060" lon="2.256650">
						<ele>30</ele>
						<time>2024-09-25T20:12:23Z</time>
					</trkpt>
					<trkpt lat="48.830670" lon="2.257750">
						<ele>35</ele>
						<time>2024-09-25T20:12:40Z</time>
					</trkpt>
					<trkpt lat="48.830920" lon="2.258160">
						<ele>35</ele>
						<time>2024-09-25T20:12:46Z</time>
					</trkpt>
					<trkpt lat="48.831080" lon="2.258360">
						<ele>36</ele>
						<time>2024-09-25T20:12:50Z</time>
					</trkpt>
					<trkpt lat="48.831070" lon="2.258410">
						<ele>35</ele>
						<time>2024-09-25T20:12:51Z</time>
					</trkpt>
					<trkpt lat="48.831790" lon="2.259360">
						<ele>31</ele>
						<time>2024-09-25T20:13:08Z</time>
					</trkpt>
					<trkpt lat="48.832260" lon="2.259910">
						<ele>31</ele>
						<time>2024-09-25T20:13:18Z</time>
					</trkpt>
					<trkpt lat="48.832470" lon="2.260080">
						<ele>31</ele>
						<time>2024-09-25T20:13:22Z</time>
					</trkpt>
					<trkpt lat="48.833740" lon="2.261210">
						<ele>32</ele>
						<time>2024-09-25T20:13:49Z</time>
					</trkpt>
					<trkpt lat="48.834510" lon="2.261930">
						<ele>30</ele>
						<time>2024-09-25T20:14:05Z</time>
					</trkpt>
					<trkpt lat="48.835010" lon="2.262430">
						<ele>29</ele>
						<time>2024-09-25T20:14:15Z</time>
					</trkpt>
					<trkpt lat="48.836510" lon="2.264020">
						<ele>32</ele>
						<time>2024-09-25T20:14:48Z</time>
					</trkpt>
					<trkpt lat="48.837350" lon="2.264870">
						<ele>28</ele>
						<time>2024-09-25T20:15:06Z</time>
					</trkpt>
					<trkpt lat="48.838040" lon="2.265600">
						<ele>29</ele>
						<time>2024-09-25T20:15:21Z</time>
					</trkpt>
					<trkpt lat="48.838280" lon="2.265880">
						<ele>29</ele>
						<time>2024-09-25T20:15:26Z</time>
					</trkpt>
					<trkpt lat="48.838430" lon="2.266190">
						<ele>30</ele>
						<time>2024-09-25T20:15:31Z</time>
					</trkpt>
					<trkpt lat="48.838560" lon="2.266390">
						<ele>32</ele>
						<time>2024-09-25T20:15:34Z</time>
					</trkpt>
					<trkpt lat="48.840330" lon="2.268110">
						<ele>37</ele>
						<time>2024-09-25T20:16:11Z</time>
					</trkpt>
					<trkpt lat="48.840820" lon="2.268640">
						<ele>34</ele>
						<time>2024-09-25T20:16:22Z</time>
					</trkpt>
					<trkpt lat="48.841180" lon="2.268990">
						<ele>33</ele>
						<time>2024-09-25T20:16:30Z</time>
					</trkpt>
					<trkpt lat="48.841650" lon="2.269370">
						<ele>33</ele>
						<time>2024-09-25T20:16:39Z</time>
					</trkpt>
					<trkpt lat="48.844060" lon="2.271690">
						<ele>44</ele>
						<time>2024-09-25T20:17:30Z</time>
					</trkpt>
					<trkpt lat="48.844380" lon="2.272080">
						<ele>43</ele>
						<time>2024-09-25T20:17:37Z</time>
					</trkpt>
					<trkpt lat="48.844990" lon="2.272670">
						<ele>42</ele>
						<time>2024-09-25T20:17:50Z</time>
					</trkpt>
					<trkpt lat="48.845640" lon="2.273230">
						<ele>34</ele>
						<time>2024-09-25T20:18:03Z</time>
					</trkpt>
					<trkpt lat="48.846090" lon="2.273650">
						<ele>34</ele>
						<time>2024-09-25T20:18:13Z</time>
					</trkpt>
					<trkpt lat="48.846860" lon="2.274480">
						<ele>38</ele>
						<time>2024-09-25T20:18:29Z</time>
					</trkpt>
					<trkpt lat="48.847160" lon="2.274770">
						<ele>39</ele>
						<time>2024-09-25T20:18:36Z</time>
					</trkpt>
					<trkpt lat="48.847820" lon="2.275340">
						<ele>43</ele>
						<time>2024-09-25T20:18:49Z</time>
					</trkpt>
					<trkpt lat="48.848930" lon="2.276400">
						<ele>46</ele>
						<time>2024-09-25T20:19:13Z</time>
					</trkpt>
					<trkpt lat="48.849910" lon="2.277640">
						<ele>37</ele>
						<time>2024-09-25T20:19:35Z</time>
					</trkpt>
					<trkpt lat="48.850140" lon="2.277960">
						<ele>36</ele>
						<time>2024-09-25T20:19:41Z</time>
					</trkpt>
					<trkpt lat="48.850760" lon="2.278900">
						<ele>34</ele>
						<time>2024-09-25T20:19:56Z</time>
					</trkpt>
					<trkpt lat="48.852470" lon="2.281170">
						<ele>32</ele>
						<time>2024-09-25T20:20:37Z</time>
					</trkpt>
					<trkpt lat="48.853100" lon="2.282110">
						<ele>34</ele>
						<time>2024-09-25T20:20:53Z</time>
					</trkpt>
					<trkpt lat="48.856800" lon="2.287160">
						<ele>38</ele>
						<time>2024-09-25T20:22:21Z</time>
					</trkpt>
					<trkpt lat="48.857700" lon="2.288060">
						<ele>38</ele>
						<time>2024-09-25T20:22:40Z</time>
					</trkpt>
					<trkpt lat="48.857710" lon="2.288100">
						<ele>38</ele>
						<time>2024-09-25T20:22:41Z</time>
					</trkpt>
					<trkpt lat="48.859880" lon="2.290750">
						<ele>33</ele>
						<time>2024-09-25T20:23:30Z</time>
					</trkpt>
					<trkpt lat="48.859940" lon="2.290800">
						<ele>33</ele>
						<time>2024-09-25T20:23:31Z</time>
					</trkpt>
					<trkpt lat="48.859990" lon="2.290770">
						<ele>33</ele>
						<time>2024-09-25T20:23:32Z</time>
					</trkpt>
					<trkpt lat="48.860360" lon="2.291230">
						<ele>31</ele>
						<time>2024-09-25T20:23:41Z</time>
					</trkpt>
					<trkpt lat="48.859320" lon="2.292830">
						<ele>33</ele>
						<time>2024-09-25T20:24:07Z</time>
					</trkpt>
					<trkpt lat="48.859130" lon="2.292970">
						<ele>36</ele>
						<time>2024-09-25T20:24:11Z</time>
					</trkpt>
					<trkpt lat="48.858900" lon="2.293280">
						<ele>39</ele>
						<time>2024-09-25T20:24:16Z</time>
					</trkpt>
					<trkpt lat="48.860540" lon="2.295610">
						<ele>36</ele>
						<time>2024-09-25T20:24:56Z</time>
					</trkpt>
					<trkpt lat="48.860600" lon="2.295770">
						<ele>36</ele>
						<time>2024-09-25T20:24:59Z</time>
					</trkpt>
					<trkpt lat="48.860920" lon="2.296290">
						<ele>34</ele>
						<time>2024-09-25T20:25:07Z</time>
					</trkpt>
					<trkpt lat="48.861280" lon="2.296970">
						<ele>33</ele>
						<time>2024-09-25T20:25:17Z</time>
					</trkpt>
					<trkpt lat="48.861560" lon="2.297730">
						<ele>32</ele>
						<time>2024-09-25T20:25:27Z</time>
					</trkpt>
					<trkpt lat="48.861750" lon="2.298290">
						<ele>30</ele>
						<time>2024-09-25T20:25:35Z</time>
					</trkpt>
					<trkpt lat="48.861880" lon="2.298800">
						<ele>30</ele>
						<time>2024-09-25T20:25:41Z</time>
					</trkpt>
					<trkpt lat="48.862020" lon="2.299430">
						<ele>32</ele>
						<time>2024-09-25T20:25:49Z</time>
					</trkpt>
					<trkpt lat="48.862100" lon="2.299990">
						<ele>36</ele>
						<time>2024-09-25T20:25:56Z</time>
					</trkpt>
					<trkpt lat="48.862180" lon="2.300740">
						<ele>39</ele>
						<time>2024-09-25T20:26:04Z</time>
					</trkpt>
					<trkpt lat="48.862210" lon="2.301180">
						<ele>38</ele>
						<time>2024-09-25T20:26:10Z</time>
					</trkpt>
					<trkpt lat="48.862250" lon="2.301210">
						<ele>38</ele>
						<time>2024-09-25T20:26:10Z</time>
					</trkpt>
					<trkpt lat="48.862260" lon="2.301820">
						<ele>37</ele>
						<time>2024-09-25T20:26:18Z</time>
					</trkpt>
					<trkpt lat="48.862340" lon="2.302110">
						<ele>38</ele>
						<time>2024-09-25T20:26:21Z</time>
					</trkpt>
					<trkpt lat="48.862520" lon="2.302090">
						<ele>36</ele>
						<time>2024-09-25T20:26:24Z</time>
					</trkpt>
					<trkpt lat="48.862480" lon="2.303170">
						<ele>42</ele>
						<time>2024-09-25T20:26:37Z</time>
					</trkpt>
					<trkpt lat="48.862610" lon="2.309820">
						<ele>42</ele>
						<time>2024-09-25T20:27:55Z</time>
					</trkpt>
					<trkpt lat="48.862640" lon="2.310160">
						<ele>40</ele>
						<time>2024-09-25T20:27:59Z</time>
					</trkpt>
					<trkpt lat="48.862680" lon="2.310420">
						<ele>38</ele>
						<time>2024-09-25T20:28:02Z</time>
					</trkpt>
					<trkpt lat="48.862680" lon="2.310660">
						<ele>37</ele>
						<time>2024-09-25T20:28:05Z</time>
					</trkpt>
					<trkpt lat="48.862850" lon="2.311510">
						<ele>32</ele>
						<time>2024-09-25T20:28:15Z</time>
					</trkpt>
					<trkpt lat="48.862880" lon="2.311910">
						<ele>32</ele>
						<time>2024-09-25T20:28:20Z</time>
					</trkpt>
					<trkpt lat="48.862990" lon="2.317930">
						<ele>43</ele>
						<time>2024-09-25T20:29:31Z</time>
					</trkpt>
					<trkpt lat="48.862960" lon="2.318180">
						<ele>40</ele>
						<time>2024-09-25T20:29:34Z</time>
					</trkpt>
					<trkpt lat="48.862750" lon="2.318850">
						<ele>33</ele>
						<time>2024-09-25T20:29:42Z</time>
					</trkpt>
					<trkpt lat="48.862740" lon="2.318970">
						<ele>32</ele>
						<time>2024-09-25T20:29:44Z</time>
					</trkpt>
					<trkpt lat="48.862690" lon="2.319090">
						<ele>32</ele>
						<time>2024-09-25T20:29:45Z</time>
					</trkpt>
					<trkpt lat="48.862660" lon="2.319220">
						<ele>32</ele>
						<time>2024-09-25T20:29:47Z</time>
					</trkpt>
					<trkpt lat="48.862600" lon="2.319350">
						<ele>32</ele>
						<time>2024-09-25T20:29:49Z</time>
					</trkpt>
					<trkpt lat="48.861420" lon="2.323240">
						<ele>34</ele>
						<time>2024-09-25T20:30:39Z</time>
					</trkpt>
					<trkpt lat="48.861160" lon="2.324220">
						<ele>34</ele>
						<time>2024-09-25T20:30:51Z</time>
					</trkpt>
					<trkpt lat="48.860680" lon="2.325850">
						<ele>34</ele>
						<time>2024-09-25T20:31:12Z</time>
					</trkpt>
					<trkpt lat="48.860650" lon="2.326060">
						<ele>34</ele>
						<time>2024-09-25T20:31:15Z</time>
					</trkpt>
					<trkpt lat="48.860270" lon="2.327290">
						<ele>38</ele>
						<time>2024-09-25T20:31:31Z</time>
					</trkpt>
					<trkpt lat="48.860040" lon="2.327850">
						<ele>38</ele>
						<time>2024-09-25T20:31:38Z</time>
					</trkpt>
					<trkpt lat="48.859950" lon="2.328140">
						<ele>38</ele>
						<time>2024-09-25T20:31:42Z</time>
					</trkpt>
					<trkpt lat="48.859320" lon="2.330240">
						<ele>39</ele>
						<time>2024-09-25T20:32:09Z</time>
					</trkpt>
					<trkpt lat="48.858930" lon="2.331350">
						<ele>38</ele>
						<time>2024-09-25T20:32:24Z</time>
					</trkpt>
					<trkpt lat="48.858640" lon="2.332280">
						<ele>39</ele>
						<time>2024-09-25T20:32:36Z</time>
					</trkpt>
					<trkpt lat="48.858530" lon="2.332720">
						<ele>41</ele>
						<time>2024-09-25T20:32:41Z</time>
					</trkpt>
					<trkpt lat="48.858700" lon="2.332630">
						<ele>39</ele>
						<time>2024-09-25T20:32:45Z</time>
					</trkpt>
					<trkpt lat="48.858820" lon="2.332600">
						<ele>38</ele>
						<time>2024-09-25T20:32:47Z</time>
					</trkpt>
					<trkpt lat="48.859950" lon="2.333260">
						<ele>47</ele>
						<time>2024-09-25T20:33:08Z</time>
					</trkpt>
					<trkpt lat="48.860100" lon="2.333390">
						<ele>46</ele>
						<time>2024-09-25T20:33:11Z</time>
					</trkpt>
					<trkpt lat="48.860180" lon="2.333530">
						<ele>45</ele>
						<time>2024-09-25T20:33:14Z</time>
					</trkpt>
					<trkpt lat="48.860340" lon="2.333610">
						<ele>43</ele>
						<time>2024-09-25T20:33:17Z</time>
					</trkpt>
					<trkpt lat="48.861140" lon="2.334080">
						<ele>38</ele>
						<time>2024-09-25T20:33:32Z</time>
					</trkpt>
					<trkpt lat="48.861150" lon="2.334240">
						<ele>39</ele>
						<time>2024-09-25T20:33:34Z</time>
					</trkpt>
					<trkpt lat="48.861200" lon="2.334380">
						<ele>39</ele>
						<time>2024-09-25T20:33:36Z</time>
					</trkpt>
					<trkpt lat="48.861270" lon="2.334490">
						<ele>40</ele>
						<time>2024-09-25T20:33:37Z</time>
					</trkpt>
					<trkpt lat="48.861370" lon="2.334550">
						<ele>40</ele>
						<time>2024-09-25T20:33:39Z</time>
					</trkpt>
					<trkpt lat="48.861420" lon="2.334560">
						<ele>40</ele>
						<time>2024-09-25T20:33:40Z</time>
					</trkpt>
					<trkpt lat="48.861530" lon="2.334550">
						<ele>40</ele>
						<time>2024-09-25T20:33:42Z</time>
					</trkpt>
					<trkpt lat="48.861620" lon="2.334480">
						<ele>39</ele>
						<time>2024-09-25T20:33:44Z</time>
					</trkpt>
					<trkpt lat="48.861690" lon="2.334360">
						<ele>39</ele>
						<time>2024-09-25T20:33:46Z</time>
					</trkpt>
					<trkpt lat="48.862400" lon="2.335200">
						<ele>45</ele>
						<time>2024-09-25T20:34:02Z</time>
					</trkpt>
					<trkpt lat="48.862570" lon="2.335310">
						<ele>46</ele>
						<time>2024-09-25T20:34:05Z</time>
					</trkpt>
					<trkpt lat="48.862640" lon="2.335330">
						<ele>46</ele>
						<time>2024-09-25T20:34:06Z</time>
					</trkpt>
					<trkpt lat="48.862130" lon="2.336960">
						<ele>48</ele>
						<time>2024-09-25T20:34:27Z</time>
					</trkpt>
					<trkpt lat="48.862710" lon="2.337310">
						<ele>45</ele>
						<time>2024-09-25T20:34:39Z</time>
					</trkpt>
					<trkpt lat="48.862490" lon="2.338080">
						<ele>45</ele>
						<time>2024-09-25T20:34:48Z</time>
					</trkpt>
					<trkpt lat="48.862220" lon="2.339160">
						<ele>47</ele>
						<time>2024-09-25T20:35:02Z</time>
					</trkpt>
					<trkpt lat="48.862120" lon="2.339440">
						<ele>48</ele>
						<time>2024-09-25T20:35:06Z</time>
					</trkpt>
					<trkpt lat="48.862070" lon="2.339670">
						<ele>48</ele>
						<time>2024-09-25T20:35:09Z</time>
					</trkpt>
					<trkpt lat="48.862920" lon="2.341340">
						<ele>50</ele>
						<time>2024-09-25T20:35:33Z</time>
					</trkpt>
					<trkpt lat="48.863100" lon="2.341660">
						<ele>49</ele>
						<time>2024-09-25T20:35:38Z</time>
					</trkpt>
					<trkpt lat="48.863040" lon="2.341910">
						<ele>49</ele>
						<time>2024-09-25T20:35:41Z</time>
					</trkpt>
					<trkpt lat="48.863890" lon="2.342350">
						<ele>49</ele>
						<time>2024-09-25T20:35:57Z</time>
					</trkpt>
					<trkpt lat="48.863640" lon="2.342720">
						<ele>49</ele>
						<time>2024-09-25T20:36:03Z</time>
					</trkpt>
					<trkpt lat="48.863550" lon="2.343020">
						<ele>48</ele>
						<time>2024-09-25T20:36:07Z</time>
					</trkpt>
					<trkpt lat="48.863560" lon="2.343030">
						<ele>48</ele>
						<time>2024-09-25T20:36:08Z</time>
					</trkpt>
					<trkpt lat="48.863420" lon="2.343550">
						<ele>46</ele>
						<time>2024-09-25T20:36:14Z</time>
					</trkpt>
					</trkseg>
				</trk>
			</gpx>